[[{"header":{"parameterUnit":"m.s-1","parameterCategory":1,"la1":31.0,"la2":29.5877,"lo1":-88.7671,"lo2":-86.6584,"dy":0.0162,"dx":0.0185,"nx":115,"ny":88,"refTime":"2024-06-18T12:00:00:Z","depth":0,"parameterNumber":2,"parameterNumberName":"U-component_of_WINDS"},"data":[0.0,0.0,0.0,0.0,0.0,0.0,0.0,0.0,0.0,0.0,0.0,0.0,0.0,0.0,0.0,0.0,0.0,0.0,0.0,0.0,0.0,0.0,0.0,0.0,0.0,0.0,0.0,0.0,0.0,0.0,0.0,0.0,0.0,0.0,0.0,0.0,0.0,0.0,0.0,0.0,0.0,0.0,0.0,0.0,0.0,0.0,0.0,0.0,0.0,0.0,0.0,0.0,0.0,0.0,0.0,0.0,0.0,0.0,0.0,0.0,0.0,0.0,0.0,0.0,0.0,0.0,0.0,0.0,0.0,0.0,0.0,0.0,0.0,0.0,0.0,0.0,0.0,0.0,0.0,0.0,0.0,0.0,0.0,0.0,0.0,0.0,0.0,0.0,0.0,0.0,0.0,0.0,0.0,0.0,0.0,0.0,0.0,0.0,0.0,0.0,0.0,0.0,0.0,0.0,0.0,0.0,0.0,0.0,0.0,0.0,0.0,0.0,0.0,0.0,0.0,0.0,0.0,0.0,0.0,0.0,0.0,0.0,0.0,0.0,0.0,0.0,0.0,0.0,0.0,0.0,0.0,0.0,0.0,0.0,0.0,0.0,0.0,0.0,0.0,0.0,0.0,0.0,0.0,0.0,0.0,0.0,0.0,0.0,0.0,0.0,0.0,0.0,0.0,0.0,0.0,0.0,0.0,0.0,0.0,0.0,0.0,0.0,0.0,0.0,0.0,0.0,0.0,0.0,0.0,0.0,0.0,0.0,0.0,0.0,0.0,0.0,0.0,0.0,0.0,0.0,0.0,0.0,0.0,0.0,0.0,0.0,0.0,0.0,0.0,0.0,0.0,0.0,0.0,0.0,0.0,0.0,0.0,0.0,0.0,0.0,0.0,0.0,0.0,0.0,0.0,0.0,0.0,0.0,0.0,0.0,0.0,0.0,0.0,0.0,0.0,0.0,0.0,0.0,0.0,0.0,0.0,0.0,0.0,0.0,0.0,0.0,0.0,0.0,0.0,0.0,0.0,0.0,0.0,0.0,0.0,0.0,0.0,0.0,0.0,0.0,0.0,0.0,0.0,0.0,0.0,0.0,0.0,0.0,0.0,0.0,0.0,0.0,0.0,0.0,0.0,0.0,0.0,0.0,0.0,0.0,0.0,0.0,0.0,0.0,0.0,0.0,0.0,0.0,0.0,0.0,0.0,0.0,0.0,0.0,0.0,0.0,0.0,0.0,0.0,0.0,0.0,0.0,0.0,0.0,0.0,0.0,0.0,0.0,0.0,0.0,0.0,0.0,0.0,0.0,0.0,0.0,0.0,0.0,0.0,0.0,0.0,0.0,0.0,0.0,0.0,0.0,0.0,0.0,0.0,0.0,0.0,0.0,0.0,0.0,0.0,0.0,0.0,0.0,0.0,0.0,0.0,0.0,0.0,0.0,0.0,0.0,0.0,0.0,0.0,0.0,0.0,0.0,0.0,0.0,0.0,0.0,0.0,0.0,0.0,0.0,0.0,0.0,0.0,0.0,0.0,0.0,0.0,0.0,0.0,0.0,0.0,0.0,0.0,0.0,0.0,0.0,0.0,0.0,0.0,0.0,0.0,0.0,0.0,0.0,0.0,0.0,0.0,0.0,0.0,0.0,0.0,0.0,0.0,0.0,0.0,0.0,0.0,0.0,0.0,0.0,0.0,0.0,0.0,0.0,0.0,0.0,0.0,0.0,0.0,0.0,0.0,0.0,0.0,0.0,0.0,0.0,0.0,0.0,0.0,0.0,0.0,0.0,0.0,0.0,0.0,0.0,0.0,0.0,0.0,0.0,0.0,0.0,0.0,0.0,0.0,0.0,0.0,0.0,0.0,0.0,0.0,0.0,0.0,0.0,0.0,0.0,0.0,0.0,0.0,0.0,0.0,0.0,0.0,0.0,0.0,0.0,0.0,0.0,0.0,0.0,0.0,0.0,0.0,0.0,0.0,0.0,0.0,0.0,0.0,0.0,0.0,0.0,0.0,0.0,0.0,0.0,0.0,0.0,0.0,0.0,0.0,0.0,0.0,0.0,0.0,0.0,0.0,0.0,0.0,0.0,0.0,0.0,0.0,0.0,0.0,0.0,0.0,0.0,0.0,0.0,0.0,0.0,0.0,0.0,0.0,0.0,0.0,0.0,0.0,0.0,0.0,0.0,0.0,0.0,0.0,0.0,0.0,0.0,0.0,0.0,0.0,0.0,0.0,0.0,0.0,0.0,0.0,0.0,0.0,0.0,0.0,0.0,0.0,0.0,0.0,0.0,0.0,0.0,0.0,0.0,0.0,0.0,0.0,0.0,0.0,0.0,0.0,0.0,0.0,0.0,0.0,0.0,0.0,0.0,0.0,0.0,0.0,0.0,0.0,0.0,0.0,0.0,0.0,0.0,0.0,0.0,0.0,0.0,0.0,0.0,0.0,0.0,0.0,0.0,0.0,0.0,0.0,0.0,0.0,0.0,0.0,0.0,0.0,0.0,0.0,0.0,0.0,0.0,0.0,0.0,0.0,0.0,0.0,0.0,0.0,0.0,0.0,0.0,0.0,0.0,0.0,0.0,0.0,0.0,0.0,0.0,0.0,0.0,0.0,0.0,0.0,0.0,0.0,0.0,0.0,0.0,0.0,0.0,0.0,0.0,0.0,0.0,0.0,0.0,0.0,0.0,0.0,0.0,0.0,0.0,0.0,0.0,0.0,0.0,0.0,0.0,0.0,0.0,0.0,0.0,0.0,0.0,0.0,0.0,0.0,0.0,0.0,0.0,0.0,0.0,0.0,0.0,0.0,0.0,0.0,0.0,0.0,0.0,0.0,0.0,0.0,0.0,0.0,0.0,0.0,0.0,0.0,0.0,0.0,0.0,0.0,0.0,0.0,0.0,0.0,0.0,0.0,0.0,0.0,0.0,0.0,0.0,0.0,0.0,0.0,0.0,0.0,0.0,0.0,0.0,0.0,0.0,0.0,0.0,0.0,0.0,0.0,0.0,0.0,0.0,0.0,0.0,0.0,0.0,0.0,0.0,0.0,0.0,0.0,0.0,0.0,0.0,0.0,0.0,0.0,0.0,0.0,0.0,0.0,0.0,0.0,0.0,0.0,0.0,0.0,0.0,0.0,0.0,0.0,0.0,0.0,0.0,0.0,0.0,0.0,0.0,0.0,0.0,0.0,0.0,0.0,0.0,0.0,0.0,0.0,0.0,0.0,0.0,0.0,0.0,0.0,0.0,0.0,0.0,0.0,0.0,0.0,0.0,0.0,0.0,0.0,0.0,0.0,0.0,0.0,0.0,0.0,0.0,0.0,0.0,0.0,0.0,0.0,0.0,0.0,0.0,0.0,0.0,0.0,0.0,0.0,0.0,0.0,0.0,0.0,0.0,0.0,0.0,0.0,0.0,0.0,0.0,0.0,0.0,0.0,0.0,0.0,0.0,0.0,0.0,0.0,0.0,0.0,0.0,0.0,0.0,0.0,0.0,0.0,0.0,0.0,0.0,0.0,0.0,0.0,0.0,0.0,0.0,0.0,0.0,0.0,0.0,0.0,0.0,0.0,0.0,0.0,0.0,0.0,0.0,0.0,0.0,0.0,0.0,0.0,0.0,0.0,0.0,0.0,0.0,0.0,0.0,0.0,0.0,0.0,0.0,0.0,0.0,0.0,0.0,0.0,0.0,0.0,0.0,0.0,0.0,0.0,0.0,0.0,0.0,0.0,0.0,0.0,0.0,0.0,0.0,0.0,0.0,0.0,0.0,0.0,0.0,0.0,0.0,0.0,0.0,0.0,0.0,0.0,0.0,0.0,0.0,0.0,0.0,0.0,0.0,0.0,0.0,0.0,0.0,0.0,0.0,0.0,0.0,0.0,0.0,0.0,0.0,0.0,0.0,0.0,0.0,0.0,0.0,0.0,0.0,0.0,0.0,0.0,0.0,0.0,0.0,0.0,0.0,0.0,0.0,0.0,0.0,0.0,0.0,0.0,0.0,0.0,0.0,0.0,0.0,0.0,0.0,0.0,0.0,0.0,0.0,0.0,0.0,0.0,0.0,0.0,0.0,0.0,0.0,0.0,0.0,0.0,0.0,0.0,0.0,0.0,0.0,0.0,0.0,0.0,0.0,0.0,0.0,0.0,0.0,0.0,0.0,0.0,0.0,0.0,0.0,0.0,0.0,0.0,0.0,0.0,0.0,0.0,0.0,0.0,0.0,0.0,0.0,0.0,0.0,0.0,0.0,0.0,0.0,0.0,0.0,0.0,0.0,0.0,0.0,0.5398,0.0,0.0,0.0,0.0,0.0,0.0,0.0,0.0,0.0,0.0,0.0,0.0,0.0,0.0,0.0,0.0,0.0,0.0,0.0,0.0,0.0,0.0,0.0,0.0,0.0,0.0,0.0,0.0,0.0,0.0,0.0,0.0,0.0,0.0,0.0,0.0,0.0,0.0,0.0,0.0,0.0,0.0,0.0,0.0,0.0,0.0,0.0,0.0,0.0,0.0,0.0,0.0,0.0,0.0,0.0,0.0,0.0,0.0,0.0,0.0,0.0,0.0,0.0,0.0,0.0,0.0,0.0,0.0,0.0,0.0,0.0,0.0,0.0,0.0,0.0,0.0,0.0,0.0,0.0,0.0,0.0,0.0,0.0,0.0,0.0,0.0,0.0,0.0,0.0,0.0,0.0,0.0,0.0,0.0,0.0,0.0,0.0,0.0,0.0,0.0,0.0,0.0,0.0,0.0,0.0,0.0,0.0,0.0,0.0,0.0,0.5214,0.5316,0.5407,0.546,0.5465,0.0,0.0,0.0,0.0,0.0,0.0,0.0,0.0,0.0,0.0,0.0,0.0,0.0,0.0,0.0,0.0,0.0,0.0,0.0,0.0,0.0,0.0,0.0,0.0,0.0,0.0,0.0,0.0,0.0,0.0,0.0,0.0,0.0,0.0,0.0,0.0,0.0,0.0,0.0,0.0,0.0,0.0,0.0,0.0,0.0,0.0,0.0,0.0,0.0,0.0,0.0,0.0,0.0,0.0,0.0,0.0,0.0,0.0,0.0,0.0,0.0,0.0,0.0,0.0,0.0,0.0,0.0,0.0,0.0,0.0,0.0,0.0,0.0,0.0,0.0,0.0,0.0,0.0,0.0,0.0,0.0,0.0,0.0,0.0,0.0,0.0,0.0,0.0,0.0,0.0,0.0,0.0,0.0,0.0,0.0,0.0,0.0,0.0,0.0,0.0,0.0,0.0,0.0,0.0,0.0,0.0,0.0,0.0,0.0,0.0,0.0,0.0,0.5624,0.5668,0.5683,0.0,0.0,0.0,0.0,0.0,0.0,0.0,0.0,0.0,0.0,0.0,0.0,0.0,0.0,0.0,0.0,0.0,0.0,0.0,0.0,0.0,0.0,0.0,0.0,0.0,0.0,0.0,0.0,0.0,0.0,0.0,0.0,0.0,0.0,0.0,0.0,0.0,0.0,0.0,0.0,0.0,0.0,0.0,0.0,0.0,0.0,0.0,0.0,0.0,0.0,0.0,0.0,0.0,0.0,0.0,0.0,0.0,0.0,0.0,0.0,0.0,0.0,0.0,0.0,0.0,0.0,0.0,0.0,0.0,0.0,0.0,0.0,0.0,0.0,0.0,0.0,0.0,0.0,0.0,0.0,0.0,0.0,0.0,0.0,0.0,0.0,0.0,0.0,0.0,0.0,0.0,0.0,0.0,0.0,0.0,0.0,0.0,0.0,0.0,0.0,0.0,0.0,0.0,0.0,0.0,0.0,0.0,0.0,0.0,0.0,0.5582,0.6018,0.6092,0.0,0.6192,0.0,0.0,0.0,0.0,0.0,0.0,0.0,0.0,0.0,0.0,0.0,0.0,0.0,0.0,0.0,0.0,0.0,0.0,0.0,0.0,0.0,0.0,0.0,0.0,0.0,0.0,0.0,0.0,0.0,0.0,0.0,0.0,0.0,0.0,0.0,0.0,0.0,0.0,0.0,0.0,0.0,0.0,0.0,0.0,0.0,0.0,0.0,0.0,0.0,0.0,0.0,0.0,0.0,0.0,0.0,0.0,0.0,0.0,0.0,0.0,0.0,0.0,0.0,0.0,0.0,0.0,0.0,0.0,0.0,0.0,0.0,0.0,0.0,0.0,0.0,0.0,0.0,0.0,0.0,0.0,0.0,0.0,0.0,0.0,0.0,0.0,0.0,0.0,0.0,0.0,0.0,0.0,0.0,0.0,0.0,0.0,0.0,0.0,0.0,0.0,0.0,0.0,0.0,0.0,0.0,0.0,0.0,0.0,0.0,0.0,0.0,0.6207,0.625,0.6303,0.0,0.0,0.0,0.0,0.0,0.0,0.0,0.0,0.0,0.0,0.0,0.0,0.0,0.0,0.0,0.0,0.0,0.0,0.0,0.0,0.0,0.0,0.0,0.0,0.0,0.0,0.0,0.0,0.0,0.0,0.0,0.0,0.0,0.0,0.0,0.0,0.0,0.0,0.0,0.0,0.0,0.0,0.0,0.0,0.0,0.0,0.0,0.0,0.0,0.0,0.0,0.0,0.0,0.0,0.0,0.0,0.0,0.0,0.0,0.0,0.0,0.0,0.0,0.0,0.0,0.0,0.0,0.0,0.0,0.0,0.0,0.0,0.0,0.0,0.0,0.0,0.0,0.0,0.0,0.0,0.0,0.0,0.0,0.0,0.0,0.0,0.0,0.0,0.0,0.0,0.0,0.0,0.0,0.0,0.0,0.0,0.0,0.0,0.0,0.0,0.0,0.0,0.0,0.0,0.0,0.0,0.0,0.0,0.0,0.0,0.6212,0.0,0.6511,0.6467,0.6463,0.6504,0.0,0.0,0.0,0.0,0.0,0.0,0.0,0.0,0.0,0.0,0.0,0.0,0.0,0.0,0.0,0.0,0.0,0.0,0.0,0.0,0.0,0.0,0.0,0.0,0.0,0.0,0.0,0.0,0.0,0.0,0.0,0.0,0.0,0.0,0.0,0.0,0.0,0.0,0.0,0.0,0.0,0.0,0.0,0.0,0.0,0.0,0.0,0.0,0.0,0.0,0.0,0.0,0.0,0.0,0.0,0.0,0.0,0.0,0.0,0.0,0.0,0.0,0.0,0.0,0.0,0.0,0.0,0.0,0.0,0.0,0.0,0.0,0.0,0.0,0.0,0.0,0.0,0.0,0.0,0.0,0.0,0.0,0.0,0.0,0.0,0.0,0.0,0.0,0.0,0.0,0.0,0.0,0.0,0.0,0.0,0.0,0.0,0.0,0.0,0.0,0.0,0.0,0.0,0.0,0.0,0.0,0.0,0.0,0.0,0.6652,0.6537,0.7039,0.6869,0.6692,0.0,0.0,0.0,0.0,0.0,0.0,0.0,0.0,0.0,0.0,0.0,0.0,0.0,0.0,0.0,0.0,0.0,0.0,0.0,0.0,0.0,0.0,0.0,0.0,0.0,0.0,0.0,0.0,0.0,0.0,0.0,0.0,0.0,0.0,0.0,0.0,0.0,0.0,0.0,0.0,0.0,0.0,0.0,0.0,0.0,0.0,0.0,0.0,0.0,0.0,0.0,0.0,0.0,0.0,0.0,0.0,0.0,0.0,0.0,0.0,0.0,0.0,0.0,0.0,0.0,0.0,0.0,0.0,0.0,0.0,0.0,0.0,0.0,0.0,0.0,0.0,0.0,0.0,0.0,0.0,0.0,0.0,0.0,0.0,0.0,0.0,0.0,0.0,0.0,0.0,0.0,0.0,0.0,0.0,0.0,0.0,0.0,0.0,0.0,0.0,0.0,0.0,0.0,0.0,0.0,0.0,0.0,0.0,0.0,0.6412,0.6415,0.6804,0.0,0.6958,0.6666,0.0,0.0,0.0,0.0,0.0,0.0,0.0,0.0,0.0,0.0,0.0,0.0,0.0,0.0,0.0,0.0,0.0,0.0,0.0,0.0,0.0,0.0,0.0,0.0,0.0,0.0,0.0,0.0,0.0,0.0,0.0,0.0,0.0,0.0,0.0,0.0,0.0,0.0,0.0,0.0,0.0,0.0,0.0,0.0,0.0,0.0,0.0,0.0,0.0,0.0,0.0,0.0,0.0,0.0,0.0,0.0,0.0,0.0,0.0,0.0,0.0,0.0,0.0,0.0,0.0,0.0,0.0,0.0,0.0,0.0,0.0,0.0,0.0,0.0,0.0,0.0,0.0,0.0,0.0,0.0,0.0,0.0,0.0,0.0,0.0,0.0,0.0,0.0,0.0,0.0,0.0,0.0,0.0,0.0,0.0,0.0,0.0,0.0,0.0,0.0,0.0,0.0,0.0,0.0,0.0,0.0,0.0,0.0,0.0,0.6075,0.0,0.6839,0.0,0.6951,0.6673,0.0,0.0,0.0,0.0,0.0,0.0,0.0,0.0,0.0,0.0,0.0,0.0,0.0,0.0,0.0,0.0,0.0,0.0,0.0,0.0,0.0,0.0,0.0,0.0,0.0,0.0,0.0,0.0,0.0,0.0,0.0,0.0,0.0,0.0,0.0,0.0,0.0,0.0,0.0,0.0,0.0,0.0,0.0,0.0,0.0,0.0,0.0,0.0,0.0,0.0,0.0,0.0,0.0,0.0,0.0,0.0,0.0,0.0,0.0,0.0,0.0,0.0,0.0,0.0,0.0,0.0,0.0,0.0,0.0,0.0,0.0,0.0,0.0,0.0,0.0,0.0,0.0,0.0,0.0,0.0,0.0,0.0,0.0,0.0,0.0,0.0,0.0,0.0,0.0,0.0,0.0,0.0,0.0,0.0,0.0,0.0,0.0,0.0,0.0,0.0,0.0,0.0,0.0,0.0,0.0,0.0,0.0,0.0,0.6313,0.6396,0.6607,0.6662,0.6452,0.6835,0.6668,0.0,0.0,0.0,0.0,0.0,0.0,0.0,0.0,0.0,0.0,0.0,0.0,0.0,0.0,0.0,0.0,0.0,0.0,0.0,0.0,0.0,0.0,0.0,0.0,0.0,0.0,0.0,0.0,0.0,0.0,0.0,0.0,0.0,0.0,0.0,0.0,0.0,0.0,0.0,0.0,0.0,0.0,0.0,0.0,0.0,0.0,0.0,0.0,0.0,0.0,0.0,0.0,0.0,0.0,0.0,0.0,0.0,0.0,0.0,0.0,0.0,0.0,0.0,0.0,0.0,0.0,0.0,0.0,0.0,0.0,0.0,0.0,0.0,0.0,0.0,0.0,0.0,0.0,0.0,0.0,0.0,0.0,0.0,0.0,0.0,0.0,0.0,0.0,0.0,0.0,0.0,0.0,0.0,0.0,0.0,0.0,0.0,0.0,0.0,0.0,0.0,0.0,0.0,0.0,0.0,0.0,0.0,0.0,0.0,0.6012,0.6869,0.7195,0.6881,0.6577,0.6461,0.0,0.0,0.0,0.0,0.0,0.0,0.0,0.0,0.0,0.0,0.0,0.0,0.0,0.0,0.0,0.0,0.0,0.0,0.0,0.0,0.0,0.0,0.0,0.0,0.0,0.0,0.0,0.0,0.0,0.0,0.0,0.0,0.0,0.0,0.0,0.0,0.0,0.0,0.0,0.0,0.0,0.0,0.0,0.0,0.0,0.0,0.0,0.0,0.0,0.0,0.0,0.0,0.0,0.0,0.0,0.0,0.0,0.0,0.0,0.0,0.0,0.0,0.0,0.0,0.0,0.0,0.0,0.0,0.0,0.0,0.0,0.0,0.0,0.0,0.0,0.0,0.0,0.0,0.0,0.0,0.0,0.0,0.0,0.0,0.0,0.0,0.0,0.0,0.0,0.0,0.0,0.0,0.0,0.0,0.0,0.0,0.0,0.0,0.0,0.0,0.0,0.0,0.0,0.0,0.0,0.0,0.0,0.0,0.0,0.6761,0.7348,0.7487,0.7059,0.6764,0.6559,0.6429,0.0,0.0,0.0,0.0,0.0,0.0,0.0,0.0,0.0,0.0,0.0,0.0,0.0,0.0,0.0,0.0,0.0,0.0,0.0,0.0,0.0,0.0,0.0,0.0,0.0,0.0,0.0,0.0,0.0,0.0,0.0,0.0,0.0,0.0,0.0,0.0,0.0,0.0,0.0,0.0,0.0,0.0,0.0,0.0,0.0,0.0,0.0,0.0,0.0,0.0,0.0,0.0,0.0,0.0,0.0,0.0,0.0,0.0,0.0,0.0,0.0,0.0,0.0,0.0,0.0,0.0,0.0,0.0,0.0,0.0,0.0,0.0,0.0,0.0,0.0,0.0,0.0,0.0,0.0,0.0,0.0,0.0,0.0,0.0,0.0,0.0,0.0,0.0,0.0,0.0,0.0,0.0,0.0,0.0,0.0,0.0,0.0,0.0,0.0,0.0,0.0,0.0,0.0,0.0,0.0,0.0,0.0,0.0,0.8375,0.8114,0.7757,0.7231,0.7454,0.7024,0.0,0.0,0.0,0.0,0.0,0.0,0.0,0.0,0.0,0.0,0.0,0.0,0.0,0.0,0.0,0.0,0.0,0.0,0.0,0.0,0.0,0.0,0.0,0.0,0.0,0.0,0.0,0.0,0.0,0.0,0.0,0.0,0.0,0.0,0.0,0.0,0.0,0.0,0.0,0.0,0.0,0.0,0.0,0.0,0.0,0.0,0.0,0.0,0.0,0.0,0.0,0.0,0.0,0.0,0.0,0.0,0.0,0.0,0.0,0.0,0.0,0.0,0.0,0.0,0.0,0.0,0.0,0.0,0.0,0.0,0.0,0.0,0.0,0.0,0.0,0.0,0.0,0.0,0.0,0.0,0.0,0.0,0.0,0.0,0.0,0.0,0.0,0.0,0.0,0.0,0.0,0.0,0.0,0.0,0.0,0.0,0.0,0.0,0.0,0.0,0.0,0.0,0.0,0.0,0.0,0.0,0.0,0.0,0.0,0.9174,0.9818,0.9917,0.9373,0.8742,0.8035,0.0,0.0,0.0,0.0,0.0,0.0,0.0,0.0,0.0,0.0,0.0,0.0,0.0,0.0,0.0,0.0,0.0,0.0,0.0,0.0,0.0,0.0,0.0,0.0,0.0,0.0,0.0,0.0,0.0,0.0,0.0,0.0,0.0,0.0,0.0,0.0,0.0,0.0,0.0,0.0,0.0,0.0,0.0,0.0,0.0,0.0,0.0,0.0,0.0,0.0,0.0,0.0,0.0,0.0,0.0,0.0,0.0,0.0,0.0,0.0,0.0,0.0,0.0,0.0,0.0,0.0,0.0,0.0,0.0,0.0,0.0,0.0,0.0,0.0,0.0,0.0,0.0,0.0,0.0,0.0,0.0,0.0,0.0,0.0,0.0,0.0,0.0,0.0,0.0,0.0,0.0,0.0,0.0,0.0,0.0,0.0,0.0,0.0,0.0,0.0,0.0,0.0,0.0,0.0,0.0,0.0,0.0,0.0,0.8994,0.999,1.1183,1.1719,1.1537,1.012,0.873,0.0,0.0,0.0,0.0,0.0,0.0,0.0,0.0,0.0,0.0,0.0,0.0,0.0,0.0,0.0,0.0,0.0,0.0,0.0,0.0,0.0,0.0,0.0,0.0,0.0,0.0,0.0,0.0,0.0,0.0,0.0,0.0,0.0,0.0,0.0,0.0,0.0,0.0,0.0,0.0,0.0,0.0,0.0,0.0,0.0,0.0,0.0,0.0,0.0,0.0,0.0,0.0,0.0,0.0,0.0,0.0,0.0,0.0,0.0,0.0,0.0,0.0,0.0,0.0,0.0,0.0,0.0,0.0,0.0,0.0,0.0,0.0,0.0,0.0,0.0,0.0,0.0,0.0,0.0,0.0,0.0,0.0,0.0,0.0,0.0,0.0,0.0,0.0,0.0,0.0,0.0,0.0,0.0,0.0,0.0,0.0,0.0,0.0,0.0,0.0,0.0,0.0,0.0,0.0,0.0,0.0,0.0,0.0,0.9632,1.0674,1.2115,1.3006,1.3231,1.1352,0.9342,0.0,0.0,0.0,0.0,0.0,0.0,0.0,0.0,0.0,0.0,0.0,0.0,0.0,0.0,0.0,0.0,0.0,0.0,0.0,0.0,0.0,0.0,0.0,0.0,0.0,0.0,0.0,0.0,0.0,0.0,0.0,0.0,0.0,0.0,0.0,0.0,0.0,0.0,0.0,0.0,0.0,0.0,0.0,0.0,0.0,0.0,0.0,0.0,0.0,0.0,0.0,0.0,0.0,0.0,0.0,0.0,0.0,0.0,0.0,0.0,0.0,0.0,0.0,0.0,0.0,0.0,0.0,0.0,0.0,0.0,0.0,0.0,0.0,0.0,0.0,0.0,0.0,0.0,0.0,0.0,0.0,0.0,0.0,0.0,0.0,0.0,0.0,0.0,0.0,0.0,0.0,0.0,0.0,0.0,0.0,0.0,0.0,0.0,0.0,0.0,0.0,0.0,0.0,0.0,0.0,0.0,0.0,0.0,0.9363,1.0525,1.194,1.2644,1.2605,1.1451,1.0295,0.0,0.0,0.0,0.0,0.0,0.0,0.0,0.0,0.0,0.0,0.0,0.0,0.0,0.0,0.0,0.0,0.0,0.0,0.0,0.0,0.0,0.0,0.0,0.0,0.0,0.0,0.0,0.0,0.0,0.0,0.0,0.0,0.0,0.0,0.0,0.0,0.0,0.0,0.0,0.0,0.0,0.0,0.0,0.0,0.0,0.0,0.0,0.0,0.9561,0.0,0.0,0.0,0.0,0.0,0.0,0.0,0.0,0.0,0.0,0.0,0.0,0.0,0.0,0.0,0.0,0.0,0.0,0.0,0.0,0.0,0.0,0.0,0.0,0.0,0.0,0.0,0.0,0.0,0.0,0.0,0.0,0.0,0.0,0.0,0.0,0.0,0.0,0.0,0.0,0.0,0.0,0.0,0.0,0.0,0.0,0.0,0.0,0.0,0.0,0.0,0.0,0.0,0.0,0.0,0.0,0.0,0.0,0.0,0.9665,1.0942,1.2033,1.2625,1.2645,1.1686,1.0622,0.0,0.0,0.0,0.0,0.0,0.0,0.0,0.0,0.0,0.0,0.0,0.0,0.0,0.0,0.0,0.0,0.0,0.0,0.0,0.0,0.0,0.0,0.0,0.0,0.0,0.0,0.0,0.0,0.0,0.0,0.0,0.0,0.0,0.0,0.0,0.0,0.0,0.0,0.0,0.0,0.0,0.0,0.0,0.0,0.0,0.0,0.0,0.0,0.0,0.0,0.0,0.0,0.0,0.0,0.0,0.0,0.0,0.0,0.0,0.0,0.0,0.0,0.0,0.0,0.0,0.0,0.0,0.0,0.0,0.0,0.0,0.0,0.0,0.0,0.0,0.0,0.0,0.0,0.0,0.0,0.0,0.0,0.0,0.0,0.0,0.0,0.0,0.0,0.0,0.0,0.0,0.0,0.0,0.0,0.0,0.0,0.0,0.0,0.0,0.0,0.0,0.0,0.0,0.0,0.0,0.0,0.0,0.8833,1.0018,1.1525,1.2301,1.2751,1.2988,1.1991,1.078,0.945,0.0,0.0,0.0,0.0,0.0,0.0,0.0,0.0,0.0,0.0,0.0,0.0,0.0,0.0,0.0,0.0,0.0,0.0,0.0,0.0,0.0,0.0,0.0,0.0,0.0,0.0,0.0,0.0,0.0,0.0,0.0,0.0,0.0,0.0,0.0,0.0,0.0,0.0,0.8318,0.933,0.0,0.0,0.0,0.0,0.0,0.0,0.0,0.0,1.0359,0.0,0.0,0.0,0.0,0.0,0.0,0.0,0.0,0.0,0.0,0.0,0.0,0.0,0.0,0.0,0.0,0.0,0.0,0.0,0.0,0.0,0.0,0.0,0.0,0.0,0.0,0.0,0.0,0.0,0.0,0.0,0.0,0.0,0.0,0.0,0.0,0.0,0.0,0.0,0.0,0.0,0.0,0.0,0.0,0.0,0.0,0.0,0.0,0.0,0.0,0.0,0.0,0.0,0.0,0.0,0.0,0.8588,0.8649,0.9711,1.1846,1.2587,1.295,1.2986,1.2376,1.1464,1.0217,0.0,0.0,0.0,0.0,0.0,0.0,0.0,0.0,0.0,0.0,0.0,0.0,0.0,0.0,0.0,0.0,0.0,0.0,0.0,0.0,0.0,0.0,0.0,0.0,0.0,0.0,0.0,0.0,0.0,0.0,0.0,0.0,0.0,0.0,0.0,0.0,0.0,0.0,0.0,1.1307,1.2195,0.0,0.0,0.0,0.0,0.0,0.0,0.0,0.0,1.13,0.0,0.0,0.0,0.0,0.0,0.0,0.0,0.0,0.0,0.0,0.0,0.0,0.0,0.0,0.0,0.0,0.0,0.0,0.0,0.0,0.0,0.0,0.0,0.0,0.0,0.0,0.0,0.0,0.0,0.0,0.0,0.0,0.0,0.0,0.0,0.0,0.0,0.0,0.0,0.0,0.0,0.0,0.0,0.0,0.0,0.0,0.0,0.0,0.0,0.0,0.0,0.0,0.0,0.0,0.0,0.8561,0.9236,1.0291,1.1843,1.2311,1.2413,1.212,1.133,1.0577,0.0,0.0,0.0,0.0,0.0,0.0,0.0,0.0,0.0,0.0,0.0,0.0,0.0,0.0,0.0,0.0,0.0,0.0,0.0,0.0,0.0,0.0,0.0,0.0,0.0,0.0,0.0,0.0,0.0,0.0,0.0,0.0,0.0,0.0,0.0,0.0,0.0,0.0,0.0,0.0,1.2704,1.3297,1.4733,0.0,0.0,0.0,0.0,0.0,0.0,1.2861,1.2119,0.0,0.0,0.0,0.0,0.0,0.0,0.0,0.0,0.0,0.0,0.0,0.0,0.0,0.0,0.0,0.0,0.0,0.0,0.0,0.0,0.0,0.0,0.0,0.0,0.0,0.0,0.0,0.0,0.0,0.0,0.0,0.0,0.0,0.0,0.0,0.0,0.0,0.0,0.0,0.0,0.0,0.0,0.0,0.0,0.0,0.0,0.0,0.0,0.0,0.0,0.0,0.0,0.0,0.0,0.0,0.8351,0.9545,1.0631,1.1588,1.1872,1.1802,1.1406,1.035,0.9672,0.0,0.0,0.0,0.0,0.0,0.0,0.0,0.0,0.0,0.0,0.0,0.0,0.0,0.0,0.0,0.0,0.0,0.0,0.0,0.0,0.0,0.0,0.0,0.0,0.0,0.0,0.0,0.0,0.0,0.0,0.0,0.0,0.0,0.0,0.0,0.0,0.0,0.0,0.0,0.0,0.0,1.4498,1.584,1.5666,0.0,0.0,0.0,0.0,1.4467,1.4088,0.0,0.0,0.0,0.0,0.0,0.0,0.0,0.0,0.0,0.0,0.0,0.0,0.0,0.0,0.0,0.0,0.0,0.0,0.0,0.0,0.0,0.0,0.0,0.0,0.0,0.0,0.0,0.0,0.0,0.0,0.0,0.0,0.0,0.0,0.0,0.0,0.0,0.0,0.0,0.0,0.0,0.0,0.0,0.0,0.0,0.0,0.0,0.0,0.0,0.0,0.0,0.0,0.0,0.0,0.0,0.0,0.7836,0.8544,0.9607,1.1023,1.1391,1.1624,1.1725,1.0708,0.9905,0.0,0.0,0.0,0.0,0.0,0.0,0.0,0.0,0.0,0.0,0.0,0.0,0.0,0.0,0.0,0.0,0.0,0.0,0.0,0.0,0.0,0.0,0.0,0.0,0.0,0.0,0.0,0.0,0.0,0.0,0.0,0.0,0.0,0.0,0.0,0.0,0.0,0.0,0.0,0.0,0.0,1.607,1.7061,1.5974,1.5185,0.0,0.0,1.5875,1.6517,1.657,0.0,0.0,0.0,0.0,0.0,0.0,0.0,0.0,0.0,0.0,0.0,0.0,0.0,0.0,0.0,0.0,0.0,0.0,0.0,0.0,0.0,0.0,0.0,0.0,0.0,0.0,0.0,0.0,0.0,0.0,0.0,0.0,0.0,0.0,0.0,0.0,0.0,0.0,0.0,0.0,0.0,0.0,0.0,0.0,0.0,0.0,0.0,0.0,0.0,0.0,0.0,0.0,0.0,0.0,0.0,0.6691,0.7576,0.8848,0.9873,1.0571,1.0818,1.0881,1.0778,0.9611,0.889,0.0,0.0,0.0,0.0,0.0,0.0,0.0,0.0,0.0,0.0,0.0,0.0,0.0,0.0,0.0,0.0,0.0,0.0,0.0,0.0,0.0,0.0,0.0,0.0,0.0,0.0,0.0,0.0,0.0,0.0,0.0,0.0,0.0,0.0,0.0,0.0,0.0,0.0,0.0,0.0,0.0,0.0,1.7204,1.7201,0.0,0.0,0.0,1.6872,1.6399,0.0,0.0,0.0,0.0,0.0,0.0,0.0,0.0,0.0,0.0,0.0,0.0,0.0,0.0,0.0,0.0,0.0,0.0,0.0,0.0,0.0,0.0,0.0,0.0,0.0,0.0,0.0,0.0,0.0,0.0,0.0,0.0,0.0,0.0,0.0,0.0,0.0,0.0,0.0,0.0,0.0,0.0,0.0,0.0,0.0,0.0,0.0,0.0,0.0,0.0,0.0,0.0,0.0,0.0,0.0,0.0,0.0,0.7311,0.8917,0.9864,1.0091,1.0238,1.0238,0.9996,0.8917,0.0,0.0,0.0,0.0,0.0,0.0,0.0,0.0,0.0,0.0,0.0,0.0,0.0,0.0,0.0,0.0,0.0,0.0,0.0,0.0,0.0,0.0,0.0,0.0,0.0,0.0,0.0,0.6454,0.0,0.0,0.0,0.0,0.0,0.0,0.0,0.0,0.0,0.0,0.0,0.0,0.0,0.0,1.687,1.7233,1.7996,1.8176,0.0,0.0,1.7624,1.6739,1.7428,1.6957,0.0,0.0,0.0,0.0,0.0,0.0,0.0,0.0,0.0,0.0,0.0,0.0,0.0,0.0,0.0,0.0,0.0,0.0,0.0,0.0,0.0,0.0,0.0,0.0,0.0,0.0,0.0,0.0,0.0,0.0,0.0,0.0,0.0,0.0,0.0,0.0,0.0,0.0,0.0,0.0,0.0,0.0,0.0,0.0,0.0,0.0,0.0,0.0,0.0,0.0,0.0,0.0,0.0,0.0,0.0,0.7035,0.8186,0.9044,0.954,0.9734,0.99,0.9986,0.9303,0.8472,0.0,0.0,0.0,0.0,0.0,0.0,0.0,0.0,0.0,0.0,0.0,0.0,0.0,0.0,0.0,0.0,0.0,0.0,0.0,0.0,0.0,0.0,0.0,0.0,0.0,0.0,0.0,0.0,0.0,0.0,0.0,0.0,0.0,0.0,0.0,0.0,0.0,0.0,0.0,0.0,0.0,1.7227,1.7443,1.7644,1.7985,0.0,0.0,1.7948,1.8668,1.9258,1.8566,1.5444,0.0,0.0,0.0,0.0,0.0,0.0,0.0,0.0,0.0,0.0,0.0,0.0,0.0,0.0,0.0,0.0,0.0,0.0,0.0,0.0,0.0,0.0,0.0,0.0,0.0,0.0,0.0,0.0,0.0,0.0,0.0,0.0,0.0,0.0,0.0,0.0,0.0,0.0,0.0,0.0,0.0,0.0,0.0,0.0,0.0,0.0,0.0,0.0,0.0,0.0,0.0,0.0,0.0,0.6315,0.6879,0.8248,0.9116,0.9476,0.9564,0.9734,1.0005,0.9239,0.8397,0.0,0.0,0.0,0.0,0.0,0.0,0.0,0.0,0.0,0.0,0.0,0.0,0.0,0.0,0.0,0.0,0.0,0.0,0.0,0.0,0.0,0.0,0.0,0.0,0.0,0.0,0.0,0.0,0.7668,0.7688,0.7397,0.0,0.0,0.0,0.0,0.0,0.0,0.0,0.0,0.0,0.0,1.7304,1.8595,1.9046,0.0,0.0,1.9417,1.9133,1.8784,1.8685,1.7775,1.5267,1.4343,0.0,0.0,0.0,0.0,0.0,0.0,0.0,0.0,0.0,0.0,0.0,0.0,0.0,0.0,0.0,0.0,0.0,0.0,0.0,0.0,0.0,0.0,0.0,0.0,0.0,0.0,0.0,0.0,0.0,0.0,0.0,0.0,0.0,0.0,0.0,0.0,0.0,0.0,0.0,0.0,0.0,0.0,0.0,0.0,0.0,0.0,0.0,0.0,0.0,0.0,0.0,0.0,0.6391,0.6909,0.8148,0.8931,0.9199,0.9033,0.9081,0.9282,0.8744,0.8035,0.0,0.0,0.0,0.0,0.0,0.0,0.0,0.0,0.0,0.0,0.0,0.0,0.0,0.0,0.0,0.0,0.0,0.0,0.0,0.0,0.0,0.0,0.0,0.0,0.0,0.0,0.0,0.0,0.7667,0.7585,0.7276,0.0,0.0,0.0,0.0,0.0,0.0,0.0,0.0,0.0,0.0,1.7508,1.8769,1.9264,1.9492,1.9492,1.9358,1.9064,1.8549,1.8177,1.7371,1.5738,0.0,0.0,0.0,0.0,0.0,0.0,0.0,0.0,0.0,0.0,0.0,0.0,0.0,0.0,0.0,0.0,0.0,0.0,0.0,0.0,0.0,0.0,0.0,0.0,0.0,0.0,0.0,0.4808,0.0,0.0,0.4375,0.0,0.0,0.0,0.0,0.0,0.0,0.0,0.0,0.0,0.0,0.0,0.0,0.0,0.0,0.0,0.0,0.0,0.0,0.0,0.0,0.0,0.0,0.6387,0.7182,0.78,0.8253,0.8495,0.7999,0.7772,0.7778,0.7797,0.7325,0.6283,0.0,0.0,0.0,0.0,0.0,0.0,0.0,0.0,0.0,0.0,0.0,0.0,0.0,0.0,0.0,0.0,0.0,0.0,0.0,0.0,0.0,0.0,0.0,0.0,0.0,0.0,0.6508,0.6676,0.6857,0.0,0.0,0.0,0.0,0.0,0.0,0.0,0.0,0.0,0.0,1.6534,1.7901,1.7531,1.7754,1.8042,1.7971,1.7492,1.7388,1.8122,1.8073,1.7837,0.0,0.0,0.0,0.0,0.0,0.0,0.0,0.0,0.0,0.0,0.0,0.0,0.0,0.0,0.0,0.0,0.0,0.0,0.0,0.0,0.0,0.0,0.0,0.0,0.0,0.0,0.0,0.5199,0.4854,0.0,0.0,0.0,0.0,0.0,0.0,0.0,0.0,0.0,0.0,0.0,0.5542,0.5509,0.0,0.0,0.0,0.0,0.0,0.0,0.0,0.0,0.0,0.0,0.0,0.0,0.6114,0.6721,0.7324,0.7671,0.7772,0.7598,0.7561,0.7686,0.7639,0.7143,0.6164,0.0,0.0,0.0,0.0,0.0,0.0,0.0,0.0,0.0,0.0,0.0,0.0,0.0,0.0,0.0,0.0,0.0,0.0,0.0,0.0,0.0,0.0,0.0,0.0,0.0,0.6911,0.0,0.0,0.0,0.0,0.0,0.0,0.0,0.0,0.0,0.0,0.0,1.3231,1.4439,1.532,1.6195,1.7143,1.801,1.8806,0.0,0.0,0.0,0.0,0.0,0.0,0.0,0.0,0.0,0.0,0.0,0.0,0.0,0.0,1.6179,1.3443,1.297,1.2924,1.2658,0.0,0.0,0.0,0.0,0.0,0.0,0.0,0.0,0.0,0.0,0.0,0.0,0.0,0.0,0.5303,0.0,0.4759,0.0,0.0,0.0,0.0,0.0,0.0,0.0,0.0,0.5834,0.5968,0.5797,0.5836,0.5888,0.0,0.5423,0.4882,0.0,0.0,0.0,0.0,0.0,0.0,0.0,0.0,0.5827,0.6322,0.6803,0.7055,0.7039,0.6814,0.6765,0.6892,0.6863,0.6604,0.6069,0.5303,0.4748,0.0,0.0,0.0,0.0,0.0,0.0,0.0,0.0,0.0,0.0,0.0,0.0,0.0,0.0,0.0,0.0,0.0,0.0,0.0,0.0,0.0,0.0,0.0,0.6696,0.0,0.0,0.0,0.0,0.0,0.0,0.0,0.0,0.0,1.1644,1.2516,1.3593,1.4904,1.531,1.5823,1.6644,0.0,0.0,0.0,0.0,0.0,0.0,0.0,1.6603,1.57,1.6079,1.6625,1.7035,1.7842,1.8295,1.7926,0.0,0.0,1.5346,1.4853,1.4824,1.4648,1.4897,1.5078,1.4967,1.5282,1.5577,0.0,0.0,0.0,0.0,0.0,0.0,0.0,0.0,0.5597,0.551,0.0,0.4602,0.0,0.0,0.0,0.0,0.0,0.5413,0.0,0.0,0.6202,0.6267,0.5383,0.5467,0.548,0.5363,0.5326,0.5225,0.5078,0.4392,0.0,0.0,0.0,0.0,0.0,0.0,0.5596,0.5987,0.6265,0.6383,0.6363,0.576,0.5435,0.5458,0.5564,0.5763,0.597,0.5475,0.516,0.5086,0.4523,0.0,0.0,0.0,0.0,0.0,0.0,0.0,0.0,0.0,0.0,0.0,0.0,0.0,0.0,0.0,0.0,0.0,0.0,0.0,0.0,0.591,0.0,0.0,0.0,0.0,0.0,0.0,0.0,0.0,0.0,0.0,1.2921,1.3904,1.4856,1.5588,0.0,0.0,0.0,0.0,1.6471,1.5619,1.5603,1.5776,1.5857,1.658,1.7287,1.7738,0.0,0.0,1.9448,1.8998,1.8411,1.7354,1.8061,1.8665,1.8877,1.8258,1.7737,1.7252,1.7334,1.7408,1.6949,1.7119,1.7445,0.6781,0.0,0.0,0.0,0.0,0.6068,0.6227,0.6486,0.6164,0.5885,0.564,0.5335,0.0,0.0,0.0,0.0,0.0,0.0,0.5041,0.488,0.475,0.446,0.4058,0.4215,0.4284,0.4252,0.4107,0.4026,0.3979,0.357,0.3676,0.4225,0.0,0.0,0.0,0.0,0.5455,0.5833,0.5922,0.5936,0.5829,0.5641,0.5609,0.5743,0.5796,0.5927,0.6132,0.559,0.5246,0.5166,0.4634,0.0,0.0,0.0,0.0,0.0,0.0,0.0,0.0,0.0,0.0,0.0,0.0,0.0,0.0,0.0,0.0,0.0,0.0,0.0,0.6487,0.6158,0.6212,0.0,0.0,0.0,0.0,0.0,0.0,0.0,0.0,0.0,1.3372,1.3601,1.3855,0.0,0.0,1.4428,1.4616,1.563,1.6553,1.7078,1.7369,0.0,1.7599,1.7693,1.7641,1.7322,1.862,1.9661,1.9556,2.0035,2.0352,2.0019,2.0105,2.0254,2.0298,1.9284,1.8555,1.8776,1.8784,1.8639,1.8486,1.8774,1.911,0.595,0.535,0.5962,0.6365,0.6556,0.6086,0.5989,0.6096,0.5461,0.5105,0.4992,0.4707,0.4654,0.4735,0.4596,0.0,0.0,0.0,0.4238,0.4274,0.3952,0.3754,0.3639,0.373,0.3813,0.3789,0.368,0.3618,0.3597,0.3312,0.3415,0.3854,0.0,0.0,0.3812,0.4121,0.4436,0.4729,0.5142,0.5277,0.5217,0.5463,0.5668,0.5776,0.5856,0.5969,0.6069,0.5809,0.5522,0.5259,0.4908,0.4539,0.0,0.0,0.0,0.0,0.0,0.0,0.0,0.0,0.0,0.0,0.0,0.5516,0.487,0.0,0.0,0.0,0.5821,0.6317,0.7007,0.6585,0.0,0.0,0.0,0.0,0.0,0.0,0.0,0.967,1.1179,1.2538,1.3333,1.3293,1.3706,1.513,1.4974,1.4848,1.5179,0.0,1.6894,1.7433,1.7695,1.7833,1.7884,1.8115,1.8274,1.8318,1.9202,1.9952,2.001,2.0549,2.0944,2.0964,2.0996,2.0987,2.0858,2.0253,1.9823,1.9962,1.9957,1.9907,1.9824,2.0035,2.0149,0.4289,0.4389,0.6601,0.7202,0.6613,0.5893,0.5331,0.4902,0.4034,0.3709,0.3796,0.3373,0.316,0.314,0.2838,0.0,0.2987,0.3169,0.3328,0.3423,0.354,0.3573,0.3589,0.3575,0.3575,0.3548,0.3587,0.3604,0.3569,0.327,0.3085,0.2933,0.2643,0.253,0.2633,0.2825,0.2993,0.3124,0.4069,0.4566,0.4626,0.5193,0.5549,0.5621,0.5809,0.5912,0.5891,0.6073,0.5907,0.5359,0.5229,0.496,0.4441,0.0,0.0,0.0,0.0,0.0,0.0,0.0,0.0,0.0,0.0,0.0,0.0,0.0,0.0,0.0,0.6308,0.0,0.7569,0.7198,0.0,0.0,0.0,0.8543,1.0072,1.0603,1.1016,1.1329,0.0,0.0,1.292,1.3072,1.4192,1.7008,1.6954,1.6691,1.6787,1.7114,1.7332,1.7108,1.7196,1.7331,1.7616,1.8328,1.925,2.0062,2.0537,2.0674,2.0684,2.0732,2.0723,2.0781,2.1025,2.1111,2.0673,2.1128,2.1488,2.0466,2.081,2.116,2.081,2.0722,2.045,0.399,0.4069,0.4468,0.471,0.4825,0.4628,0.456,0.453,0.4214,0.4084,0.4092,0.3844,0.3706,0.3707,0.3626,0.3597,0.3557,0.3009,0.2783,0.2757,0.2004,0.164,0.1594,0.1641,0.1619,0.1593,0.1794,0.1897,0.1902,0.1824,0.1753,0.1655,0.1579,0.1941,0.2736,0.2993,0.3195,0.3335,0.3712,0.4181,0.4733,0.482,0.5139,0.5747,0.6002,0.6054,0.5907,0.5941,0.5823,0.5531,0.5277,0.4956,0.4571,0.4185,0.0,0.0,0.0,0.0,0.0,0.0,0.0,0.0,0.0,0.5838,0.4917,0.0,0.6498,0.0,0.6993,0.7884,0.8708,0.8283,0.0,0.0,0.9314,0.9528,1.0411,1.1172,1.1276,1.0315,1.1802,1.2636,1.1901,1.33,1.4854,1.6174,1.5354,1.4905,1.5762,1.6518,1.7186,1.7696,1.8274,1.8872,1.9089,1.9834,2.037,2.093,2.1103,2.1277,2.1277,2.1461,2.1593,2.1572,2.165,2.1388,2.061,2.0624,2.0268,1.9375,2.0419,2.1481,2.0714,2.0318,1.9872,0.25,0.2553,0.2428,0.2476,0.2699,0.3096,0.3363,0.3515,0.3032,0.2877,0.2989,0.2886,0.2805,0.2794,0.2794,0.2775,0.2701,0.2248,0.2062,0.2039,0.1443,0.1157,0.1132,0.1168,0.114,0.1075,0.124,0.1307,0.1319,0.1317,0.1281,0.1252,0.1251,0.1525,0.2058,0.2228,0.2319,0.2378,0.2872,0.3459,0.4194,0.4142,0.4459,0.5141,0.5059,0.5263,0.5779,0.5468,0.5331,0.546,0.523,0.493,0.4572,0.4232,0.3907,0.0,0.0,0.0,0.0,0.0,0.0,0.0,0.0,0.0,0.0,0.0,0.6905,0.7154,0.794,0.8727,0.9479,0.924,0.9347,1.0228,1.0273,1.0556,1.1265,1.1796,1.1816,1.1181,1.217,1.2696,1.2105,1.3053,1.4062,1.4636,1.4058,1.413,1.5639,1.6354,1.6834,1.7387,1.7859,1.8247,1.8594,1.9144,1.9496,1.9563,1.9829,1.9988,1.9889,2.0081,2.0262,2.0262,2.0398,2.047,2.0194,2.007,1.9645,1.8953,1.9771,2.0571,1.9944,1.9619,1.9218,0.0721,0.0747,0.072,0.0701,0.0744,0.151,0.2014,0.2245,0.1439,0.1253,0.1496,0.1504,0.1481,0.1431,0.143,0.1405,0.1357,0.1357,0.1264,0.1103,0.1061,0.0983,0.0853,0.0833,0.0848,0.081,0.0981,0.1094,0.1108,0.1231,0.1315,0.1318,0.1317,0.1267,0.1193,0.1191,0.1155,0.1104,0.1875,0.262,0.3341,0.3334,0.3621,0.4215,0.3753,0.4078,0.5299,0.4741,0.4591,0.504,0.4955,0.4779,0.4502,0.4159,0.3961,0.0,0.3913,0.0,0.0,0.0,0.0,0.0,0.0,0.0,0.0,0.6615,0.7148,0.8378,0.8965,0.9534,1.0103,1.0149,1.0364,1.0785,1.1093,1.1533,1.2222,1.2322,1.243,1.2681,1.2705,1.2699,1.2668,1.2705,1.279,1.3103,1.3129,1.3726,1.548,1.6034,1.6308,1.6596,1.6836,1.7309,1.733,1.761,1.7841,1.7695,1.8089,1.8107,1.8052,1.8204,1.8345,1.8419,1.8745,1.9026,1.953,1.9379,1.8972,1.8133,1.8776,1.9358,1.908,1.8932,1.8622,0.027,0.0453,0.024,0.0133,0.0184,0.0314,0.067,0.111,0.1116,0.1264,0.1493,0.1562,0.1598,0.1571,0.157,0.1413,0.1155,0.1155,0.0584,-0.0482,-0.07,-0.1256,-0.2055,-0.2086,-0.1967,-0.1726,-0.0681,-0.0089,0.0107,0.0965,0.1354,0.1318,0.1317,0.1278,0.1205,0.0,0.0,0.0,0.1304,0.1808,0.2579,0.2441,0.2766,0.3561,0.3477,0.0,0.3738,0.3765,0.3775,0.3844,0.3875,0.0,0.0,0.0,0.0,0.0,0.0,0.0,0.0,0.0,0.0,0.0,0.5477,0.6145,0.6831,0.7264,0.7859,0.8804,0.9747,1.0486,1.0936,1.1306,1.1569,1.1671,1.1906,1.2129,1.2286,1.2478,1.265,1.2693,1.2705,1.2705,1.2705,1.2705,1.2732,1.2781,1.2796,1.3024,1.3667,1.4664,1.5538,1.6337,1.7122,1.774,1.7333,1.7262,1.7317,1.7753,1.8073,1.8183,1.8088,1.8255,1.8574,1.871,1.875,1.8433,1.8116,1.7981,1.7705,1.6778,1.7134,1.7739,1.837,1.8449,1.8168,-0.1706,-0.1583,-0.172,-0.1776,0.0,-0.1785,-0.1628,-0.1272,0.0143,0.0905,0.1121,0.0634,0.0483,0.0579,0.0194,0.0,-0.0047,0.0069,-0.0298,-0.104,-0.1202,-0.1664,-0.2305,-0.2306,-0.2221,-0.2087,-0.1406,-0.1061,-0.0874,0.0111,0.0583,0.0579,0.1042,0.1274,0.1259,0.1273,0.1271,0.1211,0.1192,0.1408,0.1825,0.1758,0.204,0.2722,0.2431,0.0,0.0,0.0,0.0,0.0,0.0,0.0,0.0,0.0,0.0,0.3669,0.364,0.3624,0.373,0.4691,0.5267,0.5168,0.5916,0.6408,0.6458,0.718,0.7837,0.8277,0.904,0.9743,1.0306,1.0902,1.1388,1.1738,1.2183,1.2485,1.2524,1.2599,1.2699,1.2705,1.2705,1.2705,1.2705,1.2816,1.2882,1.2922,1.3009,1.3141,1.3298,1.3722,1.4321,1.4949,1.5717,1.623,1.5992,1.5959,1.6036,1.6213,1.6469,1.6579,1.6459,1.6637,1.6882,1.704,1.7033,1.6892,1.6633,1.6609,1.6561,1.6171,1.6319,1.6706,1.7255,1.758,1.7697,-0.3618,-0.3608,-0.3608,-0.3604,-0.3593,-0.3591,-0.3606,-0.342,0.0,0.0,0.0,-0.0783,-0.1041,-0.0855,-0.1463,-0.1656,-0.1505,-0.1299,-0.1437,-0.1829,-0.1836,-0.2059,-0.2436,-0.2411,-0.2368,-0.2308,-0.2139,-0.1998,-0.1937,-0.0964,-0.0449,-0.0371,0.0386,0.0892,0.1082,0.1297,0.1374,0.1304,0.1242,0.1247,0.1285,0.1271,0.1469,0.1904,0.1389,0.1594,0.262,0.2051,0.2086,0.2873,0.2778,0.287,0.3207,0.3154,0.3229,0.3482,0.3571,0.369,0.3899,0.4465,0.4992,0.541,0.6011,0.6299,0.6086,0.6897,0.7473,0.756,0.8049,0.8624,0.9273,0.9955,1.0574,1.113,1.1825,1.2223,1.2116,1.2244,1.2225,1.2217,1.2132,1.2343,1.2522,1.2698,1.2972,1.3151,1.3322,1.3491,1.3488,1.3438,1.3552,1.3944,1.4371,1.4377,1.4463,1.4749,1.4683,1.4735,1.4912,1.4885,1.471,1.4825,1.4986,1.5303,1.524,1.5396,1.5437,1.5651,1.5721,1.5721,1.5964,1.6201,1.6272,1.673,1.7147,-0.3713,-0.3608,-0.3608,-0.3593,-0.3598,-0.3598,-0.361,-0.3545,-0.2958,-0.2564,-0.2385,-0.2466,-0.2512,-0.2459,-0.2305,-0.2404,-0.2723,-0.2482,-0.3042,-0.4255,-0.409,-0.4476,-0.5366,-0.5161,-0.4933,-0.4648,-0.3773,-0.3242,-0.299,-0.201,-0.1461,-0.139,-0.1266,-0.0726,0.0174,0.0994,0.1402,0.1393,0.1312,0.1249,0.1225,0.1151,0.1159,0.1227,0.1171,0.1183,0.1438,0.1408,0.1533,0.1896,0.1931,0.2286,0.2967,0.2607,0.2606,0.3135,0.3438,0.3472,0.3213,0.4414,0.51,0.4837,0.453,0.5015,0.667,0.6717,0.6879,0.7456,0.7844,0.8255,0.8624,0.9087,0.9442,0.9597,1.0197,1.0394,0.993,1.0479,1.0772,1.0408,1.0424,1.099,1.1792,1.2065,1.2462,1.3188,1.3475,1.3515,1.3572,1.3662,1.386,1.4066,1.4117,1.4163,1.4291,1.467,1.4773,1.4628,1.4789,1.4921,1.4839,1.4872,1.5014,1.5277,1.5154,1.5164,1.5344,1.5418,1.5488,1.5531,1.5879,1.617,1.6177,1.6471,1.6699,-0.5784,-0.5717,-0.5715,-0.5715,-0.571,-0.566,-0.5579,-0.5547,-0.5434,-0.4565,-0.338,-0.3856,-0.4011,-0.3917,-0.4038,-0.4127,-0.4162,-0.3762,-0.3976,-0.4647,-0.4595,-0.4914,-0.5489,-0.5288,-0.5186,-0.5138,-0.4583,-0.4212,-0.4026,-0.3076,-0.256,-0.2492,-0.191,-0.1307,-0.073,0.0178,0.065,0.065,0.112,0.1337,0.1308,0.1249,0.1213,0.1199,0.1186,0.118,0.1184,0.1232,0.1381,0.1692,0.1729,0.2035,0.2634,0.2442,0.245,0.2751,0.29,0.2935,0.2738,0.3622,0.4084,0.3912,0.3897,0.4322,0.535,0.5521,0.5806,0.6355,0.6658,0.6997,0.7522,0.8002,0.8436,0.8799,0.9348,0.9566,0.9314,0.9609,0.9842,0.9642,0.9749,1.014,1.0762,1.1464,1.2081,1.2794,1.338,1.3906,1.393,1.4029,1.4088,1.4022,1.3888,1.3916,1.4157,1.4425,1.4536,1.4398,1.4469,1.4559,1.4559,1.4595,1.4692,1.4903,1.4969,1.5107,1.5368,1.5531,1.5581,1.5645,1.5789,1.5967,1.6004,1.6092,1.6251,-0.7543,-0.7519,-0.7519,-0.7519,-0.7479,-0.7359,-0.7251,-0.7223,-0.7165,-0.6149,-0.466,-0.5292,-0.5536,-0.5395,-0.57,-0.5754,-0.5556,-0.5094,-0.4936,-0.5014,-0.5014,-0.5077,-0.5193,-0.4968,-0.493,-0.5064,-0.491,-0.4782,-0.4699,-0.4019,-0.3638,-0.3488,-0.2473,-0.1877,-0.1735,-0.0786,-0.0314,-0.0246,0.0595,0.1178,0.1389,0.1345,0.1316,0.13,0.1237,0.1229,0.1221,0.1218,0.1372,0.1652,0.1725,0.1927,0.2322,0.2383,0.2441,0.2485,0.251,0.2497,0.2533,0.2867,0.309,0.309,0.3428,0.3753,0.3961,0.4318,0.4763,0.5165,0.5455,0.5813,0.6337,0.6827,0.7323,0.7871,0.8364,0.852,0.8504,0.8735,0.8877,0.8829,0.8919,0.9137,0.9778,1.0635,1.1544,1.2389,1.3325,1.3944,1.4226,1.4322,1.42,1.4031,1.3809,1.3838,1.4185,1.4367,1.4417,1.4312,1.4385,1.4485,1.4508,1.446,1.4493,1.4757,1.4896,1.5129,1.5378,1.5564,1.5714,1.5758,1.5818,1.5825,1.5832,1.5832,1.5927,-0.7622,-0.7495,-0.7556,-0.7519,-0.7481,-0.7365,-0.7305,-0.7301,-0.7203,-0.7127,-0.676,-0.6974,-0.6939,-0.6939,-0.6666,-0.6638,-0.6741,-0.6457,-0.6232,-0.6155,-0.5987,-0.5687,-0.5379,-0.5113,-0.4942,-0.4872,-0.4836,-0.4782,-0.4782,-0.4672,-0.4608,-0.4452,-0.3418,-0.2889,-0.2736,-0.1786,-0.1276,-0.1253,-0.0358,0.0554,0.1348,0.1406,0.1378,0.1304,0.1298,0.1281,0.1295,0.1289,0.1385,0.1601,0.1794,0.199,0.2207,0.2384,0.2485,0.2491,0.2493,0.2513,0.259,0.269,0.2766,0.2751,0.2868,0.3123,0.3523,0.3758,0.4044,0.4378,0.4808,0.5122,0.5186,0.5661,0.6062,0.6349,0.6786,0.6853,0.6696,0.7043,0.7349,0.6975,0.7286,0.7644,0.8677,0.9343,1.0367,1.2174,1.2598,1.3093,1.3828,1.3997,1.4003,1.4106,1.4178,1.4184,1.4297,1.4554,1.4608,1.4624,1.4809,1.4842,1.4817,1.4859,1.5018,1.4841,1.5003,1.513,1.5356,1.554,1.5581,1.5689,1.573,1.573,1.5778,1.5635,1.5611,-0.8906,-0.8883,-0.8853,-0.8367,-0.7651,-0.7544,-0.7441,-0.7303,-0.7254,-0.725,-0.7215,-0.721,-0.721,-0.7182,-0.6851,-0.6742,-0.6814,-0.6511,-0.6314,-0.6192,-0.5965,-0.5807,-0.5713,-0.5229,-0.5054,-0.5118,-0.4911,-0.4784,-0.4782,-0.4782,-0.4767,-0.4663,-0.4222,-0.4001,-0.3856,-0.2881,-0.2349,-0.2325,-0.1329,-0.0624,-0.0177,0.0852,0.1379,0.1356,0.1317,0.1303,0.1311,0.1314,0.1384,0.1604,0.1663,0.1827,0.2022,0.2217,0.2349,0.238,0.2537,0.2629,0.2654,0.2732,0.2768,0.2745,0.2824,0.2946,0.3124,0.3239,0.3356,0.3592,0.4353,0.5015,0.5354,0.5577,0.5757,0.5917,0.6128,0.6216,0.6129,0.646,0.6625,0.6476,0.6573,0.685,0.7589,0.8396,0.9649,1.119,1.1585,1.1888,1.2481,1.2602,1.2635,1.2784,1.3272,1.3893,1.4183,1.4394,1.4478,1.4502,1.4544,1.4616,1.4617,1.4646,1.4664,1.482,1.488,1.4982,1.5213,1.5291,1.5339,1.5428,1.5112,1.4921,1.4897,1.4406,1.4064,-1.0074,-0.9771,-0.9441,-0.8693,-0.7777,-0.7714,-0.76,-0.7405,-0.7338,-0.7259,-0.7234,-0.7198,-0.721,-0.7154,-0.6935,-0.6851,-0.6796,-0.6631,-0.6453,-0.6272,-0.6071,-0.6017,-0.5969,-0.5448,-0.5255,-0.5334,-0.5033,-0.4836,-0.4813,-0.4782,-0.4779,-0.4724,-0.4696,-0.4677,-0.4556,-0.3748,-0.3396,-0.3298,-0.2329,-0.1812,-0.1607,-0.0221,0.0742,0.0976,0.0963,0.1059,0.1305,0.1306,0.1377,0.15,0.1576,0.1682,0.1843,0.202,0.2196,0.2316,0.2515,0.2653,0.2718,0.2796,0.283,0.2834,0.2874,0.2897,0.2901,0.2916,0.3012,0.327,0.407,0.4817,0.5287,0.5514,0.5697,0.5936,0.598,0.6013,0.617,0.6271,0.6349,0.6314,0.641,0.6489,0.6867,0.7655,0.8711,0.9915,1.0264,1.0569,1.1074,1.1334,1.1428,1.1532,1.2378,1.3151,1.3895,1.4417,1.4399,1.4071,1.4015,1.3963,1.3993,1.4011,1.4292,1.4534,1.4624,1.4551,1.443,1.4538,1.4839,1.4814,1.4406,1.3841,1.3848,1.3149,1.2708,-1.0891,-0.9741,-0.8535,-0.8169,-0.7917,-0.7813,-0.7728,-0.7644,-0.7416,-0.7308,-0.7278,-0.7237,-0.7213,-0.721,-0.7154,-0.7182,-0.7154,-0.7127,-0.6957,-0.6669,-0.6642,-0.6451,-0.6083,-0.5798,-0.5567,-0.5421,-0.5148,-0.494,-0.4813,-0.4782,-0.4782,-0.4772,-0.4728,-0.471,-0.4655,-0.4419,-0.4325,-0.4145,-0.3315,-0.2825,-0.2732,-0.1811,-0.0862,-0.0131,0.0065,0.043,0.1142,0.1284,0.1304,0.1304,0.1549,0.1694,0.1716,0.1905,0.2094,0.2293,0.2359,0.2518,0.2741,0.2832,0.2865,0.289,0.2892,0.2899,0.2908,0.2963,0.3137,0.3594,0.3879,0.4277,0.4662,0.5054,0.55,0.6053,0.6114,0.6136,0.6308,0.6295,0.6328,0.6368,0.6404,0.6489,0.6745,0.6845,0.7556,0.8513,0.888,0.927,1.0268,1.075,1.0903,1.1129,1.1515,1.2088,1.3201,1.3763,1.4024,1.3676,1.3152,1.317,1.3261,1.3405,1.3832,1.4154,1.4129,1.3968,1.3602,1.3666,1.4038,1.388,1.3138,1.2712,1.2806,1.2762,1.2245,-1.2837,-1.2277,-1.1796,-1.0676,-0.9137,-0.9059,-0.8546,-0.7722,-0.7581,-0.7449,-0.7319,-0.7288,-0.7256,-0.721,-0.721,-0.721,-0.721,-0.721,-0.7018,-0.674,-0.6715,-0.6528,-0.6242,-0.6039,-0.5838,-0.5594,-0.537,-0.508,-0.4817,-0.4782,-0.4782,-0.4782,-0.4756,-0.4765,-0.4742,-0.4647,-0.4586,-0.4522,-0.4094,-0.3862,-0.3809,-0.3448,-0.2808,-0.1884,-0.1217,-0.0463,0.0438,0.0476,0.073,0.1331,0.1421,0.1452,0.1475,0.1705,0.1954,0.2152,0.2236,0.233,0.242,0.2547,0.2649,0.2649,0.2807,0.2915,0.2972,0.2993,0.3086,0.3289,0.3434,0.3719,0.4162,0.457,0.4919,0.5235,0.5528,0.5752,0.5914,0.615,0.6368,0.6379,0.6412,0.6437,0.6514,0.6539,0.6811,0.7357,0.7531,0.7915,0.8481,0.8881,0.9196,0.9533,1.0247,1.1067,1.1518,1.2286,1.2659,1.2433,1.2174,1.2164,1.2208,1.2249,1.2552,1.2832,1.306,1.3018,1.2534,1.2314,1.2738,1.2734,1.1988,1.1653,1.1794,1.1687,1.1168,-1.3917,-1.3734,-1.3269,-1.2067,-1.0498,-1.0404,-0.9871,-0.8944,-0.8516,-0.8219,-0.7977,-0.7543,-0.7259,-0.7242,-0.7198,-0.721,-0.721,-0.721,-0.7071,-0.6879,-0.6879,-0.6687,-0.6455,-0.6253,-0.6064,-0.5811,-0.5531,-0.5197,-0.4907,-0.4824,-0.4784,-0.4782,-0.4782,-0.4782,-0.4795,-0.4726,-0.4708,-0.4655,-0.4533,-0.4446,-0.4409,-0.4375,-0.4034,-0.3361,-0.2685,-0.1723,-0.0515,-0.0177,0.0263,0.0876,0.1191,0.1333,0.1357,0.1546,0.1778,0.198,0.2047,0.211,0.22,0.2334,0.2424,0.2493,0.2691,0.2853,0.2958,0.3007,0.3047,0.3087,0.3145,0.3381,0.3667,0.3942,0.427,0.4659,0.5067,0.5291,0.535,0.5809,0.6182,0.6359,0.6412,0.6412,0.6412,0.6412,0.6512,0.6642,0.6667,0.6835,0.7205,0.7482,0.775,0.8084,0.9032,0.9647,1.0004,1.0502,1.1336,1.1274,1.1277,1.1229,1.1216,1.1233,1.1346,1.1554,1.1666,1.1664,1.1486,1.1178,1.1178,1.1368,1.0995,1.0553,1.0578,1.0565,1.0372,-1.4064,-1.3925,-1.2414,-1.1985,-1.1732,-1.1701,-1.1701,-1.1211,-1.0133,-0.9618,-0.9415,-0.817,-0.7786,-0.7511,-0.7586,-0.7332,-0.7393,-0.7301,-0.7182,-0.7099,-0.7154,-0.696,-0.6657,-0.6429,-0.6203,-0.5999,-0.5595,-0.5266,-0.4983,-0.4888,-0.4796,-0.4786,-0.4782,-0.4782,-0.4782,-0.4736,-0.4692,-0.4698,-0.4646,-0.4534,-0.4428,-0.4417,-0.435,-0.4228,-0.4106,-0.3272,-0.1567,-0.0649,-0.0201,0.0045,0.076,0.1322,0.1227,0.1297,0.1501,0.1723,0.1794,0.193,0.211,0.22,0.2313,0.2393,0.254,0.2728,0.2923,0.3019,0.3058,0.3106,0.3171,0.323,0.3256,0.332,0.3663,0.4555,0.472,0.4776,0.488,0.5309,0.5812,0.6212,0.6337,0.6412,0.6412,0.6412,0.6437,0.6437,0.6478,0.657,0.6861,0.7074,0.725,0.7522,0.8118,0.8676,0.8676,0.8712,0.9601,1.0276,1.0366,1.0405,1.0396,1.0431,1.0584,1.0786,1.0892,1.0889,1.0644,1.0333,1.0018,1.0014,0.9655,0.9741,0.9939,1.0125,1.0268,-1.5504,-1.5328,-1.4882,-1.4029,-1.3131,-1.3092,-1.2577,-1.1727,-1.1191,-1.1016,-1.0875,-1.0475,-1.0225,-0.9874,-0.914,-0.8651,-0.8557,-0.7697,-0.7071,-0.696,-0.7099,-0.7018,-0.674,-0.6604,-0.6325,-0.5845,-0.5459,-0.5171,-0.5015,-0.4943,-0.4876,-0.4822,-0.4784,-0.4782,-0.4782,-0.4785,-0.4771,-0.4759,-0.471,-0.4627,-0.4618,-0.4561,-0.4487,-0.4381,-0.4369,-0.4,-0.3406,-0.2485,-0.1679,-0.1008,-0.0694,-0.0246,0.0291,0.0448,0.0762,0.1413,0.1525,0.1548,0.1682,0.1954,0.208,0.2126,0.2378,0.2629,0.2782,0.2847,0.2938,0.3117,0.3196,0.3205,0.3205,0.3205,0.338,0.3657,0.4034,0.4259,0.4384,0.5035,0.5539,0.5741,0.6114,0.6387,0.6414,0.6417,0.6425,0.6439,0.649,0.6613,0.6683,0.6944,0.7157,0.7337,0.7679,0.7963,0.8153,0.8392,0.8968,0.9539,0.966,0.9744,0.9718,0.974,0.989,1.0004,1.0089,1.007,0.9803,0.9588,0.935,0.9271,0.937,0.9544,0.9741,0.9973,1.0175,-1.6355,-1.6261,-1.6082,-1.5467,-1.4565,-1.4461,-1.3934,-1.3117,-1.2637,-1.2418,-1.2314,-1.1787,-1.1553,-1.131,-1.049,-1.0039,-0.9775,-0.8563,-0.7806,-0.7465,-0.7182,-0.699,-0.6606,-0.655,-0.6294,-0.5813,-0.5502,-0.5266,-0.5073,-0.503,-0.4968,-0.4892,-0.4826,-0.4782,-0.4782,-0.4782,-0.4782,-0.4799,-0.4759,-0.4714,-0.4679,-0.4653,-0.4603,-0.4502,-0.4485,-0.444,-0.4314,-0.3761,-0.3002,-0.2085,-0.1633,-0.1097,-0.0582,-0.0493,-0.0246,0.0202,0.0381,0.047,0.083,0.113,0.1619,0.1896,0.2299,0.2651,0.2785,0.2882,0.3019,0.3147,0.3205,0.3205,0.3205,0.3205,0.3205,0.3205,0.3507,0.3783,0.4033,0.4583,0.5135,0.5363,0.5812,0.616,0.6432,0.6485,0.6504,0.6542,0.6612,0.6661,0.6726,0.6878,0.6995,0.7137,0.7381,0.7651,0.7891,0.8173,0.8483,0.8779,0.9003,0.9123,0.9196,0.9199,0.9285,0.9336,0.9391,0.947,0.9266,0.9178,0.9013,0.9068,0.9185,0.9457,0.9745,1.0065,1.0291,-1.6705,-1.664,-1.6214,-1.6,-1.588,-1.5641,-1.5431,-1.5326,-1.4301,-1.3805,-1.3519,-1.2695,-1.2081,-1.1913,-1.1731,-1.1387,-1.0944,-0.9884,-0.9178,-0.8642,-0.79,-0.7071,-0.6442,-0.6358,-0.6151,-0.5825,-0.5701,-0.5519,-0.5179,-0.5081,-0.5005,-0.4983,-0.489,-0.4813,-0.4811,-0.4782,-0.4782,-0.4782,-0.478,-0.4765,-0.4728,-0.4718,-0.4671,-0.4611,-0.4603,-0.4536,-0.441,-0.4302,-0.3916,-0.2988,-0.2215,-0.1768,-0.1543,-0.1498,-0.1432,-0.1212,-0.1344,-0.0854,-0.0293,0.0,0.0532,0.166,0.2014,0.2552,0.2834,0.2994,0.3095,0.3179,0.3205,0.3205,0.3205,0.3205,0.3208,0.3211,0.3286,0.3482,0.3858,0.4013,0.4399,0.5023,0.5422,0.5878,0.6579,0.6646,0.6681,0.6744,0.679,0.6809,0.682,0.6892,0.6855,0.6997,0.721,0.7394,0.766,0.8009,0.8293,0.8593,0.8768,0.8881,0.8909,0.8909,0.8909,0.8909,0.8909,0.8909,0.8909,0.8909,0.8909,0.8964,0.9158,0.9458,0.9706,0.9981,1.0253,-1.6845,-1.6683,-1.6553,-1.6408,-1.6194,-1.5987,-1.592,-1.5833,-1.5333,-1.5007,-1.4946,-1.4717,-1.438,-1.4395,-1.3358,-1.2809,-1.2284,-1.1162,-1.0281,-0.9734,-0.8692,-0.7457,-0.6495,-0.6272,-0.613,-0.5843,-0.5761,-0.5581,-0.522,-0.5161,-0.5102,-0.5001,-0.4981,-0.49,-0.4822,-0.4788,-0.4782,-0.4782,-0.4782,-0.4776,-0.4779,-0.4773,-0.4734,-0.4683,-0.4673,-0.465,-0.457,-0.456,-0.4387,-0.3998,-0.3715,-0.3178,-0.2581,-0.2492,-0.2282,-0.1802,-0.156,-0.1431,-0.1253,-0.1022,-0.0422,0.0433,0.095,0.1578,0.2502,0.2766,0.2978,0.313,0.3205,0.3205,0.3205,0.3208,0.3225,0.3258,0.3239,0.3266,0.3473,0.3802,0.4048,0.3955,0.4981,0.5917,0.6574,0.6716,0.675,0.682,0.6909,0.6961,0.6969,0.701,0.7021,0.698,0.7107,0.7216,0.7446,0.7786,0.8138,0.848,0.8709,0.8881,0.8909,0.8909,0.8909,0.8909,0.8909,0.8909,0.8909,0.8909,0.8909,0.8909,0.902,0.921,0.9461,0.9737,1.0009,-1.6926,-1.6829,-1.6737,-1.6618,-1.6436,-1.623,-1.6133,-1.6084,-1.5885,-1.5771,-1.5755,-1.5634,-1.5601,-1.5491,-1.4729,-1.4253,-1.3835,-1.2526,-1.1709,-1.1043,-0.9355,-0.7703,-0.6576,-0.6188,-0.6047,-0.5991,-0.574,-0.5569,-0.5437,-0.529,-0.5155,-0.5104,-0.5047,-0.4981,-0.4902,-0.4866,-0.4844,-0.4817,-0.4782,-0.4782,-0.4782,-0.4782,-0.4787,-0.4742,-0.4734,-0.472,-0.464,-0.4617,-0.4539,-0.4459,-0.4393,-0.4162,-0.3702,-0.361,-0.3375,-0.2874,-0.2773,-0.2673,-0.2292,-0.2083,-0.1531,-0.0732,-0.0246,0.0498,0.1457,0.1967,0.2296,0.2927,0.3104,0.3205,0.3209,0.3227,0.3258,0.3285,0.3285,0.3279,0.3279,0.3572,0.3626,0.3698,0.4384,0.5732,0.6708,0.6695,0.6722,0.687,0.7043,0.707,0.7089,0.7174,0.7193,0.71,0.7073,0.7191,0.733,0.7618,0.7837,0.8192,0.8595,0.8768,0.8854,0.8881,0.8909,0.8909,0.8909,0.8909,0.8909,0.8909,0.8909,0.8909,0.8909,0.902,0.9323,0.9517,0.9816,-1.7001,-1.6985,-1.6818,-1.6731,-1.6694,-1.6452,-1.635,-1.6301,-1.6122,-1.6023,-1.5953,-1.572,-1.5645,-1.5601,-1.541,-1.5368,-1.5051,-1.382,-1.2998,-1.1851,-1.0097,-0.8226,-0.6935,-0.6214,-0.6075,-0.6077,-0.5661,-0.5599,-0.5543,-0.5349,-0.523,-0.5183,-0.5122,-0.5075,-0.5022,-0.4997,-0.4926,-0.4869,-0.479,-0.4784,-0.4782,-0.4782,-0.4801,-0.4797,-0.4768,-0.4765,-0.4696,-0.4659,-0.463,-0.4626,-0.4609,-0.4531,-0.4512,-0.4541,-0.4504,-0.4407,-0.4255,-0.3965,-0.3451,-0.3253,-0.274,-0.1774,-0.1447,-0.0805,0.0277,0.0806,0.131,0.2143,0.2779,0.2946,0.3246,0.3278,0.3311,0.3335,0.3367,0.3417,0.3428,0.3425,0.3421,0.3448,0.3901,0.5137,0.6112,0.6586,0.6347,0.6717,0.6935,0.7133,0.7169,0.7191,0.7207,0.7193,0.7185,0.7196,0.731,0.7454,0.7614,0.7854,0.8346,0.8626,0.8768,0.8823,0.8881,0.8909,0.8909,0.8909,0.8909,0.8909,0.8909,0.8909,0.8909,0.9047,0.9241,0.9379,0.9627,-1.7001,-1.7001,-1.6953,-1.6931,-1.6894,-1.6721,-1.6618,-1.6602,-1.6339,-1.6171,-1.6028,-1.5922,-1.5788,-1.5601,-1.5591,-1.5443,-1.5226,-1.4664,-1.3766,-1.1744,-1.1107,-0.9684,-0.8223,-0.696,-0.6158,-0.6047,-0.5824,-0.5656,-0.5509,-0.5436,-0.5314,-0.5222,-0.5203,-0.5142,-0.5086,-0.5048,-0.4993,-0.4932,-0.485,-0.4819,-0.4815,-0.4786,-0.4782,-0.4782,-0.4782,-0.4776,-0.4789,-0.4765,-0.4752,-0.4722,-0.4659,-0.4617,-0.4615,-0.4611,-0.4642,-0.4653,-0.4644,-0.4514,-0.4438,-0.4241,-0.3897,-0.2922,-0.2556,-0.1988,-0.0931,-0.0529,-0.0076,0.0606,0.1275,0.2121,0.3064,0.3326,0.3301,0.3305,0.3412,0.3469,0.3527,0.3506,0.3504,0.361,0.3999,0.4664,0.531,0.6026,0.6156,0.6513,0.6821,0.7127,0.721,0.721,0.721,0.721,0.721,0.721,0.724,0.7351,0.7462,0.7632,0.8017,0.8318,0.846,0.8685,0.8716,0.8826,0.8909,0.8909,0.8909,0.8909,0.8909,0.8909,0.8909,0.8992,0.9103,0.9268,0.9406,-1.7001,-1.7001,-1.7001,-1.7001,-1.6985,-1.6904,-1.6856,-1.678,-1.6581,-1.6344,-1.616,-1.6072,-1.5847,-1.5612,-1.5596,-1.5521,-1.5285,-1.4895,-1.3657,-1.1973,-1.1191,-1.0173,-0.8889,-0.7873,-0.7154,-0.6818,-0.6404,-0.6019,-0.5656,-0.5461,-0.5355,-0.5314,-0.5306,-0.5232,-0.5157,-0.5118,-0.5081,-0.5024,-0.4947,-0.49,-0.4896,-0.4828,-0.4782,-0.4782,-0.4782,-0.4782,-0.478,-0.478,-0.478,-0.4762,-0.472,-0.4694,-0.4694,-0.4694,-0.4722,-0.472,-0.4708,-0.4728,-0.4773,-0.475,-0.4489,-0.3999,-0.38,-0.3145,-0.2424,-0.1925,-0.1402,-0.0691,0.0181,0.1158,0.2582,0.2825,0.2846,0.2973,0.3275,0.3358,0.3097,0.3279,0.3537,0.3588,0.3836,0.43,0.4843,0.5343,0.5901,0.6179,0.6457,0.6765,0.721,0.721,0.721,0.721,0.721,0.721,0.721,0.7293,0.7349,0.749,0.7712,0.7878,0.7992,0.8269,0.8549,0.866,0.8799,0.8909,0.8909,0.8909,0.8909,0.8909,0.8909,0.8909,0.8937,0.9075,0.9241,-1.7001,-1.7001,-1.7001,-1.7001,-1.7001,-1.6996,-1.699,-1.6964,-1.6834,-1.6618,-1.6355,-1.6138,-1.5848,-1.5544,-1.5399,-1.5448,-1.5231,-1.4695,-1.3514,-1.2366,-1.1783,-1.0759,-0.9596,-0.9175,-0.8812,-0.8285,-0.7124,-0.6379,-0.5768,-0.5545,-0.5403,-0.5403,-0.5405,-0.5333,-0.5248,-0.5186,-0.5167,-0.5122,-0.5039,-0.5018,-0.5003,-0.4912,-0.4838,-0.4782,-0.4782,-0.4782,-0.4782,-0.4782,-0.4782,-0.4782,-0.4782,-0.4782,-0.4782,-0.4782,-0.4782,-0.478,-0.4764,-0.4793,-0.4799,-0.4803,-0.4753,-0.4782,-0.4757,-0.4392,-0.3653,-0.3305,-0.2816,-0.1905,-0.0976,0.0214,0.1584,0.1905,0.1974,0.212,0.2754,0.2742,0.2381,0.2773,0.2993,0.3608,0.3691,0.3976,0.4313,0.473,0.5316,0.5845,0.6068,0.6429,0.6849,0.7154,0.7127,0.7182,0.721,0.721,0.721,0.714,0.7221,0.7354,0.7483,0.7556,0.7704,0.8123,0.847,0.8566,0.8685,0.8774,0.8857,0.8854,0.8881,0.8881,0.8909,0.8909,0.8909,0.8909,0.9075,-1.7001,-1.7001,-1.7001,-1.7001,-1.7001,-1.7001,-1.7001,-1.7001,-1.6953,-1.6818,-1.6602,-1.635,-1.5821,-1.5266,-1.4845,-1.4783,-1.4703,-1.4285,-1.3776,-1.3019,-1.2563,-1.1763,-1.0996,-1.0715,-1.0472,-0.9441,-0.7962,-0.6533,-0.5742,-0.5409,-0.5409,-0.5409,-0.5409,-0.5363,-0.5335,-0.5262,-0.5196,-0.5187,-0.5135,-0.5088,-0.5065,-0.4998,-0.4895,-0.4846,-0.4842,-0.4811,-0.48,-0.4792,-0.4782,-0.4782,-0.4784,-0.4784,-0.4782,-0.4782,-0.4782,-0.4782,-0.4782,-0.4782,-0.4782,-0.4782,-0.4782,-0.4782,-0.4817,-0.486,-0.4649,-0.4586,-0.4091,-0.3401,-0.21,-0.0737,0.0222,0.0805,0.1087,0.1201,0.1342,0.1401,0.1261,0.1485,0.2102,0.2998,0.3335,0.3503,0.3668,0.3808,0.4142,0.4726,0.5228,0.5841,0.6538,0.6818,0.6988,0.7071,0.721,0.721,0.721,0.7093,0.7055,0.718,0.732,0.7384,0.764,0.8112,0.8373,0.8295,0.8434,0.8621,0.8701,0.8774,0.8854,0.8909,0.8909,0.8909,0.8909,0.8909,0.8909,-1.7001,-1.7001,-1.7001,-1.7001,-1.7001,-1.7001,-1.7001,-1.7001,-1.6996,-1.6802,-1.6533,-1.6319,-1.5949,-1.5335,-1.4785,-1.4451,-1.4123,-1.3683,-1.3299,-1.2903,-1.2478,-1.2048,-1.1538,-1.1525,-1.0839,-0.9889,-0.8647,-0.7349,-0.6135,-0.5603,-0.5465,-0.5409,-0.5409,-0.5409,-0.5403,-0.5341,-0.5289,-0.5264,-0.5201,-0.5151,-0.5142,-0.5088,-0.5014,-0.4964,-0.4947,-0.4949,-0.4949,-0.4949,-0.4927,-0.492,-0.4908,-0.4854,-0.483,-0.479,-0.4788,-0.479,-0.4788,-0.4809,-0.4784,-0.4786,-0.4828,-0.4902,-0.4906,-0.4951,-0.5028,-0.4986,-0.488,-0.4246,-0.3486,-0.197,-0.0782,-0.0168,0.0168,0.0308,0.0533,0.0589,0.0476,0.0645,0.1345,0.2101,0.1989,0.2157,0.2716,0.2856,0.2968,0.3525,0.4249,0.5059,0.5924,0.6051,0.6086,0.6608,0.6646,0.6467,0.6362,0.6184,0.6384,0.6661,0.6621,0.6713,0.6944,0.713,0.7534,0.7729,0.7979,0.8245,0.8593,0.8719,0.8802,0.8912,0.8909,0.8909,0.8909,0.8909,0.8909,-1.7001,-1.7001,-1.7001,-1.7001,-1.7001,-1.7001,-1.691,-1.6812,-1.678,-1.6525,-1.619,-1.6064,-1.583,-1.5357,-1.4724,-1.4127,-1.3663,-1.3162,-1.2945,-1.2586,-1.2235,-1.1744,-1.1355,-1.117,-1.0896,-1.0292,-0.9585,-0.8614,-0.6816,-0.6077,-0.5659,-0.5437,-0.5409,-0.5409,-0.5405,-0.5399,-0.5409,-0.5359,-0.5318,-0.5244,-0.5201,-0.5149,-0.5096,-0.511,-0.5106,-0.5098,-0.5057,-0.5055,-0.5055,-0.5042,-0.502,-0.4967,-0.488,-0.4841,-0.4841,-0.4837,-0.4848,-0.4838,-0.4844,-0.4874,-0.4945,-0.4994,-0.5024,-0.5075,-0.5047,-0.5021,-0.4905,-0.4608,-0.3891,-0.3104,-0.1987,-0.1261,-0.0869,-0.0589,-0.0168,0.014,-0.028,-0.0252,0.0168,0.0533,0.0448,0.0897,0.157,0.1905,0.2045,0.2408,0.3132,0.3691,0.4419,0.4483,0.475,0.5673,0.5919,0.5602,0.5308,0.4877,0.5203,0.567,0.5344,0.5125,0.5463,0.5805,0.6242,0.6715,0.7343,0.7617,0.8113,0.8606,0.8783,0.887,0.8898,0.8909,0.8909,0.8909,0.8909,-1.7001,-1.7001,-1.7001,-1.7001,-1.7001,-1.7001,-1.665,-1.6196,-1.6201,-1.5934,-1.5723,-1.5476,-1.5283,-1.4877,-1.4196,-1.3813,-1.3641,-1.3474,-1.3084,-1.2564,-1.2509,-1.2118,-1.1563,-1.1468,-1.13,-1.0788,-1.0235,-0.866,-0.7374,-0.6799,-0.6135,-0.5663,-0.5549,-0.5409,-0.5409,-0.5409,-0.5409,-0.5407,-0.5397,-0.5326,-0.5236,-0.5209,-0.5163,-0.5116,-0.5124,-0.5132,-0.5141,-0.5143,-0.5118,-0.5073,-0.5092,-0.5086,-0.5075,-0.5075,-0.5075,-0.5053,-0.501,-0.4983,-0.4995,-0.5006,-0.5055,-0.5084,-0.5092,-0.5114,-0.511,-0.4935,-0.4881,-0.5262,-0.4288,-0.3503,-0.2942,-0.2607,-0.2187,-0.1739,-0.1262,-0.1206,-0.143,-0.1065,-0.0645,-0.0589,-0.0533,-0.0028,0.059,0.087,0.1149,0.1541,0.196,0.2465,0.3037,0.3265,0.2979,0.371,0.4571,0.439,0.3921,0.3559,0.4028,0.4579,0.3959,0.3609,0.434,0.4799,0.4953,0.55,0.6149,0.6789,0.7188,0.7749,0.8483,0.8547,0.819,0.8468,0.8881,0.8854,0.8439,-1.7324,-1.7802,-1.7222,-1.7001,-1.7001,-1.7001,-1.6839,-1.6521,-1.6164,-1.5848,-1.5503,-1.4968,-1.4565,-1.4252,-1.3807,-1.3479,-1.3167,-1.2929,-1.2574,-1.2311,-1.2279,-1.2116,-1.1785,-1.1676,-1.1561,-1.1335,-1.0917,-1.0182,-0.8752,-0.7785,-0.7118,-0.6281,-0.6077,-0.5854,-0.5555,-0.5412,-0.5409,-0.5409,-0.5405,-0.5361,-0.5333,-0.5318,-0.5302,-0.5263,-0.5257,-0.5255,-0.5255,-0.5261,-0.523,-0.5177,-0.5159,-0.513,-0.512,-0.5104,-0.5104,-0.5108,-0.51,-0.5073,-0.5065,-0.5096,-0.5135,-0.5149,-0.5165,-0.5201,-0.5251,-0.5129,-0.4847,-0.4819,-0.412,-0.3561,-0.3113,-0.2524,-0.2187,-0.1879,-0.1795,-0.1795,-0.1795,-0.1795,-0.1514,-0.1514,-0.1432,-0.0875,-0.0481,-0.0424,-0.0254,-0.0085,0.0369,0.0883,0.1773,0.2624,0.2093,0.1463,0.2356,0.3021,0.2477,0.2074,0.2808,0.3103,0.2071,0.2137,0.3366,0.3922,0.3852,0.4124,0.4712,0.5369,0.6072,0.6761,0.7391,0.7405,0.728,0.7376,0.7413,0.7051,0.6687,-1.7706,-1.815,-1.7157,-1.6742,-1.6748,-1.6748,-1.6715,-1.665,-1.5969,-1.5589,-1.5192,-1.456,-1.4014,-1.3723,-1.3565,-1.3212,-1.2707,-1.2207,-1.1955,-1.1878,-1.1908,-1.1925,-1.1863,-1.1831,-1.1729,-1.1569,-1.151,-1.0977,-1.0306,-0.9486,-0.8574,-0.7221,-0.6812,-0.646,-0.5941,-0.5562,-0.5409,-0.5409,-0.5409,-0.5407,-0.5403,-0.5403,-0.5403,-0.5403,-0.5409,-0.5409,-0.5409,-0.5401,-0.5331,-0.5298,-0.5252,-0.5251,-0.5208,-0.5204,-0.5202,-0.5212,-0.5216,-0.5216,-0.5204,-0.5202,-0.5189,-0.5224,-0.5252,-0.5276,-0.5327,-0.5326,-0.5212,-0.4847,-0.4035,-0.3477,-0.2945,-0.244,-0.2075,-0.1935,-0.1795,-0.1795,-0.1796,-0.18,-0.1779,-0.1701,-0.165,-0.1716,-0.1489,-0.1628,-0.1654,-0.1653,-0.1261,-0.0636,0.0321,0.1468,0.1184,0.0358,0.075,0.0,0.0,0.0,0.0,0.0,0.0,0.0,0.0,0.0,0.2244,0.2676,0.3323,0.4032,0.4781,0.5556,0.6226,0.6098,0.5952,0.5726,0.5557,0.5261,0.5143,-1.8086,-1.7501,-1.6456,-1.6071,-1.6039,-1.6071,-1.6071,-1.6066,-1.5323,-1.4845,-1.4513,-1.4155,-1.3817,-1.3632,-1.3273,-1.2964,-1.2686,-1.2591,-1.2245,-1.2101,-1.2119,-1.2081,-1.1967,-1.1829,-1.1794,-1.177,-1.1745,-1.1592,-1.1369,-1.1006,-0.9927,-0.8656,-0.7889,-0.7217,-0.6639,-0.6113,-0.5562,-0.5472,-0.5409,-0.5409,-0.5409,-0.5409,-0.5409,-0.5409,-0.5409,-0.5409,-0.5409,-0.5409,-0.5405,-0.5353,-0.5351,-0.5353,-0.5318,-0.5316,-0.5316,-0.5324,-0.5333,-0.5337,-0.532,-0.5318,-0.5351,-0.5367,-0.5365,-0.5357,-0.538,-0.4875,-0.4819,-0.4989,-0.4147,-0.3615,-0.3281,-0.2975,-0.2196,-0.194,-0.1804,-0.1811,-0.1812,-0.1812,-0.182,-0.1804,-0.1815,-0.1855,-0.1841,-0.1868,-0.1857,-0.1797,-0.1782,-0.1208,-0.1043,-0.021,-0.0121,-0.0396,-0.0337,0.0,0.0,0.0,0.0,0.0,0.0,0.0,0.0,0.0,0.0,0.1449,0.2187,0.2859,0.3343,0.3661,0.4059,0.4567,0.4587,0.4165,0.4209,0.4247,0.4054,-1.6316,-1.5271,-1.4856,-1.4959,-1.5323,-1.5323,-1.5578,-1.5779,-1.4791,-1.39,-1.3411,-1.3461,-1.3419,-1.3254,-1.3131,-1.2878,-1.2664,-1.2343,-1.2126,-1.2012,-1.2012,-1.2016,-1.1894,-1.1841,-1.1806,-1.1806,-1.1802,-1.176,-1.1683,-1.168,-1.1429,-1.0369,-0.9263,-0.8531,-0.7861,-0.687,-0.6118,-0.5536,-0.5416,-0.5412,-0.5409,-0.5409,-0.5409,-0.5409,-0.5409,-0.5409,-0.5409,-0.5409,-0.5409,-0.5409,-0.5409,-0.5409,-0.5409,-0.5409,-0.5409,-0.5409,-0.5409,-0.5409,-0.5409,-0.5409,-0.5409,-0.5409,-0.5409,-0.5409,-0.5409,-0.5128,-0.4903,-0.465,-0.415,-0.3652,-0.3032,-0.2518,-0.1964,-0.1841,-0.1817,-0.1829,-0.1833,-0.1834,-0.1846,-0.1834,-0.1844,-0.1882,-0.1898,-0.1882,-0.1898,-0.1888,-0.1875,-0.1831,-0.1576,-0.1373,-0.1104,-0.083,-0.0709,-0.0432,0.0,0.0,0.0,0.0,0.0,0.0,0.0,0.0,0.0,0.0,0.0,0.0,0.0,0.0,0.2003,0.2874,0.2826,0.2374,0.2604,0.3127,0.3044,-1.5606,-1.4492,-1.4071,-1.417,-1.4572,-1.46,-1.5024,-1.5383,-1.4432,-1.3411,-1.262,-1.2963,-1.2999,-1.2848,-1.2865,-1.2757,-1.2559,-1.2378,-1.2189,-1.2158,-1.2162,-1.2081,-1.1971,-1.1878,-1.1845,-1.1831,-1.1806,-1.1794,-1.1786,-1.1802,-1.1657,-1.1375,-1.0953,-1.0044,-0.8936,-0.7708,-0.6657,-0.607,-0.5572,-0.5465,-0.5433,-0.5422,-0.5426,-0.542,-0.5409,-0.5409,-0.5409,-0.5409,-0.5409,-0.5409,-0.5409,-0.5409,-0.5409,-0.5409,-0.5409,-0.5409,-0.5409,-0.5409,-0.5409,-0.5409,-0.5409,-0.5409,-0.5409,-0.5409,-0.5409,-0.5409,-0.5184,-0.4879,-0.4275,-0.3643,-0.3027,-0.2635,-0.2166,-0.2018,-0.1883,-0.1864,-0.1862,-0.1863,-0.188,-0.1867,-0.1904,-0.191,-0.1929,-0.1943,-0.1937,-0.1958,-0.1937,-0.1918,-0.1805,-0.163,-0.1447,-0.1172,-0.0895,-0.0587,0.0,0.0,0.0,0.0,0.0,0.0,0.0,0.0,0.0,0.0,0.0,0.0,0.0,0.0,0.0,0.149,0.1363,0.1298,0.1632,0.211,0.2075,-1.6537,-1.5786,-1.4492,-1.394,-1.3945,-1.3912,-1.4305,-1.4824,-1.4184,-1.3407,-1.2661,-1.2709,-1.2582,-1.2484,-1.2609,-1.2547,-1.2498,-1.2572,-1.2596,-1.247,-1.2369,-1.2377,-1.2227,-1.206,-1.1892,-1.1839,-1.1839,-1.1821,-1.1827,-1.1811,-1.1811,-1.1855,-1.1566,-1.1091,-1.0013,-0.8154,-0.719,-0.6917,-0.6053,-0.5767,-0.5494,-0.5478,-0.5471,-0.5441,-0.5429,-0.5435,-0.5438,-0.5408,-0.5404,-0.5412,-0.5412,-0.5409,-0.5409,-0.5409,-0.5409,-0.5409,-0.5409,-0.5409,-0.5409,-0.5409,-0.5409,-0.5409,-0.5409,-0.5409,-0.5409,-0.5386,-0.54,-0.5133,-0.4781,-0.4243,-0.3695,-0.3115,-0.2547,-0.22,-0.2092,-0.1897,-0.1895,-0.193,-0.1918,-0.1928,-0.1932,-0.194,-0.199,-0.2004,-0.2002,-0.2001,-0.2005,-0.1977,-0.1915,-0.1822,-0.1668,-0.139,-0.1112,-0.0865,-0.0525,-0.0185,0.0,0.0,0.0,0.0,0.0,0.0,0.0,0.0,0.0,0.0,0.0,0.0,0.0,0.0,0.0,0.0706,0.0953,0.1167,0.1283,-1.6721,-1.5233,-1.4749,-1.4034,-1.326,-1.3161,-1.3588,-1.4086,-1.3826,-1.3336,-1.2808,-1.2661,-1.258,-1.2547,-1.2543,-1.2491,-1.2402,-1.2535,-1.2592,-1.243,-1.2434,-1.2272,-1.2123,-1.2062,-1.1969,-1.1928,-1.1908,-1.1896,-1.1916,-1.1857,-1.1819,-1.1847,-1.1869,-1.1367,-1.0514,-0.933,-0.8795,-0.7365,-0.6686,-0.6322,-0.5689,-0.5625,-0.5609,-0.5605,-0.56,-0.5516,-0.5469,-0.5467,-0.5447,-0.5412,-0.5406,-0.5428,-0.5424,-0.5422,-0.5392,-0.5416,-0.5412,-0.5409,-0.5409,-0.5409,-0.5409,-0.5416,-0.5418,-0.542,-0.5412,-0.5439,-0.5455,-0.5398,-0.5057,-0.4628,-0.436,-0.3408,-0.2801,-0.2579,-0.2381,-0.2045,-0.1932,-0.1944,-0.1957,-0.196,-0.1963,-0.1961,-0.2003,-0.2008,-0.2008,-0.2008,-0.2008,-0.2008,-0.1977,-0.1946,-0.1822,-0.1544,-0.1297,-0.1112,-0.0865,-0.0525,-0.034,0.0,0.0,0.0,0.0,0.0,0.0,0.0,0.0,0.0,0.0,0.0,0.0,0.0,0.0,0.0,0.0586,0.077,0.0862,-1.7555,-1.6263,-1.5266,-1.4394,-1.3518,-1.3001,-1.3099,-1.3464,-1.3366,-1.3122,-1.282,-1.2706,-1.2661,-1.2661,-1.2649,-1.2621,-1.2475,-1.2596,-1.2641,-1.2491,-1.2499,-1.2341,-1.2192,-1.2078,-1.2001,-1.1985,-1.1977,-1.1977,-1.1914,-1.189,-1.1878,-1.1906,-1.1975,-1.1695,-1.1083,-1.0566,-0.9869,-0.869,-0.8238,-0.7584,-0.6966,-0.6566,-0.6199,-0.6053,-0.586,-0.5581,-0.5543,-0.5545,-0.5531,-0.5484,-0.5465,-0.5453,-0.5471,-0.5451,-0.5449,-0.5439,-0.5459,-0.5469,-0.5484,-0.5486,-0.5496,-0.549,-0.5447,-0.5443,-0.5459,-0.5508,-0.5535,-0.5454,-0.5227,-0.4992,-0.4665,-0.3673,-0.3384,-0.3187,-0.2717,-0.2379,-0.2018,-0.2029,-0.2031,-0.2036,-0.2007,-0.2008,-0.2008,-0.2008,-0.2008,-0.2008,-0.2008,-0.2008,-0.2008,-0.1977,-0.1946,-0.1761,-0.1575,-0.1451,-0.1204,-0.0896,-0.0741,-0.0679,0.0,0.0,0.0,0.0,0.0,0.0,0.0,0.0,0.0,0.0,0.0,0.0,0.0,0.0,0.0,0.0432,0.0556,-1.9042,-1.8582,-1.6133,-1.507,-1.4744,-1.358,-1.2968,-1.2836,-1.2832,-1.2799,-1.2799,-1.2791,-1.2767,-1.2787,-1.2791,-1.2771,-1.2746,-1.2771,-1.2759,-1.2738,-1.2669,-1.2495,-1.2393,-1.2304,-1.219,-1.2016,-1.1979,-1.2069,-1.1892,-1.1975,-1.2009,-1.2005,-1.2042,-1.197,-1.1748,-1.1384,-1.0736,-0.9998,-0.9358,-0.8742,-0.818,-0.7673,-0.7306,-0.7022,-0.6639,-0.6178,-0.6005,-0.5875,-0.575,-0.565,-0.5566,-0.5549,-0.5538,-0.5567,-0.554,-0.5532,-0.5565,-0.5546,-0.555,-0.5573,-0.5595,-0.5608,-0.5567,-0.5555,-0.5561,-0.5592,-0.5614,-0.5657,-0.5538,-0.5214,-0.4796,-0.4474,-0.4174,-0.3711,-0.3162,-0.271,-0.2249,-0.2129,-0.2098,-0.2069,-0.2038,-0.2008,-0.2008,-0.2008,-0.2008,-0.2008,-0.2008,-0.2008,-0.2008,-0.2008,-0.1977,-0.1977,-0.1853,-0.1791,-0.1544,-0.1235,-0.1081,-0.0988,-0.0741,0.0,0.0,-0.0309,0.0,0.0,0.0,0.0,0.0,0.0,0.0,0.0,0.0,0.0,0.0,0.0,0.0432,-1.9909,-1.8908,-1.8133,-1.7265,-1.6236,-1.4875,-1.3739,-1.2869,-1.2803,-1.2803,-1.2803,-1.2803,-1.2791,-1.2803,-1.2803,-1.2803,-1.2803,-1.2803,-1.2799,-1.2775,-1.2743,-1.2605,-1.2551,-1.2499,-1.2429,-1.2356,-1.2264,-1.2239,-1.2311,-1.2292,-1.2203,-1.2196,-1.2123,-1.2196,-1.2134,-1.198,-1.1387,-1.0829,-1.0235,-0.9753,-0.9199,-0.8581,-0.8335,-0.8102,-0.7845,-0.7339,-0.6879,-0.675,-0.6519,-0.5871,-0.568,-0.562,-0.5562,-0.5572,-0.5558,-0.5585,-0.5572,-0.5582,-0.5586,-0.5618,-0.5646,-0.5729,-0.5708,-0.5669,-0.564,-0.565,-0.5704,-0.5751,-0.5768,-0.5439,-0.5056,-0.4751,-0.4313,-0.376,-0.333,-0.3085,-0.2654,-0.2469,-0.2407,-0.2069,-0.2008,-0.2008,-0.2008,-0.2008,-0.2008,-0.2008,-0.2008,-0.2008,-0.2008,-0.2008,-0.2008,-0.2008,-0.2008,-0.1915,-0.1791,-0.1514,-0.142,-0.1297,-0.105,-0.0834,-0.0772,-0.0649,-0.0432,-0.0247,-0.0124,0.0,0.0,0.0,0.0,0.0,0.0,0.0,0.0,0.0,0.0,-2.0589,-1.9807,-1.9234,-1.7908,-1.6203,-1.5266,-1.41,-1.2955,-1.2763,-1.2763,-1.2795,-1.2722,-1.2771,-1.2799,-1.2803,-1.2803,-1.2803,-1.2803,-1.2803,-1.2771,-1.2718,-1.2637,-1.2629,-1.2596,-1.2519,-1.2494,-1.2474,-1.2398,-1.2438,-1.2304,-1.2155,-1.2135,-1.2154,-1.2158,-1.2115,-1.2012,-1.1759,-1.136,-1.0987,-1.0587,-1.0121,-0.9592,-0.942,-0.9326,-0.9143,-0.8451,-0.798,-0.7848,-0.741,-0.6795,-0.6668,-0.6291,-0.6159,-0.5964,-0.5703,-0.5711,-0.5733,-0.574,-0.5742,-0.5735,-0.579,-0.5816,-0.5833,-0.5808,-0.5792,-0.5798,-0.5814,-0.5843,-0.579,-0.5665,-0.5264,-0.4803,-0.422,-0.3637,-0.3545,-0.3453,-0.3177,-0.2931,-0.2562,-0.2131,-0.2008,-0.2008,-0.2008,-0.2008,-0.2008,-0.2008,-0.2008,-0.2008,-0.2008,-0.2008,-0.2008,-0.2008,-0.2008,-0.1977,-0.1853,-0.1761,-0.1699,-0.1575,-0.1359,-0.1204,-0.1143,-0.0926,-0.0679,-0.0432,-0.0185,0.0,0.0,0.0,0.0,0.0,0.0,0.0,0.0,0.0,0.0,-2.0881,-2.0722,-1.9425,-1.7297,-1.5098,-1.4907,-1.4086,-1.2857,-1.2621,-1.2641,-1.2718,-1.2641,-1.2698,-1.273,-1.2779,-1.2799,-1.2803,-1.2803,-1.2803,-1.2803,-1.2779,-1.2702,-1.2649,-1.2621,-1.2584,-1.2487,-1.2442,-1.2511,-1.2333,-1.2236,-1.2219,-1.2042,-1.1975,-1.2016,-1.2117,-1.1939,-1.178,-1.1732,-1.1663,-1.1517,-1.1417,-1.0962,-1.0399,-1.0274,-0.9724,-0.9073,-0.8952,-0.8894,-0.8867,-0.8495,-0.808,-0.745,-0.714,-0.654,-0.62,-0.5955,-0.5993,-0.5861,-0.5855,-0.5851,-0.5867,-0.5884,-0.5888,-0.5863,-0.5845,-0.5839,-0.588,-0.5884,-0.5851,-0.5546,-0.5143,-0.4896,-0.4435,-0.3913,-0.3669,-0.3361,-0.2992,-0.2716,-0.2408,-0.2069,-0.2008,-0.2008,-0.2008,-0.2008,-0.2008,-0.2008,-0.2008,-0.2008,-0.2008,-0.2008,-0.2008,-0.2008,-0.2008,-0.2008,-0.1977,-0.1915,-0.1946,-0.1853,-0.1637,-0.1575,-0.1514,-0.1235,-0.0926,-0.0679,-0.0401,-0.0216,0.0,0.0,0.0,0.0,0.0,0.0,0.0,0.0,0.0,-1.9489,-1.9361,-1.8037,-1.6457,-1.4973,-1.4907,-1.4043,-1.2682,-1.2442,-1.2471,-1.2629,-1.2617,-1.2625,-1.2674,-1.2763,-1.2803,-1.2803,-1.2803,-1.2803,-1.2803,-1.2803,-1.2783,-1.2738,-1.2735,-1.2686,-1.269,-1.2637,-1.2592,-1.2523,-1.2454,-1.2479,-1.252,-1.2292,-1.2113,-1.2134,-1.1914,-1.1851,-1.187,-1.1866,-1.1866,-1.1754,-1.1734,-1.1405,-1.1345,-1.0948,-1.0459,-1.0243,-0.9937,-0.9447,-0.8863,-0.865,-0.845,-0.8399,-0.7517,-0.7101,-0.6942,-0.6464,-0.6249,-0.6147,-0.6165,-0.622,-0.6058,-0.6023,-0.5931,-0.5886,-0.5888,-0.5888,-0.5888,-0.5763,-0.5421,-0.5082,-0.4896,-0.4618,-0.4189,-0.3761,-0.3268,-0.2776,-0.25,-0.2223,-0.2131,-0.2038,-0.2008,-0.2008,-0.2008,-0.2008,-0.2008,-0.2008,-0.2008,-0.2008,-0.2008,-0.2008,-0.2008,-0.2008,-0.2008,-0.2008,-0.2008,-0.2008,-0.2008,-0.1853,-0.1853,-0.1853,-0.1514,-0.1143,-0.0896,-0.0679,-0.0494,-0.0309,0.0,0.0,0.0,0.0,0.0,0.0,0.0,0.0,-1.9941,-1.9782,-1.846,-1.6716,-1.5103,-1.4907,-1.4021,-1.2745,-1.2381,-1.2361,-1.2442,-1.249,-1.256,-1.2649,-1.2763,-1.2803,-1.2803,-1.2803,-1.2803,-1.2803,-1.2803,-1.2803,-1.2803,-1.2803,-1.2783,-1.2763,-1.2747,-1.269,-1.2657,-1.2487,-1.2479,-1.2524,-1.2288,-1.2093,-1.2069,-1.19,-1.1806,-1.1811,-1.1806,-1.1806,-1.1806,-1.1806,-1.1806,-1.1806,-1.1682,-1.1375,-1.1285,-1.0978,-1.0671,-1.0058,-0.9785,-0.9083,-0.8827,-0.8279,-0.8039,-0.7894,-0.7536,-0.7007,-0.6855,-0.6827,-0.6867,-0.6741,-0.6606,-0.6709,-0.6523,-0.6462,-0.5916,-0.5888,-0.5888,-0.5607,-0.5143,-0.4865,-0.4495,-0.4097,-0.3852,-0.3515,-0.293,-0.2438,-0.2223,-0.2069,-0.2008,-0.2008,-0.2008,-0.2008,-0.2008,-0.2008,-0.2008,-0.2008,-0.2008,-0.2008,-0.2008,-0.2008,-0.2008,-0.2008,-0.2008,-0.2008,-0.2008,-0.2008,-0.2008,-0.1977,-0.1915,-0.1668,-0.139,-0.1204,-0.0988,-0.0803,-0.0618,-0.0463,-0.0463,0.0,0.0,0.0,-0.0185,-0.0124,0.0,-2.0627,-2.0399,-1.8972,-1.7082,-1.5027,-1.4637,-1.3792,-1.2635,-1.2333,-1.2284,-1.232,-1.232,-1.2483,-1.2674,-1.2803,-1.2803,-1.2803,-1.2803,-1.2803,-1.2803,-1.2803,-1.2803,-1.2803,-1.2803,-1.2803,-1.2759,-1.2694,-1.2734,-1.2763,-1.2516,-1.2333,-1.2255,-1.2073,-1.1876,-1.1843,-1.1815,-1.1806,-1.1806,-1.1806,-1.1806,-1.1806,-1.1806,-1.1806,-1.1806,-1.1806,-1.1806,-1.1806,-1.1772,-1.1772,-1.1466,-1.0857,-1.0277,-0.9663,-0.9265,-0.9083,-0.89,-0.8565,-0.8144,-0.7929,-0.8128,-0.8005,-0.7854,-0.7669,-0.7497,-0.7345,-0.7011,-0.6464,-0.6252,-0.6252,-0.5792,-0.5327,-0.4865,-0.4496,-0.4127,-0.3944,-0.3638,-0.3023,-0.2438,-0.2223,-0.2038,-0.2008,-0.2008,-0.2008,-0.2008,-0.2008,-0.2008,-0.2008,-0.2008,-0.2008,-0.2008,-0.2008,-0.2008,-0.2008,-0.2008,-0.2008,-0.2008,-0.2008,-0.2008,-0.2008,-0.2008,-0.1977,-0.1791,-0.1668,-0.1575,-0.1359,-0.1235,-0.105,-0.0896,-0.0957,-0.105,-0.0772,-0.0556,-0.0494,-0.0401,-0.0185,-1.878,-1.7651,-1.6268,-1.5299,-1.4543,-1.3573,-1.2685,-1.2189,-1.2082,-1.2131,-1.228,-1.232,-1.2434,-1.2633,-1.275,-1.2799,-1.2803,-1.2803,-1.2803,-1.2803,-1.2803,-1.2803,-1.2803,-1.2803,-1.2803,-1.273,-1.2629,-1.2576,-1.2702,-1.2471,-1.2377,-1.2494,-1.2308,-1.2101,-1.1951,-1.1886,-1.1806,-1.1806,-1.1806,-1.1806,-1.1806,-1.1806,-1.1806,-1.1806,-1.1806,-1.1806,-1.1806,-1.1806,-1.1806,-1.1742,-1.1591,-1.1254,-1.0857,-1.0334,-1.0092,-0.9876,-0.9542,-0.9109,-0.898,-0.9112,-0.8955,-0.883,-0.8656,-0.8532,-0.841,-0.8288,-0.7864,-0.7653,-0.735,-0.6342,-0.5757,-0.5204,-0.4773,-0.4404,-0.4129,-0.3576,-0.2992,-0.25,-0.2161,-0.2069,-0.2008,-0.2008,-0.2008,-0.2008,-0.2008,-0.2008,-0.2008,-0.2008,-0.2008,-0.2008,-0.2008,-0.2008,-0.2008,-0.2008,-0.2008,-0.2008,-0.2008,-0.2008,-0.2008,-0.2008,-0.2008,-0.1977,-0.1884,-0.1791,-0.1852,-0.179,-0.1605,-0.1697,-0.145,-0.1512,-0.1142,-0.0896,-0.0834,-0.0679,-0.0494]},{"header":{"parameterUnit":"m.s-1","parameterCategory":1,"la1":31.0,"la2":29.5877,"lo1":-88.7671,"lo2":-86.6584,"dy":0.0162,"dx":0.0185,"nx":115,"ny":88,"refTime":"2024-06-18T12:00:00:Z","depth":0,"parameterNumber":3,"parameterNumberName":"V-component_of_WINDS"},"data":[0.0,0.0,0.0,0.0,0.0,0.0,0.0,0.0,0.0,0.0,0.0,0.0,0.0,0.0,0.0,0.0,0.0,0.0,0.0,0.0,0.0,0.0,0.0,0.0,0.0,0.0,0.0,0.0,0.0,0.0,0.0,0.0,0.0,0.0,0.0,0.0,0.0,0.0,0.0,0.0,0.0,0.0,0.0,0.0,0.0,0.0,0.0,0.0,0.0,0.0,0.0,0.0,0.0,0.0,0.0,0.0,0.0,0.0,0.0,0.0,0.0,0.0,0.0,0.0,0.0,0.0,0.0,0.0,0.0,0.0,0.0,0.0,0.0,0.0,0.0,0.0,0.0,0.0,0.0,0.0,0.0,0.0,0.0,0.0,0.0,0.0,0.0,0.0,0.0,0.0,0.0,0.0,0.0,0.0,0.0,0.0,0.0,0.0,0.0,0.0,0.0,0.0,0.0,0.0,0.0,0.0,0.0,0.0,0.0,0.0,0.0,0.0,0.0,0.0,0.0,0.0,0.0,0.0,0.0,0.0,0.0,0.0,0.0,0.0,0.0,0.0,0.0,0.0,0.0,0.0,0.0,0.0,0.0,0.0,0.0,0.0,0.0,0.0,0.0,0.0,0.0,0.0,0.0,0.0,0.0,0.0,0.0,0.0,0.0,0.0,0.0,0.0,0.0,0.0,0.0,0.0,0.0,0.0,0.0,0.0,0.0,0.0,0.0,0.0,0.0,0.0,0.0,0.0,0.0,0.0,0.0,0.0,0.0,0.0,0.0,0.0,0.0,0.0,0.0,0.0,0.0,0.0,0.0,0.0,0.0,0.0,0.0,0.0,0.0,0.0,0.0,0.0,0.0,0.0,0.0,0.0,0.0,0.0,0.0,0.0,0.0,0.0,0.0,0.0,0.0,0.0,0.0,0.0,0.0,0.0,0.0,0.0,0.0,0.0,0.0,0.0,0.0,0.0,0.0,0.0,0.0,0.0,0.0,0.0,0.0,0.0,0.0,0.0,0.0,0.0,0.0,0.0,0.0,0.0,0.0,0.0,0.0,0.0,0.0,0.0,0.0,0.0,0.0,0.0,0.0,0.0,0.0,0.0,0.0,0.0,0.0,0.0,0.0,0.0,0.0,0.0,0.0,0.0,0.0,0.0,0.0,0.0,0.0,0.0,0.0,0.0,0.0,0.0,0.0,0.0,0.0,0.0,0.0,0.0,0.0,0.0,0.0,0.0,0.0,0.0,0.0,0.0,0.0,0.0,0.0,0.0,0.0,0.0,0.0,0.0,0.0,0.0,0.0,0.0,0.0,0.0,0.0,0.0,0.0,0.0,0.0,0.0,0.0,0.0,0.0,0.0,0.0,0.0,0.0,0.0,0.0,0.0,0.0,0.0,0.0,0.0,0.0,0.0,0.0,0.0,0.0,0.0,0.0,0.0,0.0,0.0,0.0,0.0,0.0,0.0,0.0,0.0,0.0,0.0,0.0,0.0,0.0,0.0,0.0,0.0,0.0,0.0,0.0,0.0,0.0,0.0,0.0,0.0,0.0,0.0,0.0,0.0,0.0,0.0,0.0,0.0,0.0,0.0,0.0,0.0,0.0,0.0,0.0,0.0,0.0,0.0,0.0,0.0,0.0,0.0,0.0,0.0,0.0,0.0,0.0,0.0,0.0,0.0,0.0,0.0,0.0,0.0,0.0,0.0,0.0,0.0,0.0,0.0,0.0,0.0,0.0,0.0,0.0,0.0,0.0,0.0,0.0,0.0,0.0,0.0,0.0,0.0,0.0,0.0,0.0,0.0,0.0,0.0,0.0,0.0,0.0,0.0,0.0,0.0,0.0,0.0,0.0,0.0,0.0,0.0,0.0,0.0,0.0,0.0,0.0,0.0,0.0,0.0,0.0,0.0,0.0,0.0,0.0,0.0,0.0,0.0,0.0,0.0,0.0,0.0,0.0,0.0,0.0,0.0,0.0,0.0,0.0,0.0,0.0,0.0,0.0,0.0,0.0,0.0,0.0,0.0,0.0,0.0,0.0,0.0,0.0,0.0,0.0,0.0,0.0,0.0,0.0,0.0,0.0,0.0,0.0,0.0,0.0,0.0,0.0,0.0,0.0,0.0,0.0,0.0,0.0,0.0,0.0,0.0,0.0,0.0,0.0,0.0,0.0,0.0,0.0,0.0,0.0,0.0,0.0,0.0,0.0,0.0,0.0,0.0,0.0,0.0,0.0,0.0,0.0,0.0,0.0,0.0,0.0,0.0,0.0,0.0,0.0,0.0,0.0,0.0,0.0,0.0,0.0,0.0,0.0,0.0,0.0,0.0,0.0,0.0,0.0,0.0,0.0,0.0,0.0,0.0,0.0,0.0,0.0,0.0,0.0,0.0,0.0,0.0,0.0,0.0,0.0,0.0,0.0,0.0,0.0,0.0,0.0,0.0,0.0,0.0,0.0,0.0,0.0,0.0,0.0,0.0,0.0,0.0,0.0,0.0,0.0,0.0,0.0,0.0,0.0,0.0,0.0,0.0,0.0,0.0,0.0,0.0,0.0,0.0,0.0,0.0,0.0,0.0,0.0,0.0,0.0,0.0,0.0,0.0,0.0,0.0,0.0,0.0,0.0,0.0,0.0,0.0,0.0,0.0,0.0,0.0,0.0,0.0,0.0,0.0,0.0,0.0,0.0,0.0,0.0,0.0,0.0,0.0,0.0,0.0,0.0,0.0,0.0,0.0,0.0,0.0,0.0,0.0,0.0,0.0,0.0,0.0,0.0,0.0,0.0,0.0,0.0,0.0,0.0,0.0,0.0,0.0,0.0,0.0,0.0,0.0,0.0,0.0,0.0,0.0,0.0,0.0,0.0,0.0,0.0,0.0,0.0,0.0,0.0,0.0,0.0,0.0,0.0,0.0,0.0,0.0,0.0,0.0,0.0,0.0,0.0,0.0,0.0,0.0,0.0,0.0,0.0,0.0,0.0,0.0,0.0,0.0,0.0,0.0,0.0,0.0,0.0,0.0,0.0,0.0,0.0,0.0,0.0,0.0,0.0,0.0,0.0,0.0,0.0,0.0,0.0,0.0,0.0,0.0,0.0,0.0,0.0,0.0,0.0,0.0,0.0,0.0,0.0,0.0,0.0,0.0,0.0,0.0,0.0,0.0,0.0,0.0,0.0,0.0,0.0,0.0,0.0,0.0,0.0,0.0,0.0,0.0,0.0,0.0,0.0,0.0,0.0,0.0,0.0,0.0,0.0,0.0,0.0,0.0,0.0,0.0,0.0,0.0,0.0,0.0,0.0,0.0,0.0,0.0,0.0,0.0,0.0,0.0,0.0,0.0,0.0,0.0,0.0,0.0,0.0,0.0,0.0,0.0,0.0,0.0,0.0,0.0,0.0,0.0,0.0,0.0,0.0,0.0,0.0,0.0,0.0,0.0,0.0,0.0,0.0,0.0,0.0,0.0,0.0,0.0,0.0,0.0,0.0,0.0,0.0,0.0,0.0,0.0,0.0,0.0,0.0,0.0,0.0,0.0,0.0,0.0,0.0,0.0,0.0,0.0,0.0,0.0,0.0,0.0,0.0,0.0,0.0,0.0,0.0,0.0,0.0,0.0,0.0,0.0,0.0,0.0,0.0,0.0,0.0,0.0,0.0,0.0,0.0,0.0,0.0,0.0,0.0,0.0,0.0,0.0,0.0,0.0,0.0,0.0,0.0,0.0,0.0,0.0,0.0,0.0,0.0,0.0,0.0,0.0,0.0,0.0,0.0,0.0,0.0,0.0,0.0,0.0,0.0,0.0,0.0,0.0,0.0,0.0,0.0,0.0,0.0,0.0,0.0,0.0,0.0,0.0,0.0,0.0,0.0,0.0,0.0,0.0,0.0,0.0,0.0,0.0,0.0,0.0,0.0,0.0,0.0,0.0,0.0,0.0,0.0,0.0,0.0,0.0,0.0,0.0,0.0,0.0,0.0,0.0,0.0,0.0,0.0,0.0,0.0,0.0,0.0,0.0,0.0,0.0,0.0,0.0,0.0,0.0,0.0,0.0,0.0,0.0,0.0,0.0,0.0,0.0,0.0,0.0,0.0,0.0,0.0,0.0,0.0,0.0,0.0,0.0,0.0,0.0,0.0,0.0,0.0,0.0,0.0,0.0,0.0,0.0,0.0,0.0,0.0,0.0,0.0,0.0,0.0,0.0,0.0,0.0,0.0,0.0,0.0,0.0,0.0,0.0,0.0,0.0,0.0,0.0,0.0,0.0,0.0,0.0,0.0,0.0,0.0,0.0,0.8787,0.0,0.0,0.0,0.0,0.0,0.0,0.0,0.0,0.0,0.0,0.0,0.0,0.0,0.0,0.0,0.0,0.0,0.0,0.0,0.0,0.0,0.0,0.0,0.0,0.0,0.0,0.0,0.0,0.0,0.0,0.0,0.0,0.0,0.0,0.0,0.0,0.0,0.0,0.0,0.0,0.0,0.0,0.0,0.0,0.0,0.0,0.0,0.0,0.0,0.0,0.0,0.0,0.0,0.0,0.0,0.0,0.0,0.0,0.0,0.0,0.0,0.0,0.0,0.0,0.0,0.0,0.0,0.0,0.0,0.0,0.0,0.0,0.0,0.0,0.0,0.0,0.0,0.0,0.0,0.0,0.0,0.0,0.0,0.0,0.0,0.0,0.0,0.0,0.0,0.0,0.0,0.0,0.0,0.0,0.0,0.0,0.0,0.0,0.0,0.0,0.0,0.0,0.0,0.0,0.0,0.0,0.0,0.0,0.0,0.0,0.8874,0.8837,0.8781,0.8748,0.8745,0.0,0.0,0.0,0.0,0.0,0.0,0.0,0.0,0.0,0.0,0.0,0.0,0.0,0.0,0.0,0.0,0.0,0.0,0.0,0.0,0.0,0.0,0.0,0.0,0.0,0.0,0.0,0.0,0.0,0.0,0.0,0.0,0.0,0.0,0.0,0.0,0.0,0.0,0.0,0.0,0.0,0.0,0.0,0.0,0.0,0.0,0.0,0.0,0.0,0.0,0.0,0.0,0.0,0.0,0.0,0.0,0.0,0.0,0.0,0.0,0.0,0.0,0.0,0.0,0.0,0.0,0.0,0.0,0.0,0.0,0.0,0.0,0.0,0.0,0.0,0.0,0.0,0.0,0.0,0.0,0.0,0.0,0.0,0.0,0.0,0.0,0.0,0.0,0.0,0.0,0.0,0.0,0.0,0.0,0.0,0.0,0.0,0.0,0.0,0.0,0.0,0.0,0.0,0.0,0.0,0.0,0.0,0.0,0.0,0.0,0.0,0.0,0.8968,0.8918,0.8931,0.0,0.0,0.0,0.0,0.0,0.0,0.0,0.0,0.0,0.0,0.0,0.0,0.0,0.0,0.0,0.0,0.0,0.0,0.0,0.0,0.0,0.0,0.0,0.0,0.0,0.0,0.0,0.0,0.0,0.0,0.0,0.0,0.0,0.0,0.0,0.0,0.0,0.0,0.0,0.0,0.0,0.0,0.0,0.0,0.0,0.0,0.0,0.0,0.0,0.0,0.0,0.0,0.0,0.0,0.0,0.0,0.0,0.0,0.0,0.0,0.0,0.0,0.0,0.0,0.0,0.0,0.0,0.0,0.0,0.0,0.0,0.0,0.0,0.0,0.0,0.0,0.0,0.0,0.0,0.0,0.0,0.0,0.0,0.0,0.0,0.0,0.0,0.0,0.0,0.0,0.0,0.0,0.0,0.0,0.0,0.0,0.0,0.0,0.0,0.0,0.0,0.0,0.0,0.0,0.0,0.0,0.0,0.0,0.0,0.0,0.9087,0.9689,0.9643,0.0,0.9626,0.0,0.0,0.0,0.0,0.0,0.0,0.0,0.0,0.0,0.0,0.0,0.0,0.0,0.0,0.0,0.0,0.0,0.0,0.0,0.0,0.0,0.0,0.0,0.0,0.0,0.0,0.0,0.0,0.0,0.0,0.0,0.0,0.0,0.0,0.0,0.0,0.0,0.0,0.0,0.0,0.0,0.0,0.0,0.0,0.0,0.0,0.0,0.0,0.0,0.0,0.0,0.0,0.0,0.0,0.0,0.0,0.0,0.0,0.0,0.0,0.0,0.0,0.0,0.0,0.0,0.0,0.0,0.0,0.0,0.0,0.0,0.0,0.0,0.0,0.0,0.0,0.0,0.0,0.0,0.0,0.0,0.0,0.0,0.0,0.0,0.0,0.0,0.0,0.0,0.0,0.0,0.0,0.0,0.0,0.0,0.0,0.0,0.0,0.0,0.0,0.0,0.0,0.0,0.0,0.0,0.0,0.0,0.0,0.0,0.0,0.0,0.9732,0.9705,0.967,0.0,0.0,0.0,0.0,0.0,0.0,0.0,0.0,0.0,0.0,0.0,0.0,0.0,0.0,0.0,0.0,0.0,0.0,0.0,0.0,0.0,0.0,0.0,0.0,0.0,0.0,0.0,0.0,0.0,0.0,0.0,0.0,0.0,0.0,0.0,0.0,0.0,0.0,0.0,0.0,0.0,0.0,0.0,0.0,0.0,0.0,0.0,0.0,0.0,0.0,0.0,0.0,0.0,0.0,0.0,0.0,0.0,0.0,0.0,0.0,0.0,0.0,0.0,0.0,0.0,0.0,0.0,0.0,0.0,0.0,0.0,0.0,0.0,0.0,0.0,0.0,0.0,0.0,0.0,0.0,0.0,0.0,0.0,0.0,0.0,0.0,0.0,0.0,0.0,0.0,0.0,0.0,0.0,0.0,0.0,0.0,0.0,0.0,0.0,0.0,0.0,0.0,0.0,0.0,0.0,0.0,0.0,0.0,0.0,0.0,0.952,0.0,0.9954,1.0006,0.9892,0.9631,0.0,0.0,0.0,0.0,0.0,0.0,0.0,0.0,0.0,0.0,0.0,0.0,0.0,0.0,0.0,0.0,0.0,0.0,0.0,0.0,0.0,0.0,0.0,0.0,0.0,0.0,0.0,0.0,0.0,0.0,0.0,0.0,0.0,0.0,0.0,0.0,0.0,0.0,0.0,0.0,0.0,0.0,0.0,0.0,0.0,0.0,0.0,0.0,0.0,0.0,0.0,0.0,0.0,0.0,0.0,0.0,0.0,0.0,0.0,0.0,0.0,0.0,0.0,0.0,0.0,0.0,0.0,0.0,0.0,0.0,0.0,0.0,0.0,0.0,0.0,0.0,0.0,0.0,0.0,0.0,0.0,0.0,0.0,0.0,0.0,0.0,0.0,0.0,0.0,0.0,0.0,0.0,0.0,0.0,0.0,0.0,0.0,0.0,0.0,0.0,0.0,0.0,0.0,0.0,0.0,0.0,0.0,0.0,0.0,0.9931,1.0007,1.0635,1.0769,1.0442,0.0,0.0,0.0,0.0,0.0,0.0,0.0,0.0,0.0,0.0,0.0,0.0,0.0,0.0,0.0,0.0,0.0,0.0,0.0,0.0,0.0,0.0,0.0,0.0,0.0,0.0,0.0,0.0,0.0,0.0,0.0,0.0,0.0,0.0,0.0,0.0,0.0,0.0,0.0,0.0,0.0,0.0,0.0,0.0,0.0,0.0,0.0,0.0,0.0,0.0,0.0,0.0,0.0,0.0,0.0,0.0,0.0,0.0,0.0,0.0,0.0,0.0,0.0,0.0,0.0,0.0,0.0,0.0,0.0,0.0,0.0,0.0,0.0,0.0,0.0,0.0,0.0,0.0,0.0,0.0,0.0,0.0,0.0,0.0,0.0,0.0,0.0,0.0,0.0,0.0,0.0,0.0,0.0,0.0,0.0,0.0,0.0,0.0,0.0,0.0,0.0,0.0,0.0,0.0,0.0,0.0,0.0,0.0,0.0,0.9125,0.9455,1.0182,0.0,1.0525,1.0156,0.0,0.0,0.0,0.0,0.0,0.0,0.0,0.0,0.0,0.0,0.0,0.0,0.0,0.0,0.0,0.0,0.0,0.0,0.0,0.0,0.0,0.0,0.0,0.0,0.0,0.0,0.0,0.0,0.0,0.0,0.0,0.0,0.0,0.0,0.0,0.0,0.0,0.0,0.0,0.0,0.0,0.0,0.0,0.0,0.0,0.0,0.0,0.0,0.0,0.0,0.0,0.0,0.0,0.0,0.0,0.0,0.0,0.0,0.0,0.0,0.0,0.0,0.0,0.0,0.0,0.0,0.0,0.0,0.0,0.0,0.0,0.0,0.0,0.0,0.0,0.0,0.0,0.0,0.0,0.0,0.0,0.0,0.0,0.0,0.0,0.0,0.0,0.0,0.0,0.0,0.0,0.0,0.0,0.0,0.0,0.0,0.0,0.0,0.0,0.0,0.0,0.0,0.0,0.0,0.0,0.0,0.0,0.0,0.0,0.8788,0.0,1.037,0.0,1.0342,0.9987,0.0,0.0,0.0,0.0,0.0,0.0,0.0,0.0,0.0,0.0,0.0,0.0,0.0,0.0,0.0,0.0,0.0,0.0,0.0,0.0,0.0,0.0,0.0,0.0,0.0,0.0,0.0,0.0,0.0,0.0,0.0,0.0,0.0,0.0,0.0,0.0,0.0,0.0,0.0,0.0,0.0,0.0,0.0,0.0,0.0,0.0,0.0,0.0,0.0,0.0,0.0,0.0,0.0,0.0,0.0,0.0,0.0,0.0,0.0,0.0,0.0,0.0,0.0,0.0,0.0,0.0,0.0,0.0,0.0,0.0,0.0,0.0,0.0,0.0,0.0,0.0,0.0,0.0,0.0,0.0,0.0,0.0,0.0,0.0,0.0,0.0,0.0,0.0,0.0,0.0,0.0,0.0,0.0,0.0,0.0,0.0,0.0,0.0,0.0,0.0,0.0,0.0,0.0,0.0,0.0,0.0,0.0,0.0,0.8619,0.9562,1.0496,1.0623,0.9713,1.0326,1.0015,0.0,0.0,0.0,0.0,0.0,0.0,0.0,0.0,0.0,0.0,0.0,0.0,0.0,0.0,0.0,0.0,0.0,0.0,0.0,0.0,0.0,0.0,0.0,0.0,0.0,0.0,0.0,0.0,0.0,0.0,0.0,0.0,0.0,0.0,0.0,0.0,0.0,0.0,0.0,0.0,0.0,0.0,0.0,0.0,0.0,0.0,0.0,0.0,0.0,0.0,0.0,0.0,0.0,0.0,0.0,0.0,0.0,0.0,0.0,0.0,0.0,0.0,0.0,0.0,0.0,0.0,0.0,0.0,0.0,0.0,0.0,0.0,0.0,0.0,0.0,0.0,0.0,0.0,0.0,0.0,0.0,0.0,0.0,0.0,0.0,0.0,0.0,0.0,0.0,0.0,0.0,0.0,0.0,0.0,0.0,0.0,0.0,0.0,0.0,0.0,0.0,0.0,0.0,0.0,0.0,0.0,0.0,0.0,0.0,0.8902,1.0653,1.1556,1.1382,1.0538,1.0403,0.0,0.0,0.0,0.0,0.0,0.0,0.0,0.0,0.0,0.0,0.0,0.0,0.0,0.0,0.0,0.0,0.0,0.0,0.0,0.0,0.0,0.0,0.0,0.0,0.0,0.0,0.0,0.0,0.0,0.0,0.0,0.0,0.0,0.0,0.0,0.0,0.0,0.0,0.0,0.0,0.0,0.0,0.0,0.0,0.0,0.0,0.0,0.0,0.0,0.0,0.0,0.0,0.0,0.0,0.0,0.0,0.0,0.0,0.0,0.0,0.0,0.0,0.0,0.0,0.0,0.0,0.0,0.0,0.0,0.0,0.0,0.0,0.0,0.0,0.0,0.0,0.0,0.0,0.0,0.0,0.0,0.0,0.0,0.0,0.0,0.0,0.0,0.0,0.0,0.0,0.0,0.0,0.0,0.0,0.0,0.0,0.0,0.0,0.0,0.0,0.0,0.0,0.0,0.0,0.0,0.0,0.0,0.0,0.0,1.086,1.2537,1.3267,1.2768,1.1701,1.1233,1.142,0.0,0.0,0.0,0.0,0.0,0.0,0.0,0.0,0.0,0.0,0.0,0.0,0.0,0.0,0.0,0.0,0.0,0.0,0.0,0.0,0.0,0.0,0.0,0.0,0.0,0.0,0.0,0.0,0.0,0.0,0.0,0.0,0.0,0.0,0.0,0.0,0.0,0.0,0.0,0.0,0.0,0.0,0.0,0.0,0.0,0.0,0.0,0.0,0.0,0.0,0.0,0.0,0.0,0.0,0.0,0.0,0.0,0.0,0.0,0.0,0.0,0.0,0.0,0.0,0.0,0.0,0.0,0.0,0.0,0.0,0.0,0.0,0.0,0.0,0.0,0.0,0.0,0.0,0.0,0.0,0.0,0.0,0.0,0.0,0.0,0.0,0.0,0.0,0.0,0.0,0.0,0.0,0.0,0.0,0.0,0.0,0.0,0.0,0.0,0.0,0.0,0.0,0.0,0.0,0.0,0.0,0.0,0.0,1.4785,1.6032,1.5861,1.4115,1.371,1.2542,0.0,0.0,0.0,0.0,0.0,0.0,0.0,0.0,0.0,0.0,0.0,0.0,0.0,0.0,0.0,0.0,0.0,0.0,0.0,0.0,0.0,0.0,0.0,0.0,0.0,0.0,0.0,0.0,0.0,0.0,0.0,0.0,0.0,0.0,0.0,0.0,0.0,0.0,0.0,0.0,0.0,0.0,0.0,0.0,0.0,0.0,0.0,0.0,0.0,0.0,0.0,0.0,0.0,0.0,0.0,0.0,0.0,0.0,0.0,0.0,0.0,0.0,0.0,0.0,0.0,0.0,0.0,0.0,0.0,0.0,0.0,0.0,0.0,0.0,0.0,0.0,0.0,0.0,0.0,0.0,0.0,0.0,0.0,0.0,0.0,0.0,0.0,0.0,0.0,0.0,0.0,0.0,0.0,0.0,0.0,0.0,0.0,0.0,0.0,0.0,0.0,0.0,0.0,0.0,0.0,0.0,0.0,0.0,0.0,1.8276,2.1024,2.0998,1.7933,1.6122,1.4684,0.0,0.0,0.0,0.0,0.0,0.0,0.0,0.0,0.0,0.0,0.0,0.0,0.0,0.0,0.0,0.0,0.0,0.0,0.0,0.0,0.0,0.0,0.0,0.0,0.0,0.0,0.0,0.0,0.0,0.0,0.0,0.0,0.0,0.0,0.0,0.0,0.0,0.0,0.0,0.0,0.0,0.0,0.0,0.0,0.0,0.0,0.0,0.0,0.0,0.0,0.0,0.0,0.0,0.0,0.0,0.0,0.0,0.0,0.0,0.0,0.0,0.0,0.0,0.0,0.0,0.0,0.0,0.0,0.0,0.0,0.0,0.0,0.0,0.0,0.0,0.0,0.0,0.0,0.0,0.0,0.0,0.0,0.0,0.0,0.0,0.0,0.0,0.0,0.0,0.0,0.0,0.0,0.0,0.0,0.0,0.0,0.0,0.0,0.0,0.0,0.0,0.0,0.0,0.0,0.0,0.0,0.0,0.0,1.8213,2.0596,2.3813,2.4467,2.2311,1.9415,1.6748,0.0,0.0,0.0,0.0,0.0,0.0,0.0,0.0,0.0,0.0,0.0,0.0,0.0,0.0,0.0,0.0,0.0,0.0,0.0,0.0,0.0,0.0,0.0,0.0,0.0,0.0,0.0,0.0,0.0,0.0,0.0,0.0,0.0,0.0,0.0,0.0,0.0,0.0,0.0,0.0,0.0,0.0,0.0,0.0,0.0,0.0,0.0,0.0,0.0,0.0,0.0,0.0,0.0,0.0,0.0,0.0,0.0,0.0,0.0,0.0,0.0,0.0,0.0,0.0,0.0,0.0,0.0,0.0,0.0,0.0,0.0,0.0,0.0,0.0,0.0,0.0,0.0,0.0,0.0,0.0,0.0,0.0,0.0,0.0,0.0,0.0,0.0,0.0,0.0,0.0,0.0,0.0,0.0,0.0,0.0,0.0,0.0,0.0,0.0,0.0,0.0,0.0,0.0,0.0,0.0,0.0,0.0,0.0,1.964,2.213,2.5187,2.6665,2.6358,2.2799,1.8738,0.0,0.0,0.0,0.0,0.0,0.0,0.0,0.0,0.0,0.0,0.0,0.0,0.0,0.0,0.0,0.0,0.0,0.0,0.0,0.0,0.0,0.0,0.0,0.0,0.0,0.0,0.0,0.0,0.0,0.0,0.0,0.0,0.0,0.0,0.0,0.0,0.0,0.0,0.0,0.0,0.0,0.0,0.0,0.0,0.0,0.0,0.0,0.0,0.0,0.0,0.0,0.0,0.0,0.0,0.0,0.0,0.0,0.0,0.0,0.0,0.0,0.0,0.0,0.0,0.0,0.0,0.0,0.0,0.0,0.0,0.0,0.0,0.0,0.0,0.0,0.0,0.0,0.0,0.0,0.0,0.0,0.0,0.0,0.0,0.0,0.0,0.0,0.0,0.0,0.0,0.0,0.0,0.0,0.0,0.0,0.0,0.0,0.0,0.0,0.0,0.0,0.0,0.0,0.0,0.0,0.0,0.0,0.0,2.005,2.3128,2.6239,2.7506,2.6727,2.3381,2.0204,0.0,0.0,0.0,0.0,0.0,0.0,0.0,0.0,0.0,0.0,0.0,0.0,0.0,0.0,0.0,0.0,0.0,0.0,0.0,0.0,0.0,0.0,0.0,0.0,0.0,0.0,0.0,0.0,0.0,0.0,0.0,0.0,0.0,0.0,0.0,0.0,0.0,0.0,0.0,0.0,0.0,0.0,0.0,0.0,0.0,0.0,0.0,0.0,0.8935,0.0,0.0,0.0,0.0,0.0,0.0,0.0,0.0,0.0,0.0,0.0,0.0,0.0,0.0,0.0,0.0,0.0,0.0,0.0,0.0,0.0,0.0,0.0,0.0,0.0,0.0,0.0,0.0,0.0,0.0,0.0,0.0,0.0,0.0,0.0,0.0,0.0,0.0,0.0,0.0,0.0,0.0,0.0,0.0,0.0,0.0,0.0,0.0,0.0,0.0,0.0,0.0,0.0,0.0,0.0,0.0,0.0,0.0,0.0,2.1331,2.4504,2.6947,2.7945,2.7312,2.4569,2.1569,0.0,0.0,0.0,0.0,0.0,0.0,0.0,0.0,0.0,0.0,0.0,0.0,0.0,0.0,0.0,0.0,0.0,0.0,0.0,0.0,0.0,0.0,0.0,0.0,0.0,0.0,0.0,0.0,0.0,0.0,0.0,0.0,0.0,0.0,0.0,0.0,0.0,0.0,0.0,0.0,0.0,0.0,0.0,0.0,0.0,0.0,0.0,0.0,0.0,0.0,0.0,0.0,0.0,0.0,0.0,0.0,0.0,0.0,0.0,0.0,0.0,0.0,0.0,0.0,0.0,0.0,0.0,0.0,0.0,0.0,0.0,0.0,0.0,0.0,0.0,0.0,0.0,0.0,0.0,0.0,0.0,0.0,0.0,0.0,0.0,0.0,0.0,0.0,0.0,0.0,0.0,0.0,0.0,0.0,0.0,0.0,0.0,0.0,0.0,0.0,0.0,0.0,0.0,0.0,0.0,0.0,0.0,1.9327,2.2435,2.5848,2.7426,2.8102,2.7972,2.5678,2.2664,1.8902,0.0,0.0,0.0,0.0,0.0,0.0,0.0,0.0,0.0,0.0,0.0,0.0,0.0,0.0,0.0,0.0,0.0,0.0,0.0,0.0,0.0,0.0,0.0,0.0,0.0,0.0,0.0,0.0,0.0,0.0,0.0,0.0,0.0,0.0,0.0,0.0,0.0,0.0,0.7222,0.82,0.0,0.0,0.0,0.0,0.0,0.0,0.0,0.0,1.0191,0.0,0.0,0.0,0.0,0.0,0.0,0.0,0.0,0.0,0.0,0.0,0.0,0.0,0.0,0.0,0.0,0.0,0.0,0.0,0.0,0.0,0.0,0.0,0.0,0.0,0.0,0.0,0.0,0.0,0.0,0.0,0.0,0.0,0.0,0.0,0.0,0.0,0.0,0.0,0.0,0.0,0.0,0.0,0.0,0.0,0.0,0.0,0.0,0.0,0.0,0.0,0.0,0.0,0.0,0.0,0.0,1.8106,1.8788,2.1588,2.6646,2.7619,2.8011,2.7929,2.5516,2.2961,2.0353,0.0,0.0,0.0,0.0,0.0,0.0,0.0,0.0,0.0,0.0,0.0,0.0,0.0,0.0,0.0,0.0,0.0,0.0,0.0,0.0,0.0,0.0,0.0,0.0,0.0,0.0,0.0,0.0,0.0,0.0,0.0,0.0,0.0,0.0,0.0,0.0,0.0,0.0,0.0,1.0498,1.1522,0.0,0.0,0.0,0.0,0.0,0.0,0.0,0.0,1.1349,0.0,0.0,0.0,0.0,0.0,0.0,0.0,0.0,0.0,0.0,0.0,0.0,0.0,0.0,0.0,0.0,0.0,0.0,0.0,0.0,0.0,0.0,0.0,0.0,0.0,0.0,0.0,0.0,0.0,0.0,0.0,0.0,0.0,0.0,0.0,0.0,0.0,0.0,0.0,0.0,0.0,0.0,0.0,0.0,0.0,0.0,0.0,0.0,0.0,0.0,0.0,0.0,0.0,0.0,0.0,1.8463,2.0324,2.3318,2.7606,2.8063,2.8253,2.8295,2.5485,2.2975,0.0,0.0,0.0,0.0,0.0,0.0,0.0,0.0,0.0,0.0,0.0,0.0,0.0,0.0,0.0,0.0,0.0,0.0,0.0,0.0,0.0,0.0,0.0,0.0,0.0,0.0,0.0,0.0,0.0,0.0,0.0,0.0,0.0,0.0,0.0,0.0,0.0,0.0,0.0,0.0,1.1489,1.2346,1.4012,0.0,0.0,0.0,0.0,0.0,0.0,1.3671,1.284,0.0,0.0,0.0,0.0,0.0,0.0,0.0,0.0,0.0,0.0,0.0,0.0,0.0,0.0,0.0,0.0,0.0,0.0,0.0,0.0,0.0,0.0,0.0,0.0,0.0,0.0,0.0,0.0,0.0,0.0,0.0,0.0,0.0,0.0,0.0,0.0,0.0,0.0,0.0,0.0,0.0,0.0,0.0,0.0,0.0,0.0,0.0,0.0,0.0,0.0,0.0,0.0,0.0,0.0,0.0,1.873,2.179,2.5044,2.8369,2.8484,2.8492,2.859,2.5457,2.282,0.0,0.0,0.0,0.0,0.0,0.0,0.0,0.0,0.0,0.0,0.0,0.0,0.0,0.0,0.0,0.0,0.0,0.0,0.0,0.0,0.0,0.0,0.0,0.0,0.0,0.0,0.0,0.0,0.0,0.0,0.0,0.0,0.0,0.0,0.0,0.0,0.0,0.0,0.0,0.0,0.0,1.352,1.5313,1.4673,0.0,0.0,0.0,0.0,1.591,1.5595,0.0,0.0,0.0,0.0,0.0,0.0,0.0,0.0,0.0,0.0,0.0,0.0,0.0,0.0,0.0,0.0,0.0,0.0,0.0,0.0,0.0,0.0,0.0,0.0,0.0,0.0,0.0,0.0,0.0,0.0,0.0,0.0,0.0,0.0,0.0,0.0,0.0,0.0,0.0,0.0,0.0,0.0,0.0,0.0,0.0,0.0,0.0,0.0,0.0,0.0,0.0,0.0,0.0,0.0,0.0,0.0,1.8888,2.1552,2.4785,2.853,2.8596,2.8502,2.8482,2.5266,2.2378,0.0,0.0,0.0,0.0,0.0,0.0,0.0,0.0,0.0,0.0,0.0,0.0,0.0,0.0,0.0,0.0,0.0,0.0,0.0,0.0,0.0,0.0,0.0,0.0,0.0,0.0,0.0,0.0,0.0,0.0,0.0,0.0,0.0,0.0,0.0,0.0,0.0,0.0,0.0,0.0,0.0,1.6246,1.6802,1.6149,1.5827,0.0,0.0,1.7136,1.8506,1.8668,0.0,0.0,0.0,0.0,0.0,0.0,0.0,0.0,0.0,0.0,0.0,0.0,0.0,0.0,0.0,0.0,0.0,0.0,0.0,0.0,0.0,0.0,0.0,0.0,0.0,0.0,0.0,0.0,0.0,0.0,0.0,0.0,0.0,0.0,0.0,0.0,0.0,0.0,0.0,0.0,0.0,0.0,0.0,0.0,0.0,0.0,0.0,0.0,0.0,0.0,0.0,0.0,0.0,0.0,0.0,1.6381,1.9141,2.2901,2.6189,2.8847,2.8838,2.8815,2.8874,2.5202,2.2213,0.0,0.0,0.0,0.0,0.0,0.0,0.0,0.0,0.0,0.0,0.0,0.0,0.0,0.0,0.0,0.0,0.0,0.0,0.0,0.0,0.0,0.0,0.0,0.0,0.0,0.0,0.0,0.0,0.0,0.0,0.0,0.0,0.0,0.0,0.0,0.0,0.0,0.0,0.0,0.0,0.0,0.0,1.8031,1.8007,0.0,0.0,0.0,1.8738,1.8844,0.0,0.0,0.0,0.0,0.0,0.0,0.0,0.0,0.0,0.0,0.0,0.0,0.0,0.0,0.0,0.0,0.0,0.0,0.0,0.0,0.0,0.0,0.0,0.0,0.0,0.0,0.0,0.0,0.0,0.0,0.0,0.0,0.0,0.0,0.0,0.0,0.0,0.0,0.0,0.0,0.0,0.0,0.0,0.0,0.0,0.0,0.0,0.0,0.0,0.0,0.0,0.0,0.0,0.0,0.0,0.0,0.0,1.962,2.4169,2.7379,2.9101,2.9112,2.9112,2.9134,2.558,0.0,0.0,0.0,0.0,0.0,0.0,0.0,0.0,0.0,0.0,0.0,0.0,0.0,0.0,0.0,0.0,0.0,0.0,0.0,0.0,0.0,0.0,0.0,0.0,0.0,0.0,0.0,0.7067,0.0,0.0,0.0,0.0,0.0,0.0,0.0,0.0,0.0,0.0,0.0,0.0,0.0,0.0,1.7431,1.9202,1.9511,1.977,0.0,0.0,2.003,1.9685,2.0586,1.9987,0.0,0.0,0.0,0.0,0.0,0.0,0.0,0.0,0.0,0.0,0.0,0.0,0.0,0.0,0.0,0.0,0.0,0.0,0.0,0.0,0.0,0.0,0.0,0.0,0.0,0.0,0.0,0.0,0.0,0.0,0.0,0.0,0.0,0.0,0.0,0.0,0.0,0.0,0.0,0.0,0.0,0.0,0.0,0.0,0.0,0.0,0.0,0.0,0.0,0.0,0.0,0.0,0.0,0.0,0.0,2.0651,2.4735,2.7681,2.9307,2.9304,2.9269,2.9157,2.6687,2.3396,0.0,0.0,0.0,0.0,0.0,0.0,0.0,0.0,0.0,0.0,0.0,0.0,0.0,0.0,0.0,0.0,0.0,0.0,0.0,0.0,0.0,0.0,0.0,0.0,0.0,0.0,0.0,0.0,0.0,0.0,0.0,0.0,0.0,0.0,0.0,0.0,0.0,0.0,0.0,0.0,0.0,1.9259,2.0265,2.0298,2.0804,0.0,0.0,2.0784,2.2198,2.2951,2.2053,1.8043,0.0,0.0,0.0,0.0,0.0,0.0,0.0,0.0,0.0,0.0,0.0,0.0,0.0,0.0,0.0,0.0,0.0,0.0,0.0,0.0,0.0,0.0,0.0,0.0,0.0,0.0,0.0,0.0,0.0,0.0,0.0,0.0,0.0,0.0,0.0,0.0,0.0,0.0,0.0,0.0,0.0,0.0,0.0,0.0,0.0,0.0,0.0,0.0,0.0,0.0,0.0,0.0,0.0,1.8771,2.0786,2.5291,2.8212,2.9327,2.9381,2.9304,2.9213,2.6833,2.3796,0.0,0.0,0.0,0.0,0.0,0.0,0.0,0.0,0.0,0.0,0.0,0.0,0.0,0.0,0.0,0.0,0.0,0.0,0.0,0.0,0.0,0.0,0.0,0.0,0.0,0.0,0.0,0.0,0.9448,0.9431,0.8963,0.0,0.0,0.0,0.0,0.0,0.0,0.0,0.0,0.0,0.0,2.0127,2.2284,2.2951,0.0,0.0,2.3607,2.3132,2.2914,2.2692,2.1467,1.8295,1.7056,0.0,0.0,0.0,0.0,0.0,0.0,0.0,0.0,0.0,0.0,0.0,0.0,0.0,0.0,0.0,0.0,0.0,0.0,0.0,0.0,0.0,0.0,0.0,0.0,0.0,0.0,0.0,0.0,0.0,0.0,0.0,0.0,0.0,0.0,0.0,0.0,0.0,0.0,0.0,0.0,0.0,0.0,0.0,0.0,0.0,0.0,0.0,0.0,0.0,0.0,0.0,0.0,1.924,2.1146,2.5794,2.8599,2.9456,2.9487,2.9472,2.9328,2.747,2.4867,0.0,0.0,0.0,0.0,0.0,0.0,0.0,0.0,0.0,0.0,0.0,0.0,0.0,0.0,0.0,0.0,0.0,0.0,0.0,0.0,0.0,0.0,0.0,0.0,0.0,0.0,0.0,0.0,0.9649,0.9589,0.9086,0.0,0.0,0.0,0.0,0.0,0.0,0.0,0.0,0.0,0.0,2.1333,2.3178,2.4083,2.445,2.4151,2.3932,2.3542,2.2728,2.2199,2.1143,1.9071,0.0,0.0,0.0,0.0,0.0,0.0,0.0,0.0,0.0,0.0,0.0,0.0,0.0,0.0,0.0,0.0,0.0,0.0,0.0,0.0,0.0,0.0,0.0,0.0,0.0,0.0,0.0,1.0429,0.0,0.0,0.9317,0.0,0.0,0.0,0.0,0.0,0.0,0.0,0.0,0.0,0.0,0.0,0.0,0.0,0.0,0.0,0.0,0.0,0.0,0.0,0.0,0.0,0.0,1.9549,2.1981,2.6228,2.8781,2.9565,2.9724,2.9784,2.9742,2.8848,2.681,2.3551,0.0,0.0,0.0,0.0,0.0,0.0,0.0,0.0,0.0,0.0,0.0,0.0,0.0,0.0,0.0,0.0,0.0,0.0,0.0,0.0,0.0,0.0,0.0,0.0,0.0,0.0,0.8274,0.886,0.931,0.0,0.0,0.0,0.0,0.0,0.0,0.0,0.0,0.0,0.0,2.1162,2.3068,2.249,2.3059,2.3354,2.2391,2.1673,2.133,2.1789,2.1803,2.1542,0.0,0.0,0.0,0.0,0.0,0.0,0.0,0.0,0.0,0.0,0.0,0.0,0.0,0.0,0.0,0.0,0.0,0.0,0.0,0.0,0.0,0.0,0.0,0.0,0.0,0.0,0.0,1.3632,1.3157,0.0,0.0,0.0,0.0,0.0,0.0,0.0,0.0,0.0,0.0,0.0,2.233,2.3283,0.0,0.0,0.0,0.0,0.0,0.0,0.0,0.0,0.0,0.0,0.0,0.0,2.1105,2.3105,2.7215,2.9528,2.9784,2.9849,2.9838,2.9786,2.895,2.6657,2.2855,0.0,0.0,0.0,0.0,0.0,0.0,0.0,0.0,0.0,0.0,0.0,0.0,0.0,0.0,0.0,0.0,0.0,0.0,0.0,0.0,0.0,0.0,0.0,0.0,0.0,0.9099,0.0,0.0,0.0,0.0,0.0,0.0,0.0,0.0,0.0,0.0,0.0,1.9274,2.0838,2.2057,2.3209,2.4285,2.4818,2.5299,0.0,0.0,0.0,0.0,0.0,0.0,0.0,0.0,0.0,0.0,0.0,0.0,0.0,0.0,2.2141,1.7799,1.725,1.7406,1.7263,0.0,0.0,0.0,0.0,0.0,0.0,0.0,0.0,0.0,0.0,0.0,0.0,0.0,0.0,1.7903,0.0,1.6495,0.0,0.0,0.0,0.0,0.0,0.0,0.0,0.0,2.3787,2.5723,2.6842,2.7752,2.8001,0.0,2.6003,2.2784,0.0,0.0,0.0,0.0,0.0,0.0,0.0,0.0,2.2379,2.4066,2.7933,2.9962,2.9966,3.0038,3.0049,3.0,2.9144,2.7117,2.3789,2.0739,1.7917,0.0,0.0,0.0,0.0,0.0,0.0,0.0,0.0,0.0,0.0,0.0,0.0,0.0,0.0,0.0,0.0,0.0,0.0,0.0,0.0,0.0,0.0,0.0,0.9641,0.0,0.0,0.0,0.0,0.0,0.0,0.0,0.0,0.0,1.8863,1.9908,2.126,2.3088,2.3802,2.4424,2.5147,0.0,0.0,0.0,0.0,0.0,0.0,0.0,2.3519,2.3194,2.3123,2.3551,2.4931,2.6083,2.6744,2.6639,0.0,0.0,2.1967,2.1335,2.1569,2.1665,2.2086,2.2459,2.2533,2.3144,2.3675,0.0,0.0,0.0,0.0,0.0,0.0,0.0,0.0,2.2981,2.3062,0.0,2.0546,0.0,0.0,0.0,0.0,0.0,2.3045,0.0,0.0,3.023,3.187,3.0624,3.1403,3.138,3.0608,3.0495,2.9165,2.651,2.1709,0.0,0.0,0.0,0.0,0.0,0.0,2.3423,2.5117,2.8479,3.0192,3.0176,3.0337,3.0436,3.0373,2.948,2.8167,2.6384,2.3892,2.1338,1.8695,1.5425,0.0,0.0,0.0,0.0,0.0,0.0,0.0,0.0,0.0,0.0,0.0,0.0,0.0,0.0,0.0,0.0,0.0,0.0,0.0,0.0,0.9847,0.0,0.0,0.0,0.0,0.0,0.0,0.0,0.0,0.0,0.0,2.2129,2.2495,2.3235,2.4736,0.0,0.0,0.0,0.0,2.6488,2.4253,2.3798,2.3778,2.3676,2.4814,2.5963,2.6578,0.0,0.0,2.8935,2.8366,2.7982,2.7571,2.8764,2.9122,2.7953,2.7005,2.6672,2.7081,2.6982,2.7097,2.7524,2.797,2.8503,3.0045,0.0,0.0,0.0,0.0,2.4856,2.6705,2.995,2.8541,2.7762,2.7414,2.5862,0.0,0.0,0.0,0.0,0.0,0.0,2.7034,2.8967,3.1084,3.2508,3.3348,3.4175,3.4422,3.417,3.3598,3.2938,3.2118,2.9472,2.5162,1.9409,0.0,0.0,0.0,0.0,2.6156,2.7893,3.0644,3.1834,3.1258,3.1292,3.102,3.034,2.9475,2.8731,2.8168,2.5748,2.3484,2.1417,1.8672,0.0,0.0,0.0,0.0,0.0,0.0,0.0,0.0,0.0,0.0,0.0,0.0,0.0,0.0,0.0,0.0,0.0,0.0,0.0,1.0547,1.0788,1.1562,0.0,0.0,0.0,0.0,0.0,0.0,0.0,0.0,0.0,2.5825,2.5018,2.4677,0.0,0.0,2.5632,2.5638,2.6767,2.7651,2.7903,2.8412,0.0,2.8684,2.8557,2.8612,2.9079,3.0874,3.2162,3.1951,3.2574,3.309,3.295,3.3377,3.3584,3.3123,3.1201,3.0022,3.0528,3.0615,3.0566,3.0727,3.1283,3.1765,3.7045,3.2294,2.9063,2.8637,3.0035,2.9914,3.1546,3.4247,3.3305,3.2808,3.2549,3.0696,2.9281,2.8199,2.7192,0.0,0.0,0.0,3.0153,3.206,3.2928,3.3934,3.4987,3.5488,3.5715,3.5678,3.5199,3.497,3.4952,3.3253,2.9825,2.4859,0.0,0.0,2.3818,2.6676,2.8821,3.0179,3.2011,3.2741,3.2257,3.1899,3.1248,3.0334,2.9781,2.934,2.8941,2.7478,2.5703,2.3661,2.1418,1.8816,0.0,0.0,0.0,0.0,0.0,0.0,0.0,0.0,0.0,0.0,0.0,1.2317,1.0873,0.0,0.0,0.0,1.2608,1.2934,1.355,1.3846,0.0,0.0,0.0,0.0,0.0,0.0,0.0,2.2609,2.5595,2.7834,2.8349,2.8066,2.8062,2.8719,2.8161,2.7852,2.825,0.0,2.9937,3.0462,3.092,3.1201,3.1172,3.1219,3.1533,3.2295,3.3343,3.4127,3.4183,3.4886,3.5379,3.5457,3.5733,3.5897,3.5543,3.4426,3.3568,3.3554,3.342,3.3337,3.3363,3.376,3.4079,4.3068,4.1762,3.6617,3.453,3.4727,3.557,3.6488,3.7395,3.74,3.7866,3.8328,3.5229,3.3778,3.3564,3.1258,0.0,3.1382,3.2914,3.3978,3.4754,3.5547,3.5877,3.5836,3.5897,3.5897,3.5821,3.5817,3.5795,3.5642,3.416,3.2981,3.2112,3.0589,2.9658,2.9355,3.02,3.1087,3.1898,3.2697,3.3144,3.3175,3.2221,3.1269,3.0422,3.0327,2.989,2.9037,2.888,2.7717,2.5418,2.3587,2.1486,1.9,0.0,0.0,0.0,0.0,0.0,0.0,0.0,0.0,0.0,0.0,0.0,0.0,0.0,0.0,0.0,1.6595,0.0,1.8132,1.8303,0.0,0.0,0.0,2.2328,2.6197,2.7311,2.7568,2.6975,0.0,0.0,3.0162,3.1412,3.2591,3.3202,3.2482,3.1893,3.1864,3.2442,3.2769,3.2092,3.2045,3.2128,3.2529,3.3408,3.455,3.5595,3.5887,3.5808,3.578,3.5819,3.5802,3.5859,3.6417,3.6751,3.6034,3.6966,3.7548,3.6219,3.5729,3.5523,3.5684,3.5667,3.5734,4.4489,4.2991,4.1636,4.0744,4.02,4.0419,4.1017,4.1786,4.1172,4.1008,4.1086,3.9697,3.871,3.8062,3.7442,3.6935,3.6526,3.6948,3.6907,3.6556,3.7466,3.7562,3.6977,3.7581,3.7563,3.6938,3.6929,3.6572,3.5926,3.5539,3.4897,3.4061,3.3635,3.1737,2.858,2.9889,3.1047,3.1896,3.2739,3.3451,3.3949,3.2496,3.1557,3.1293,3.0608,2.9841,2.9034,2.8329,2.7396,2.616,2.4497,2.2708,2.0833,1.7475,0.0,0.0,0.0,0.0,0.0,0.0,0.0,0.0,0.0,1.5562,1.2443,0.0,1.6711,0.0,1.8987,2.1052,2.2285,2.2008,0.0,0.0,2.4542,2.5442,2.8946,3.054,3.0668,2.8877,3.1723,3.3684,3.3205,3.4037,3.5154,3.6328,3.4384,3.2658,3.2362,3.3448,3.4097,3.3769,3.4458,3.5401,3.5949,3.6769,3.7322,3.7661,3.7586,3.7511,3.7511,3.7406,3.7352,3.7364,3.7499,3.7852,3.8458,3.8584,3.8728,3.9073,3.8251,3.7394,3.7757,3.7373,3.7081,4.673,4.5847,4.5854,4.4893,4.3353,4.2935,4.3033,4.3452,4.3018,4.2814,4.2747,4.1932,4.1076,4.0274,4.0274,4.0001,3.9556,3.9585,3.934,3.8911,3.9466,3.926,3.844,3.8908,3.8694,3.7895,3.787,3.7438,3.6617,3.6578,3.613,3.531,3.5271,3.3657,3.0634,3.1366,3.1908,3.2002,3.2824,3.3612,3.4315,3.3436,3.237,3.1141,3.064,2.9753,2.8482,2.7648,2.6799,2.5895,2.4606,2.3133,2.1452,1.8847,1.6798,0.0,0.0,0.0,0.0,0.0,0.0,0.0,0.0,0.0,0.0,0.0,1.9911,2.0134,2.2818,2.486,2.5565,2.6046,2.7147,2.9136,2.9265,3.0387,3.3364,3.4442,3.4621,3.3784,3.547,3.6611,3.6441,3.6796,3.7363,3.819,3.6801,3.5473,3.492,3.5474,3.5897,3.5698,3.6315,3.7103,3.7912,3.8555,3.8838,3.8498,3.8604,3.8653,3.8309,3.8473,3.8665,3.8665,3.8924,3.9217,3.958,3.9927,4.0333,4.0878,4.0424,3.9517,3.8984,3.8557,3.8388,4.8979,4.89,4.8881,4.7592,4.5443,4.4623,4.3919,4.3282,4.3238,4.3322,4.3509,4.3079,4.2415,4.1616,4.1596,4.1539,4.1443,4.1443,4.1367,4.1255,4.1373,4.0945,4.0108,4.0206,3.9854,3.9093,3.9089,3.8578,3.762,3.7616,3.7066,3.605,3.6011,3.5192,3.3631,3.3573,3.3085,3.2129,3.3013,3.3766,3.431,3.4036,3.273,3.0472,3.0296,2.9367,2.7502,2.689,2.6123,2.5124,2.4424,2.3424,2.1945,2.0161,1.8886,0.0,1.6576,0.0,0.0,0.0,0.0,0.0,0.0,0.0,0.0,2.2648,2.3426,2.5083,2.7337,2.8754,2.8931,3.0443,3.1955,3.3317,3.4203,3.5559,3.7615,3.7993,3.8328,3.9027,3.9101,3.9082,3.899,3.9101,3.9073,3.8949,3.8816,3.836,3.7898,3.7603,3.7506,3.7551,3.7593,3.7872,3.8528,3.9323,3.9605,3.8941,3.9126,3.9333,3.8713,3.9094,3.9567,3.9727,4.0027,4.0284,3.9933,4.0916,4.1751,4.2143,4.1925,4.1336,4.0172,3.9636,3.9653,4.955,4.8904,4.8886,4.8613,4.8144,4.7968,4.5483,4.1528,4.0903,4.1387,4.2767,4.4719,4.5069,4.4288,4.4269,4.3883,4.3207,4.3207,4.2808,4.2107,4.2807,4.2638,4.1824,4.2468,4.2396,4.1624,4.1596,4.082,3.9336,3.9324,3.8179,3.605,3.6011,3.5485,3.451,0.0,0.0,0.0,3.3647,3.4151,3.3475,3.1448,3.0107,2.9532,2.8834,0.0,2.5982,2.6373,2.5938,2.4446,2.4816,0.0,0.0,0.0,0.0,0.0,0.0,0.0,0.0,0.0,0.0,0.0,2.4833,2.4475,2.4272,2.5022,2.6964,3.033,3.1331,3.2696,3.495,3.5386,3.5671,3.5987,3.6711,3.7399,3.7882,3.8476,3.8934,3.9064,3.9101,3.9101,3.9101,3.9101,3.9113,3.9117,3.9092,3.8996,3.8796,3.8388,3.798,3.7685,3.8065,3.8427,3.8591,3.9818,4.0368,3.9815,3.9542,3.9556,3.9406,3.9372,3.9719,4.0238,3.9982,4.0043,4.0808,4.123,4.1647,4.1987,4.2475,4.2628,4.1934,4.1194,4.0806,5.044,5.0033,5.0048,4.9304,0.0,4.8111,4.5889,4.2383,4.375,4.4815,4.567,4.6519,4.6638,4.6149,4.4433,4.3418,4.2969,4.2148,4.1972,4.235,4.3206,4.3562,4.3533,4.4002,4.3752,4.2957,4.2946,4.2291,4.1065,4.0644,3.9566,3.7906,3.7466,3.7068,3.6638,3.7029,3.6384,3.4666,3.4686,3.4874,3.5187,3.3548,3.2201,3.1308,3.0469,0.0,0.0,0.0,0.0,0.0,0.0,0.0,0.0,0.0,0.0,2.5302,2.4536,2.4617,2.5924,2.7037,2.8244,2.9591,3.0347,2.9987,2.8256,3.0052,3.2104,3.4067,3.4721,3.5585,3.6929,3.7327,3.7468,3.7441,3.8059,3.8495,3.8544,3.8848,3.9082,3.9101,3.9101,3.9101,3.9101,3.9517,3.9721,3.977,4.0111,4.0294,4.0181,3.9294,3.8496,3.8257,3.8961,3.9427,3.9334,3.9937,4.0516,4.0003,4.0131,4.0149,3.9797,4.0041,4.0383,4.0761,4.0806,4.1097,4.1624,4.2096,4.245,4.2684,4.3004,4.3169,4.291,4.2377,4.201,5.1337,5.1201,5.1201,4.9968,4.7991,4.7971,4.6795,4.5026,0.0,0.0,0.0,4.7826,4.7703,4.7492,4.4703,4.3347,4.3099,4.1757,4.1811,4.2969,4.3692,4.4386,4.5071,4.5072,4.4722,4.4041,4.403,4.3587,4.2749,4.2079,4.1169,4.0037,3.9334,3.8935,3.8872,3.9627,3.9351,3.7946,3.6131,3.5701,3.6794,3.5837,3.4519,3.2894,3.2216,3.1072,2.9395,2.8226,2.746,2.7192,2.6711,2.6741,2.7352,2.7417,2.7801,2.8617,2.8823,2.926,3.012,3.1521,3.2668,3.3333,3.4757,3.4726,3.264,3.4971,3.6628,3.685,3.7565,3.7918,3.7805,3.8237,3.8536,3.842,3.8907,3.9213,3.9246,3.9207,3.9295,3.942,3.9528,3.9524,3.9713,4.0272,4.0677,4.0701,4.1077,4.1597,4.1434,4.0381,3.9497,3.9444,3.9685,3.9974,4.0213,4.0317,4.0341,4.028,4.0694,4.0828,4.0414,4.0663,4.1103,4.1341,4.1801,4.2014,4.2269,4.2711,4.3267,4.3267,4.3345,4.3403,4.3376,4.316,4.2912,5.1879,5.1201,5.1201,5.0987,5.0654,5.0654,5.0437,4.9913,4.7506,4.6042,4.5504,4.7553,4.8431,4.8434,4.7991,4.7361,4.66,4.6398,4.6032,4.5485,4.5598,4.5699,4.5761,4.5745,4.5731,4.5662,4.5704,4.5294,4.4509,4.4368,4.3178,4.109,4.0703,4.0325,3.9765,4.0476,4.0796,4.0523,3.8161,3.6346,3.5076,3.3476,3.2186,3.1226,3.1111,3.0543,2.9594,3.0006,2.9882,2.9177,2.9703,3.0089,3.0128,3.018,3.0553,3.1308,3.2043,3.2864,3.3754,3.4543,3.5041,3.5256,3.6241,3.6552,3.5989,3.6576,3.7459,3.8583,3.9323,3.9797,3.9719,3.9656,3.9613,3.9596,3.9607,3.9656,3.9735,3.9715,3.994,4.0702,4.0859,4.1014,4.138,4.1647,4.1652,4.151,4.1705,4.1672,4.1694,4.1356,4.1126,4.0849,3.9797,3.9718,4.0709,4.1072,4.1076,4.1025,4.105,4.1065,4.0907,4.0999,4.1322,4.1974,4.1707,4.1662,4.2158,4.2359,4.2625,4.2671,4.3043,4.3394,4.3412,4.326,4.3151,5.2809,5.2463,5.2443,5.2443,5.2405,5.1939,5.1456,5.0909,4.937,4.8516,4.8339,4.8989,4.9251,4.9082,4.7348,4.6301,4.5846,4.498,4.4608,4.4681,4.5138,4.5556,4.5943,4.5966,4.5958,4.5983,4.6022,4.5842,4.5447,4.5051,4.4223,4.3053,4.2164,4.1288,4.054,4.0878,4.1108,4.1069,3.9476,3.8277,3.7458,3.5779,3.4725,3.4334,3.3436,3.2752,3.2381,3.2262,3.204,3.1634,3.1984,3.2397,3.2785,3.2859,3.321,3.401,3.4448,3.4857,3.5284,3.597,3.6373,3.6451,3.7277,3.7938,3.8221,3.8374,3.8707,3.9294,4.0056,4.0454,4.034,4.0227,4.0119,4.0001,3.9896,3.9844,3.9944,4.0316,4.0702,4.1151,4.1607,4.1936,4.2184,4.2505,4.2658,4.2511,4.2678,4.2879,4.2872,4.286,4.2491,4.1607,4.0766,4.0632,4.1334,4.2192,4.2216,4.152,4.1288,4.1256,4.1256,4.1285,4.1417,4.1652,4.1691,4.1932,4.2294,4.2671,4.2882,4.2983,4.316,4.3427,4.3455,4.3402,4.3322,5.3672,5.3498,5.3498,5.3498,5.3424,5.2573,5.18,5.1192,5.0983,5.0998,5.1018,5.0348,5.0046,4.9767,4.7275,4.6028,4.5659,4.4494,4.4178,4.4661,4.5329,4.5892,4.6252,4.6297,4.6183,4.6011,4.5989,4.5982,4.5912,4.5369,4.497,4.4629,4.3132,4.195,4.1292,4.1145,4.1073,4.1034,4.0425,4.0002,3.978,3.8512,3.7692,3.7223,3.5994,3.5193,3.4979,3.4353,3.3976,3.4003,3.398,3.4262,3.4845,3.4899,3.5189,3.5812,3.5889,3.5988,3.622,3.694,3.7431,3.7431,3.8225,3.898,3.9548,3.9825,3.9873,3.9901,4.0415,4.072,4.0582,4.0523,4.0495,4.0492,4.0213,4.0301,4.0663,4.1094,4.1542,4.1872,4.2532,4.2985,4.3104,4.3464,4.3656,4.3565,4.384,4.4057,4.4028,4.3997,4.338,4.2551,4.211,4.2121,4.2088,4.3016,4.3246,4.2086,4.1999,4.2068,4.206,4.1994,4.1942,4.2036,4.2359,4.265,4.2685,4.3054,4.3395,4.3441,4.3461,4.3479,4.3497,4.3497,4.3463,5.4233,5.354,5.3551,5.3498,5.3444,5.2612,5.2186,5.195,5.1254,5.091,5.092,5.0832,5.0778,5.0778,5.0421,4.9794,4.9129,4.9049,4.8566,4.7966,4.8105,4.7827,4.7214,4.7165,4.6771,4.611,4.6016,4.5982,4.5982,4.5896,4.5509,4.4701,4.3126,4.2304,4.2099,4.1426,4.1035,4.1016,4.0994,4.0602,3.984,3.9643,3.8843,3.734,3.7165,3.6696,3.5973,3.5797,3.5754,3.5765,3.5717,3.5726,3.5772,3.578,3.5812,3.591,3.5929,3.6221,3.7038,3.7873,3.8357,3.8437,3.9172,3.9682,3.9766,4.0412,4.0835,4.0801,4.0811,4.0793,4.0765,4.0761,4.1019,4.1549,4.0965,4.1092,4.2424,4.2229,4.2355,4.4041,4.4129,4.4485,4.4772,4.4917,4.4792,4.4275,4.4298,4.4378,4.4278,4.4224,4.4243,4.3903,4.3797,4.3734,4.3677,4.3736,4.3738,4.3548,4.3547,4.3412,4.3338,4.3385,4.3537,4.3102,4.3418,4.3478,4.344,4.3582,4.3546,4.3549,4.3513,4.3513,4.3496,4.3548,4.3556,5.5066,5.4733,5.4738,5.4557,5.4228,5.3889,5.3153,5.2167,5.1819,5.1385,5.0937,5.0898,5.0898,5.0902,5.0967,5.0785,5.048,5.052,5.0072,4.932,4.9249,4.8836,4.804,4.7506,4.7093,4.6732,4.6244,4.6002,4.5982,4.5982,4.5591,4.4836,4.4095,4.3547,4.2991,4.2187,4.177,4.1752,4.1287,4.0855,4.0488,4.0049,3.9488,3.8824,3.8317,3.7907,3.7536,3.7047,3.6771,3.6742,3.627,3.5989,3.5959,3.5928,3.6135,3.6622,3.7159,3.7603,3.7954,3.8771,3.9277,3.926,4.0076,4.0538,4.0544,4.0868,4.1211,4.1583,4.1196,4.0846,4.0842,4.0812,4.1122,4.177,4.1622,4.1905,4.3101,4.3389,4.3838,4.4492,4.4991,4.5325,4.5504,4.5442,4.5152,4.4775,4.4695,4.4757,4.5102,4.525,4.5464,4.5808,4.5812,4.5178,4.4391,4.3974,4.3987,4.3979,4.3945,4.3921,4.4003,4.3931,4.3905,4.3894,4.3915,4.39,4.3718,4.3711,4.3694,4.3642,4.3732,4.3798,4.3806,4.3929,4.4019,5.5539,5.5593,5.567,5.5475,5.5118,5.489,5.4078,5.2902,5.2418,5.1858,5.1269,5.1018,5.0898,5.0906,5.0956,5.0967,5.0975,5.1016,5.0724,5.0176,5.0122,4.9676,4.8836,4.8287,4.7739,4.7278,4.6663,4.6252,4.6038,4.5982,4.5708,4.5183,4.4911,4.4501,4.3807,4.2844,4.2266,4.2195,4.1419,4.0995,4.0906,4.0449,4.0013,3.9773,3.9246,3.8833,3.8591,3.8005,3.767,3.7646,3.7017,3.668,3.6692,3.6624,3.6888,3.7526,3.8375,3.8855,3.887,3.9667,4.0154,4.0213,4.0778,4.1109,4.1167,4.1382,4.1766,4.2139,4.203,4.1872,4.1559,4.153,4.186,4.2576,4.255,4.2783,4.3904,4.4442,4.4648,4.4929,4.5429,4.5812,4.5777,4.5592,4.5343,4.5075,4.5017,4.5106,4.5689,4.5886,4.6266,4.6904,4.691,4.6435,4.5095,4.487,4.4732,4.4713,4.4792,4.4624,4.4635,4.4691,4.4397,4.4565,4.435,4.4128,4.4003,4.3926,4.3949,4.3875,4.4011,4.4233,4.4087,4.4301,4.4409,5.5384,5.5598,5.5856,5.591,5.5887,5.5152,5.477,5.4387,5.2979,5.2206,5.1993,5.1289,5.0917,5.0898,5.0906,5.0902,5.0906,5.091,5.0913,5.0873,5.0877,5.0488,4.9766,4.9682,4.8863,4.7583,4.724,4.6751,4.6038,4.5982,4.5982,4.5885,4.5222,4.4812,4.4523,4.3173,4.226,4.2317,4.1548,4.1036,4.1003,4.0976,4.0538,3.9922,3.9765,3.9431,3.8772,3.8592,3.8552,3.8533,3.8367,3.8322,3.834,3.8351,3.8361,3.8525,3.9265,3.9744,3.9828,4.0506,4.0974,4.1011,4.1031,4.1128,4.1265,4.2044,4.2521,4.2407,4.3519,4.3913,4.3442,4.3103,4.3422,4.4118,4.3676,4.4008,4.5423,4.4972,4.5026,4.5494,4.5745,4.5812,4.5815,4.58,4.5609,4.538,4.529,4.5311,4.5376,4.5766,4.6191,4.6579,4.6948,4.7167,4.6807,4.6278,4.6322,4.6263,4.5866,4.5739,4.6058,4.6179,4.5686,4.5322,4.5329,4.5073,4.449,4.4267,4.4355,4.4445,4.4711,4.4793,4.5031,4.4597,4.4721,5.5467,5.5094,5.5199,5.5406,5.5721,5.5436,5.5123,5.4731,5.4159,5.3212,5.2283,5.1854,5.1424,5.0898,5.0898,5.0898,5.0898,5.0898,5.0945,5.0982,5.1005,5.0872,5.0612,5.0086,4.956,4.886,4.7824,4.6854,4.6077,4.5982,4.5982,4.5982,4.573,4.5572,4.5358,4.4445,4.3862,4.3712,4.2518,4.1775,4.1701,4.1223,4.0802,4.0601,4.0568,4.0446,4.0193,3.9665,3.9349,3.9352,3.888,3.8566,3.8605,3.9045,3.9346,3.9414,4.0153,4.0636,4.0651,4.0917,4.1106,4.1106,4.1115,4.1362,4.1848,4.2473,4.3112,4.3939,4.4888,4.5355,4.5023,4.4178,4.3807,4.4439,4.4423,4.4631,4.5496,4.5563,4.5494,4.5749,4.5803,4.58,4.5809,4.5805,4.5746,4.5641,4.5613,4.5766,4.6181,4.6503,4.69,4.7928,4.834,4.8539,4.9036,4.7721,4.7037,4.7017,4.6862,4.6825,4.6995,4.7045,4.6641,4.6565,4.6502,4.6351,4.5877,4.5856,4.574,4.5822,4.6043,4.5988,4.6335,4.6019,4.5967,5.569,5.5212,5.5004,5.514,5.546,5.5458,5.5278,5.4921,5.4732,5.3987,5.2977,5.2429,5.1858,5.1327,5.1018,5.0898,5.0898,5.0898,5.0917,5.0963,5.0963,5.1009,5.096,5.0473,5.0064,4.9563,4.8081,4.6979,4.6441,4.6135,4.6002,4.5982,4.5982,4.5982,4.5863,4.5203,4.4792,4.4523,4.3357,4.2522,4.2172,4.1626,4.119,4.0995,4.0967,4.0999,4.1051,4.0507,4.0214,4.0147,3.9689,3.9391,3.9469,3.9911,4.0215,4.0303,4.0769,4.1118,4.1113,4.1106,4.11,4.1135,4.1397,4.1778,4.2299,4.3,4.3918,4.4855,4.5693,4.6185,4.5948,4.5062,4.4601,4.5033,4.5127,4.5337,4.5841,4.5864,4.5796,4.5791,4.5803,4.5803,4.5803,4.5803,4.5789,4.581,4.5806,4.6078,4.6476,4.6907,4.7259,4.8471,4.888,4.92,4.9587,4.8884,4.8497,4.8472,4.801,4.7921,4.7984,4.794,4.7833,4.7783,4.7675,4.7555,4.7498,4.7471,4.7471,4.7466,4.7273,4.7114,4.7348,4.7531,4.7274,5.6015,5.5849,5.5423,5.5198,5.5193,5.5199,5.5199,5.5101,5.4674,5.4371,5.391,5.2888,5.2294,5.1999,5.1337,5.0959,5.099,5.0944,5.0902,5.0914,5.0906,5.0933,5.0993,5.0983,5.0519,4.9757,4.8172,4.7364,4.7159,4.6502,4.6118,4.6021,4.5982,4.5982,4.5982,4.53,4.4872,4.4695,4.3974,4.3141,4.2347,4.225,4.1825,4.1092,4.1006,4.1002,4.1025,4.101,4.0976,4.0996,4.0969,4.1053,4.0899,4.0975,4.1047,4.0999,4.1094,4.1107,4.1118,4.1113,4.1126,4.1337,4.1896,4.2334,4.281,4.3861,4.4778,4.5127,4.571,4.6196,4.6194,4.6033,4.5909,4.5986,4.5871,4.5924,4.5952,4.5925,4.5883,4.5831,4.5814,4.5803,4.5803,4.5803,4.58,4.58,4.5912,4.6018,4.6252,4.6812,4.7101,4.7494,4.8347,4.9202,4.9678,5.0048,5.0124,5.0089,4.9432,4.9085,4.9306,4.9339,4.9007,4.8903,4.8879,4.874,4.8514,4.8481,4.8428,4.8409,4.8262,4.8285,4.8444,4.8545,4.8176,5.6262,5.5743,5.5541,5.5238,5.4957,5.4926,5.5026,5.5174,5.5006,5.4603,5.4054,5.3575,5.3067,5.2477,5.1837,5.1525,5.1481,5.1123,5.0917,5.0933,5.0914,5.0945,5.0982,5.102,5.0602,4.9854,4.9347,4.8436,4.747,4.7026,4.664,4.6116,4.6002,4.5982,4.5982,4.5766,4.563,4.5514,4.4812,4.4251,4.3938,4.3394,4.2694,4.19,4.1784,4.1546,4.0991,4.0999,4.102,4.1042,4.1029,4.1054,4.1093,4.1111,4.1106,4.1108,4.1104,4.1104,4.1098,4.1145,4.1413,4.188,4.2277,4.2986,4.3916,4.4557,4.5198,4.5655,4.6061,4.6197,4.6197,4.6197,4.6165,4.6144,4.6113,4.6073,4.6061,4.5975,4.5937,4.5932,4.5864,4.5807,4.5823,4.5842,4.59,4.5997,4.6364,4.6682,4.681,4.7345,4.7886,4.8017,4.8655,4.9065,4.9548,4.9984,5.0221,5.0394,5.0132,4.9838,5.0141,5.0256,5.0008,4.9866,4.9868,4.9773,4.9567,4.947,4.9396,4.957,4.9651,4.9677,4.9679,4.9434,4.9053,5.7037,5.6475,5.5856,5.5421,5.5079,5.4804,5.4739,5.49,5.5012,5.4742,5.4285,5.4002,5.3633,5.3066,5.2437,5.1949,5.1641,5.1341,5.1087,5.0901,5.0902,5.0948,5.1039,5.1046,5.0803,5.029,4.9991,4.9329,4.8269,4.7606,4.7023,4.654,4.6155,4.5982,4.5982,4.5982,4.5982,4.5902,4.5514,4.5086,4.4756,4.4268,4.3566,4.283,4.2675,4.2248,4.1475,4.1431,4.1317,4.106,4.0983,4.102,4.107,4.1052,4.1073,4.1074,4.1072,4.1071,4.1105,4.143,4.1785,4.236,4.2966,4.3728,4.4737,4.5103,4.5681,4.6084,4.6197,4.6197,4.6197,4.6197,4.6197,4.6197,4.6175,4.6134,4.6093,4.6022,4.5964,4.5958,4.5883,4.6015,4.6313,4.6326,4.6461,4.6732,4.7235,4.7583,4.7672,4.7986,4.8245,4.8481,4.884,4.9174,4.9472,4.9842,5.0186,5.0433,5.0572,5.0451,5.0537,5.0557,5.0402,5.0372,5.0362,5.0328,5.0147,5.0282,5.0312,5.062,5.0638,5.041,5.0136,5.0172,4.9887,5.8136,5.7911,5.6428,5.5798,5.5609,5.4885,5.46,5.4568,5.4684,5.4731,5.4601,5.4177,5.3937,5.3734,5.3054,5.231,5.1626,5.1601,5.1235,5.0793,5.0776,5.0917,5.108,5.109,5.1017,5.0878,5.0283,4.9891,4.9535,4.8347,4.7373,4.7159,4.6521,4.6038,4.6019,4.5982,4.5982,4.5982,4.5963,4.5572,4.4986,4.4889,4.4443,4.3644,4.3566,4.3161,4.2408,4.2262,4.1868,4.1122,4.0975,4.0997,4.0986,4.0988,4.101,4.1134,4.1052,4.1202,4.1386,4.1875,4.2438,4.2839,4.3919,4.4947,4.5126,4.5683,4.6068,4.618,4.6197,4.6197,4.6197,4.6197,4.6236,4.6275,4.627,4.6177,4.6128,4.6154,4.6217,4.6094,4.6029,4.6406,4.7377,4.7289,4.754,4.7985,4.8314,4.845,4.8527,4.8655,4.8581,4.8817,4.9161,4.9292,4.9588,4.9691,5.006,5.0505,5.0693,5.0693,5.0688,5.0688,5.0688,5.0688,5.0688,5.0688,5.0688,5.0688,5.0688,5.0678,5.0643,5.0568,5.0521,5.0468,5.0393,5.8624,5.8061,5.761,5.7103,5.6474,5.5639,5.5293,5.5216,5.4708,5.4576,5.4471,5.4331,5.4259,5.4195,5.3575,5.2845,5.2167,5.1679,5.1105,5.0516,5.0587,5.0843,5.1053,5.1081,5.1079,5.1034,5.0807,5.0454,4.9923,4.936,4.8541,4.7334,4.714,4.6618,4.6116,4.6041,4.5982,4.5982,4.5982,4.5924,4.5708,4.565,4.528,4.4559,4.4462,4.4013,4.3255,4.3158,4.241,4.1056,4.0925,4.0951,4.1091,4.1116,4.1382,4.1797,4.1435,4.1635,4.254,4.2585,4.2947,4.4099,4.4638,4.5187,4.583,4.605,4.6213,4.6203,4.6197,4.6197,4.6197,4.6236,4.649,4.6957,4.6685,4.635,4.6394,4.6681,4.6857,4.6374,4.714,4.776,4.8107,4.8167,4.8221,4.8527,4.8968,4.9335,4.9393,4.9684,4.9761,4.9471,4.9591,4.9575,4.964,4.9686,4.9967,5.0504,5.0683,5.0693,5.0688,5.0688,5.0688,5.0688,5.0688,5.0688,5.0688,5.0688,5.0688,5.0688,5.0668,5.0614,5.0588,5.0535,5.0462,5.9027,5.8568,5.8248,5.7835,5.7319,5.6484,5.6146,5.5977,5.5283,5.4888,5.4832,5.4521,5.4409,5.4359,5.4024,5.3424,5.2666,5.2049,5.1358,5.0726,5.0627,5.0786,5.1023,5.1091,5.1089,5.1095,5.1124,5.0848,5.0411,5.0073,4.9301,4.8561,4.8017,4.7395,4.6638,4.6543,4.6329,4.6077,4.5982,4.5982,4.5982,4.5982,4.5785,4.5358,4.528,4.4909,4.4151,4.3702,4.2964,4.2206,4.2017,4.2021,4.2044,4.2052,4.2287,4.2775,4.2311,4.2553,4.3279,4.3368,4.384,4.472,4.5155,4.5642,4.6051,4.6208,4.6212,4.6196,4.6204,4.6197,4.6256,4.6509,4.6957,4.7347,4.7347,4.7269,4.7269,4.7718,4.7733,4.765,4.8003,4.8884,4.9292,4.9195,4.9191,4.9467,4.9916,5.0109,5.0244,5.0647,5.0782,5.0322,5.0128,5.0171,5.017,5.0226,5.0192,5.065,5.0682,5.0693,5.0697,5.0693,5.0688,5.0688,5.0688,5.0688,5.0688,5.0688,5.0688,5.0688,5.0688,5.0668,5.0613,5.0577,5.05,5.929,5.9234,5.853,5.823,5.8098,5.7375,5.7018,5.6849,5.6108,5.5649,5.5405,5.4822,5.4559,5.4409,5.4301,5.3927,5.3144,5.2609,5.1893,5.1205,5.0763,5.0684,5.0956,5.1069,5.1085,5.1105,5.1172,5.112,5.0871,5.0361,5.002,4.9573,4.8991,4.8289,4.7528,4.7295,4.6871,4.6327,4.606,4.6002,4.5982,4.5982,4.5921,4.5883,4.5846,4.5572,4.4911,4.4326,4.3819,4.378,4.3624,4.3338,4.3379,4.3435,4.3537,4.3527,4.3444,4.3413,4.3849,4.4432,4.4799,4.5141,4.5739,4.6106,4.6171,4.6184,4.6192,4.62,4.6264,4.6508,4.6782,4.725,4.7717,4.8068,4.8536,4.8865,4.9021,4.8982,4.8923,4.8922,4.8887,4.9657,5.0235,5.0451,5.0107,5.0177,5.0542,5.0554,5.0608,5.0763,5.0879,5.0782,5.0724,5.0801,5.0805,5.0823,5.076,5.0842,5.0724,5.0697,5.0693,5.0683,5.0693,5.0688,5.0688,5.0688,5.0688,5.0688,5.0688,5.0688,5.0688,5.0663,5.0628,5.0603,5.0556,5.929,5.929,5.9121,5.9046,5.8915,5.8192,5.7835,5.7779,5.6981,5.6277,5.5668,5.5414,5.4945,5.4409,5.4371,5.3967,5.3318,5.2989,5.2402,5.125,5.0492,5.0406,5.0665,5.0933,5.1075,5.1089,5.1114,5.1133,5.1071,5.0921,5.0561,4.9943,4.9768,4.9185,4.8386,4.7781,4.7256,4.6929,4.6388,4.6096,4.6057,4.6021,4.5982,4.5982,4.5982,4.5924,4.5805,4.5572,4.5455,4.5164,4.4326,4.3702,4.3683,4.3644,4.3935,4.4268,4.3954,4.4105,4.5055,4.5074,4.5105,4.5727,4.5905,4.6109,4.6123,4.6188,4.6191,4.6305,4.676,4.7394,4.7949,4.8323,4.8736,4.9186,4.957,4.9997,5.0443,5.0131,4.972,4.9674,5.0114,5.0763,5.1053,5.0914,5.082,5.0972,5.0952,5.091,5.0898,5.0898,5.0898,5.0898,5.0898,5.0898,5.0913,5.0897,5.0881,5.0876,5.0797,5.0729,5.0725,5.0707,5.0721,5.0702,5.0688,5.0688,5.0688,5.0688,5.0688,5.0688,5.0688,5.0673,5.0653,5.0623,5.0598,5.929,5.929,5.929,5.929,5.9234,5.883,5.8661,5.852,5.7826,5.7,5.624,5.5818,5.5151,5.4446,5.439,5.4127,5.3748,5.337,5.2571,5.1477,5.0873,5.0708,5.0572,5.078,5.0906,5.0932,5.1006,5.1092,5.1133,5.1155,5.095,5.0561,5.0484,5.004,4.9321,4.8696,4.8347,4.7803,4.7065,4.6618,4.6579,4.6174,4.5982,4.5982,4.5982,4.5982,4.5963,4.5963,4.5963,4.5788,4.5144,4.4656,4.4656,4.4656,4.4928,4.5144,4.5028,4.4986,4.565,4.5672,4.558,4.5998,4.6035,4.6065,4.6245,4.6425,4.6717,4.6928,4.75,4.8248,4.876,4.9274,4.9645,4.9951,5.0382,5.0807,5.1098,5.0871,5.0579,5.0517,5.0871,5.1069,5.1177,5.1108,5.1047,5.1014,5.0979,5.0959,5.0898,5.0898,5.0898,5.0898,5.0898,5.0898,5.0898,5.0886,5.0878,5.0877,5.0844,5.0819,5.0821,5.0776,5.075,5.0731,5.0707,5.0688,5.0688,5.0688,5.0688,5.0688,5.0688,5.0688,5.0683,5.0658,5.0628,5.929,5.929,5.929,5.929,5.929,5.9271,5.9253,5.9159,5.8586,5.7835,5.7037,5.6165,5.5496,5.4771,5.4487,5.4432,5.423,5.3669,5.2729,5.2007,5.1681,5.1306,5.0999,5.0898,5.0784,5.0695,5.089,5.1029,5.1121,5.1145,5.1141,5.1141,5.116,5.0736,5.0195,4.9868,4.9418,4.8735,4.7939,4.7489,4.7354,4.6735,4.6271,4.5982,4.5982,4.5982,4.5982,4.5982,4.5982,4.5982,4.5982,4.5982,4.5982,4.5982,4.5982,4.5963,4.5808,4.5844,4.5902,4.5941,4.5946,4.5982,4.5985,4.6139,4.6419,4.6895,4.7318,4.7833,4.8349,4.9042,4.9213,4.9866,5.0254,5.0444,5.0961,5.1255,5.1312,5.1312,5.1221,5.1201,5.1176,5.1233,5.1225,5.1168,5.1111,5.1053,5.1027,5.0983,5.0948,5.0906,5.091,5.0902,5.0898,5.0898,5.0898,5.1006,5.0975,5.1311,5.1214,5.1322,5.1359,5.165,5.1654,5.0846,5.0707,5.0731,5.0717,5.0697,5.0693,5.0693,5.0688,5.0688,5.0688,5.0688,5.0658,5.929,5.929,5.929,5.929,5.929,5.929,5.929,5.929,5.9121,5.8652,5.7779,5.7018,5.6214,5.5517,5.4802,5.4576,5.4396,5.3901,5.3388,5.2954,5.2582,5.1986,5.1455,5.1375,5.1046,5.0631,5.0806,5.1127,5.1143,5.1199,5.1199,5.1199,5.1199,5.1027,5.0755,5.0331,4.9965,4.9612,4.8852,4.8405,4.8191,4.755,4.6815,4.6349,4.631,4.6254,4.6157,4.6079,4.5982,4.5982,4.6002,4.6002,4.5982,4.5982,4.5982,4.5982,4.5982,4.5982,4.5982,4.5982,4.5982,4.5982,4.6077,4.6485,4.6938,4.7356,4.797,4.8631,4.933,5.0053,5.08,5.0911,5.1082,5.1216,5.1232,5.1367,5.1371,5.1365,5.1363,5.1319,5.1317,5.1306,5.1255,5.1245,5.12,5.113,5.1081,5.1014,5.0949,5.0932,5.0929,5.0917,5.0898,5.0898,5.0898,5.1072,5.1215,5.1908,5.2086,5.2333,5.2494,5.2897,5.2678,5.1821,5.1086,5.0837,5.0803,5.0731,5.0697,5.0688,5.0688,5.0688,5.0688,5.0688,5.0688,5.929,5.929,5.929,5.929,5.929,5.929,5.929,5.929,5.9271,5.8596,5.7657,5.7027,5.6199,5.5296,5.4818,5.4645,5.4609,5.45,5.4092,5.3746,5.3385,5.2843,5.2177,5.212,5.1688,5.1321,5.1327,5.1273,5.1117,5.1159,5.1193,5.1199,5.1199,5.1199,5.1141,5.0814,5.0584,5.035,4.9748,4.9263,4.9185,4.8405,4.7706,4.7475,4.732,4.734,4.734,4.734,4.7126,4.6812,4.6696,4.6427,4.6193,4.606,4.6041,4.606,4.6041,4.5999,4.6002,4.6021,4.6174,4.6638,4.6676,4.7104,4.7842,4.8455,4.8996,4.978,5.025,5.0841,5.1205,5.1347,5.1386,5.1386,5.1384,5.1383,5.1384,5.1402,5.1369,5.1344,5.1348,5.1341,5.1295,5.1288,5.1281,5.1207,5.1132,5.1078,5.1005,5.1127,5.1182,5.1275,5.1349,5.151,5.1582,5.1761,5.1992,5.2588,5.2967,5.3231,5.3418,5.3708,5.3397,5.2698,5.2028,5.1512,5.0841,5.0741,5.0726,5.0707,5.0688,5.0688,5.0688,5.0688,5.0688,5.929,5.929,5.929,5.929,5.929,5.929,5.9337,5.9364,5.9373,5.8593,5.7287,5.6958,5.6131,5.5026,5.4713,5.475,5.4928,5.509,5.484,5.4383,5.4483,5.4091,5.3276,5.2976,5.2674,5.2039,5.2035,5.165,5.113,5.1105,5.1153,5.1196,5.1199,5.1199,5.116,5.1102,5.1199,5.0989,5.06,5.0156,4.9748,4.9243,4.8738,4.8619,4.858,4.8502,4.8369,4.835,4.8094,4.7723,4.7509,4.7259,4.6679,4.6546,4.6546,4.6507,4.6368,4.6271,4.6329,4.6621,4.7045,4.7512,4.7548,4.8033,4.8783,4.959,5.0367,5.1062,5.122,5.1214,5.129,5.1352,5.1379,5.1383,5.1386,5.1386,5.1386,5.1386,5.1386,5.1384,5.1385,5.1398,5.1382,5.1332,5.1326,5.1291,5.1213,5.1176,5.1157,5.1563,5.1696,5.18,5.1949,5.22,5.2427,5.2763,5.3125,5.3666,5.3955,5.4152,5.4257,5.4378,5.3996,5.3722,5.3305,5.2734,5.177,5.0918,5.0948,5.0952,5.0789,5.0688,5.0688,5.0688,5.0688,5.929,5.929,5.929,5.929,5.929,5.929,5.941,5.9535,5.9554,5.908,5.8045,5.7383,5.6545,5.5643,5.5014,5.489,5.5094,5.5457,5.543,5.4969,5.5422,5.5089,5.411,5.3951,5.3447,5.2875,5.2806,5.2098,5.1447,5.1211,5.1117,5.1192,5.1184,5.1199,5.1199,5.1199,5.1199,5.118,5.1083,5.0678,5.0078,4.9826,4.9379,4.8932,4.8755,4.8832,4.891,4.893,4.8696,4.8524,4.8444,4.8386,4.8289,4.8289,4.8289,4.8075,4.7667,4.7159,4.7276,4.7628,4.8094,4.8366,4.8444,4.8913,4.966,5.0384,5.0978,5.1136,5.1266,5.1306,5.1322,5.136,5.1379,5.1396,5.1391,5.1392,5.1386,5.1395,5.1402,5.1383,5.1384,5.1484,5.152,5.1457,5.1393,5.1344,5.131,5.1327,5.1492,5.1987,5.2454,5.2643,5.2908,5.3178,5.3548,5.3847,5.4206,5.475,5.4896,5.5058,5.5142,5.5202,5.5227,5.492,5.4498,5.3831,5.2814,5.2043,5.1553,5.1245,5.1165,5.0942,5.0693,5.0697,5.0768,5.9197,5.9034,5.9206,5.929,5.929,5.929,5.9336,5.9446,5.9544,5.9144,5.8367,5.7619,5.6573,5.5484,5.4992,5.4953,5.5109,5.5586,5.5568,5.5387,5.5674,5.5509,5.5001,5.4785,5.439,5.3759,5.3507,5.3155,5.23,5.1702,5.1463,5.1159,5.1105,5.1131,5.1243,5.1219,5.1199,5.1199,5.116,5.1008,5.0736,5.06,5.0445,5.0076,5.0017,4.9998,4.9998,5.0056,4.9765,4.9515,4.934,4.9068,4.8716,4.8561,4.8561,4.8599,4.8777,4.8524,4.8191,4.8483,4.8852,4.9243,4.9399,4.9748,5.0489,5.0934,5.1216,5.1219,5.128,5.1322,5.1351,5.1383,5.1379,5.1391,5.1394,5.1394,5.1394,5.1394,5.1384,5.1384,5.1484,5.175,5.1912,5.1854,5.1816,5.1777,5.1971,5.2199,5.2411,5.2825,5.326,5.3632,5.3952,5.4252,5.469,5.5078,5.5319,5.5714,5.5821,5.5955,5.6032,5.6093,5.5961,5.5903,5.5601,5.4816,5.3819,5.3146,5.2589,5.2074,5.1598,5.1466,5.1323,5.0979,5.1009,5.9063,5.8908,5.9225,5.9364,5.9383,5.9383,5.9392,5.941,5.9597,5.9213,5.8348,5.7461,5.6209,5.5295,5.5173,5.5299,5.5177,5.5929,5.5944,5.588,5.5874,5.595,5.5664,5.5511,5.5033,5.4428,5.4441,5.3953,5.333,5.2787,5.229,5.1587,5.1524,5.1451,5.1396,5.1301,5.1199,5.1199,5.1199,5.118,5.1141,5.1141,5.1141,5.1141,5.1199,5.1199,5.1199,5.1122,5.0717,5.0406,5.0234,4.9959,4.9551,4.9512,4.9493,4.959,4.9884,4.9884,4.9512,4.9493,4.9632,4.9962,5.0234,5.0467,5.0953,5.1208,5.12,5.1216,5.1267,5.1328,5.1361,5.1387,5.1384,5.1389,5.1394,5.1394,5.1433,5.155,5.1766,5.1964,5.2142,5.2413,5.2498,5.2357,5.2278,5.2239,5.2524,5.3004,5.3436,5.3828,5.4284,5.4745,5.5034,5.5312,5.5586,5.6015,5.6367,5.6465,5.6543,5.6562,5.6465,5.6445,5.6342,5.6343,5.6347,5.5909,5.4988,5.4287,5.3604,5.301,5.2496,5.2285,5.2048,5.1686,5.1639,5.8927,5.9083,5.9464,5.9589,5.9598,5.9589,5.9589,5.9571,5.9786,5.9403,5.848,5.7039,5.5936,5.5318,5.5686,5.5739,5.5222,5.7685,5.73,5.6931,5.7167,5.6836,5.6301,5.5651,5.5339,5.5224,5.511,5.4683,5.4211,5.3947,5.356,5.3147,5.2398,5.2179,5.196,5.1651,5.1301,5.1252,5.1199,5.1199,5.1199,5.1199,5.1199,5.1199,5.1199,5.1199,5.1199,5.1199,5.116,5.093,5.0911,5.093,5.06,5.0581,5.0581,5.0658,5.0736,5.0775,5.0619,5.06,5.0911,5.1066,5.1047,5.0969,5.1183,5.1214,5.1219,5.1222,5.1258,5.1298,5.134,5.1398,5.1594,5.1526,5.1648,5.1863,5.1902,5.1902,5.2117,5.2469,5.2801,5.3132,5.3542,5.3483,5.3171,5.3114,5.3544,5.401,5.4638,5.5097,5.5508,5.5916,5.6171,5.6348,5.6367,5.6582,5.6543,5.6543,5.6582,5.6601,5.6582,5.6562,5.6543,5.6524,5.6442,5.6314,5.617,5.5387,5.4615,5.3889,5.3436,5.3294,5.3115,5.2857,5.299,5.9462,5.9719,5.9864,5.9858,5.9786,5.9786,5.97,5.9668,5.988,5.9612,5.8822,5.7588,5.6575,5.6152,5.6041,5.5919,5.5407,5.6699,5.6746,5.6511,5.6511,5.653,5.5957,5.5708,5.5396,5.5396,5.5377,5.5326,5.4963,5.4804,5.4797,5.4292,5.3382,5.293,5.2599,5.2186,5.169,5.1323,5.1258,5.1219,5.1199,5.1199,5.1199,5.1199,5.1199,5.1199,5.1199,5.1199,5.1199,5.1199,5.1199,5.1199,5.1199,5.1199,5.1199,5.1199,5.1199,5.1199,5.1199,5.1199,5.1199,5.1199,5.1199,5.1199,5.1199,5.1209,5.1211,5.1215,5.1297,5.1413,5.1414,5.1833,5.217,5.192,5.2019,5.237,5.2487,5.2507,5.2858,5.3367,5.364,5.3893,5.4342,5.4753,5.4361,5.4068,5.4538,5.5028,5.5563,5.594,5.622,5.6361,5.6538,5.6619,5.6621,5.6621,5.6621,5.6621,5.6621,5.6621,5.6621,5.6601,5.6582,5.6562,5.6562,5.6484,5.6348,5.6172,5.5608,5.4846,5.4497,5.4382,5.4215,5.4031,5.4133,5.9673,5.9933,6.0053,6.003,5.9974,5.9947,5.9842,5.9751,5.9967,5.9724,5.9057,5.8323,5.7594,5.7068,5.7144,5.6808,5.6652,5.7311,5.7192,5.7199,5.7218,5.6836,5.632,5.588,5.5728,5.5511,5.5396,5.5339,5.5301,5.5377,5.5288,5.4988,5.4596,5.4194,5.3398,5.2957,5.2332,5.201,5.1928,5.1724,5.1688,5.1591,5.1355,5.1296,5.1199,5.1199,5.1199,5.1199,5.1199,5.1199,5.1199,5.1199,5.1199,5.1199,5.1199,5.1199,5.1199,5.1199,5.1199,5.1199,5.1199,5.1199,5.1199,5.1199,5.1199,5.1199,5.1203,5.1253,5.1444,5.1688,5.1806,5.2473,5.2924,5.2832,5.3091,5.3385,5.3327,5.3346,5.3834,5.4323,5.4517,5.4693,5.524,5.565,5.5474,5.52,5.5474,5.5807,5.6084,5.6363,5.6446,5.6531,5.6594,5.6618,5.6621,5.6621,5.6621,5.6621,5.6621,5.6621,5.6621,5.6621,5.6621,5.6601,5.6601,5.6601,5.6523,5.6367,5.6113,5.5742,5.553,5.5336,5.5386,5.5233,5.5098,5.9381,5.9565,5.9933,6.0084,6.0103,6.011,6.0018,5.9872,5.9946,5.9704,5.9248,5.8998,5.8566,5.8108,5.838,5.8094,5.7865,5.8988,5.9262,5.851,5.8192,5.823,5.7523,5.674,5.6097,5.5549,5.5549,5.5613,5.5492,5.5415,5.5415,5.5626,5.5607,5.5444,5.4359,5.376,5.3484,5.3441,5.3388,5.2929,5.2545,5.239,5.2057,5.1766,5.1649,5.1707,5.1471,5.1455,5.1416,5.1219,5.1219,5.1199,5.1199,5.1199,5.1199,5.1199,5.1199,5.1199,5.1199,5.1199,5.1199,5.1199,5.1199,5.1199,5.1199,5.1241,5.1377,5.1542,5.2027,5.2446,5.284,5.3307,5.3631,5.3763,5.4002,5.4322,5.4264,5.4419,5.4927,5.5201,5.5337,5.5552,5.6117,5.6507,5.6449,5.641,5.6527,5.6606,5.6608,5.6611,5.6616,5.6604,5.661,5.6614,5.6619,5.6621,5.6621,5.6621,5.6621,5.6621,5.6621,5.6621,5.6621,5.6621,5.6621,5.6621,5.6621,5.6582,5.6348,5.6172,5.6348,5.6304,5.6379,5.6296,5.6001,5.9289,5.9708,5.985,6.0042,6.0277,6.0299,6.0204,5.9969,5.9589,5.954,5.9776,5.9408,5.9026,5.8873,5.8854,5.8765,5.8345,5.8816,5.9083,5.8479,5.8498,5.7734,5.7186,5.6899,5.646,5.6269,5.6173,5.6116,5.6212,5.5785,5.5454,5.5587,5.6142,5.6026,5.5378,5.4837,5.4569,5.3677,5.349,5.3416,5.3291,5.3239,5.3083,5.2769,5.2731,5.2484,5.2037,5.2018,5.1824,5.1494,5.1435,5.1374,5.1335,5.1316,5.1299,5.1258,5.1219,5.1199,5.1199,5.1199,5.1199,5.1258,5.1277,5.1296,5.1219,5.1746,5.1901,5.2182,5.2825,5.3237,5.3534,5.4268,5.4577,5.4314,5.4538,5.5118,5.5337,5.5669,5.604,5.6118,5.6216,5.6157,5.6488,5.6605,5.6605,5.6605,5.6605,5.6605,5.6606,5.6607,5.6611,5.6619,5.6606,5.661,5.6614,5.6619,5.662,5.6621,5.6621,5.6621,5.6621,5.6621,5.6621,5.6621,5.6621,5.6621,5.6621,5.6621,5.6621,5.6582,5.6621,5.6621,5.654,5.6499,5.6439,5.9027,5.9396,5.97,5.9956,6.02,6.0354,6.0332,6.0112,5.9674,5.9808,6.0153,5.9778,5.9568,5.9568,5.951,5.9376,5.8848,5.9262,5.9472,5.8765,5.8803,5.8218,5.7511,5.6976,5.6613,5.6536,5.6498,5.6498,5.6052,5.5938,5.588,5.6014,5.6339,5.6537,5.6362,5.6322,5.6151,5.5456,5.5327,5.4829,5.4518,5.4213,5.3883,5.3644,5.3508,5.3381,5.3012,5.2756,5.262,5.2173,5.1999,5.1882,5.1782,5.1863,5.1843,5.1746,5.194,5.2037,5.2173,5.2193,5.229,5.2232,5.1824,5.1785,5.194,5.2407,5.2659,5.3001,5.3672,5.4008,5.4351,5.5112,5.5326,5.5064,5.5304,5.5887,5.6038,5.635,5.6409,5.6545,5.6585,5.6605,5.6605,5.6605,5.6605,5.6605,5.6605,5.6605,5.6605,5.6606,5.6607,5.6613,5.6619,5.6602,5.6608,5.6614,5.6616,5.6617,5.6621,5.6621,5.6621,5.6621,5.6621,5.6621,5.6621,5.6621,5.6621,5.6621,5.6621,5.6621,5.6621,5.6621,5.6621,5.6619,5.6618,5.8605,5.8711,5.9431,5.975,5.9831,6.0166,6.0361,6.0389,6.037,6.0377,6.0377,6.0339,6.0224,6.032,6.0339,6.0243,6.0129,6.0243,6.0186,6.009,5.9765,5.8944,5.8307,5.7886,5.7351,5.653,5.6358,5.6778,5.5797,5.6339,5.6651,5.6632,5.6804,5.7079,5.7424,5.7557,5.7403,5.6882,5.6298,5.5784,5.5356,5.5034,5.4572,5.4254,5.4066,5.3964,5.3747,5.3644,5.3579,5.3472,5.352,5.307,5.2973,5.3245,5.2992,5.2915,5.3225,5.3326,5.3364,5.3303,5.3517,5.3358,5.297,5.3128,5.3187,5.3203,5.3417,5.3824,5.4406,5.4772,5.5163,5.568,5.6173,5.6147,5.622,5.6419,5.6459,5.6542,5.6543,5.6583,5.6604,5.6605,5.6605,5.6605,5.6605,5.6605,5.6605,5.6605,5.6605,5.6605,5.6606,5.6606,5.661,5.6612,5.6619,5.6607,5.6611,5.6612,5.6616,5.6621,5.6621,5.662,5.6621,5.6621,5.6621,5.6621,5.6621,5.6621,5.6621,5.6621,5.6621,5.6621,5.6621,5.6621,5.6619,5.8337,5.8628,5.8852,5.9112,5.9423,5.9799,6.011,6.0382,6.0396,6.0396,6.0396,6.0396,6.0339,6.0396,6.0396,6.0396,6.0396,6.0396,6.0377,6.0262,5.995,5.93,5.8892,5.8644,5.8319,5.7975,5.7695,5.7581,5.7765,5.7829,5.7409,5.753,5.7186,5.753,5.7703,5.7914,5.7576,5.7207,5.6601,5.6211,5.5908,5.5552,5.5155,5.5032,5.4951,5.4823,5.4548,5.4486,5.4317,5.388,5.3763,5.3475,5.3481,5.3578,5.3442,5.342,5.3578,5.3675,5.3714,5.373,5.4002,5.4504,5.431,5.3941,5.3944,5.4041,5.4271,5.4718,5.5168,5.5535,5.5689,5.6068,5.6378,5.6418,5.6464,5.6498,5.6539,5.6548,5.655,5.6603,5.6605,5.6605,5.6605,5.6605,5.6605,5.6605,5.6605,5.6605,5.6605,5.6605,5.6605,5.6605,5.6605,5.6608,5.6612,5.662,5.6603,5.6606,5.6611,5.6615,5.6616,5.6617,5.6619,5.662,5.6621,5.6621,5.6621,5.6621,5.6621,5.6621,5.6621,5.6621,5.6621,5.6621,5.6621,5.8142,5.8351,5.8542,5.892,5.9432,5.97,6.0026,6.0304,6.0045,6.0045,6.0358,6.0014,6.0083,6.0377,6.0396,6.0396,6.0396,6.0396,6.0396,6.0243,5.9835,5.9453,5.9255,5.9102,5.8739,5.8625,5.8529,5.8326,5.8517,5.7886,5.7339,5.7243,5.7179,5.7199,5.7148,5.697,5.6843,5.6626,5.6361,5.6099,5.5967,5.5822,5.5733,5.5729,5.5759,5.5513,5.5247,5.5187,5.4893,5.4598,5.4555,5.4423,5.432,5.4184,5.4546,5.4624,5.4838,5.4896,5.4915,5.4857,5.5087,5.534,5.5495,5.5262,5.5106,5.5165,5.532,5.5592,5.5971,5.6258,5.6278,5.6319,5.6366,5.6426,5.6451,5.6457,5.6493,5.6525,5.6563,5.66,5.6605,5.6605,5.6605,5.6605,5.6605,5.6605,5.6605,5.6605,5.6605,5.6605,5.6605,5.6605,5.6605,5.6606,5.661,5.6613,5.6615,5.6619,5.6605,5.6608,5.6609,5.6613,5.6617,5.6619,5.6621,5.6621,5.6621,5.6621,5.6621,5.6621,5.6621,5.6621,5.6621,5.6621,5.6621,5.8058,5.8115,5.8479,5.9103,5.9723,5.9791,5.9969,6.0165,5.9376,5.9472,5.9995,5.9472,5.958,6.0052,6.0281,6.0377,6.0396,6.0396,6.0396,6.0396,6.0281,5.9918,5.951,5.9217,5.9205,5.8746,5.8536,5.8701,5.802,5.7721,5.7485,5.6804,5.6339,5.653,5.7008,5.6167,5.6021,5.625,5.6225,5.6135,5.6116,5.5908,5.5598,5.5602,5.5681,5.5711,5.5731,5.576,5.5784,5.5802,5.5726,5.5419,5.5165,5.5003,5.5494,5.5777,5.5851,5.6061,5.6003,5.5964,5.612,5.6275,5.6314,5.6081,5.5906,5.5848,5.5942,5.5981,5.6259,5.6309,5.6308,5.6311,5.6349,5.6407,5.6443,5.6462,5.6503,5.6536,5.657,5.6603,5.6605,5.6605,5.6605,5.6605,5.6605,5.6605,5.6605,5.6605,5.6605,5.6605,5.6605,5.6605,5.6605,5.6605,5.6606,5.6608,5.6607,5.661,5.6617,5.6619,5.662,5.6607,5.6613,5.6617,5.662,5.6621,5.6621,5.6621,5.6621,5.6621,5.6621,5.6621,5.6621,5.6621,5.6621,5.8458,5.85,5.8881,5.9342,5.9774,5.9791,5.9638,5.9344,5.8536,5.867,5.9255,5.9198,5.9236,5.9625,6.0205,6.0396,6.0396,6.0396,6.0396,6.0396,6.0396,6.03,6.009,5.9911,5.9842,5.9701,5.9453,5.9083,5.8758,5.8593,5.8708,5.9059,5.7829,5.6988,5.7084,5.6052,5.5606,5.5842,5.5823,5.5823,5.5747,5.5651,5.544,5.5453,5.5513,5.5587,5.5607,5.5643,5.5708,5.5765,5.5798,5.571,5.558,5.5686,5.582,5.6036,5.6192,5.6491,5.6699,5.6579,5.6514,5.6748,5.6712,5.6427,5.6295,5.6314,5.6314,5.6314,5.6307,5.6302,5.6314,5.6311,5.6315,5.6368,5.6437,5.6468,5.6514,5.6546,5.6577,5.66,5.6604,5.6605,5.6605,5.6605,5.6605,5.6605,5.6605,5.6605,5.6605,5.6605,5.6605,5.6605,5.6605,5.6605,5.6605,5.6605,5.6605,5.6605,5.661,5.661,5.661,5.662,5.6609,5.6614,5.6617,5.6619,5.662,5.6621,5.6621,5.6621,5.6621,5.6621,5.6621,5.6621,5.6621,5.8326,5.838,5.877,5.927,5.9741,5.9791,5.9543,5.901,5.8249,5.8154,5.8536,5.8606,5.893,5.951,6.0205,6.0396,6.0396,6.0396,6.0396,6.0396,6.0396,6.0396,6.0396,6.0396,6.03,6.0205,5.9969,5.9701,5.9548,5.8746,5.8708,5.9078,5.781,5.6893,5.6778,5.5836,5.5396,5.5415,5.5396,5.5396,5.5396,5.5396,5.5396,5.5396,5.5403,5.5447,5.5465,5.5507,5.5547,5.5621,5.567,5.5769,5.5731,5.5815,5.587,5.595,5.6058,5.6304,5.6598,5.6621,5.6439,5.669,5.6608,5.6163,5.6165,5.6172,5.6291,5.6314,5.6314,5.6303,5.6308,5.6314,5.6325,5.6375,5.6411,5.6453,5.6506,5.6549,5.6577,5.6603,5.6605,5.6605,5.6605,5.6605,5.6605,5.6605,5.6605,5.6605,5.6605,5.6605,5.6605,5.6605,5.6605,5.6605,5.6605,5.6605,5.6605,5.6605,5.6605,5.6606,5.6608,5.6616,5.6604,5.6608,5.6612,5.6615,5.6618,5.6619,5.6619,5.6621,5.6621,5.6621,5.6621,5.6621,5.6621,5.8149,5.8209,5.8607,5.9084,5.9579,5.9676,5.9296,5.8654,5.802,5.7791,5.7963,5.7963,5.8887,5.9785,6.0396,6.0396,6.0396,6.0396,6.0396,6.0396,6.0396,6.0396,6.0396,6.0396,6.0396,6.0186,5.988,6.0071,6.0205,5.9039,5.802,5.7657,5.6797,5.5721,5.5568,5.5435,5.5396,5.5396,5.5396,5.5396,5.5396,5.5396,5.5396,5.5396,5.5396,5.5396,5.5396,5.5384,5.5384,5.5428,5.5531,5.5621,5.5691,5.5739,5.5769,5.5798,5.5851,5.617,5.6418,5.6271,5.6289,5.633,5.6119,5.6004,5.6024,5.6087,5.6192,5.6235,5.6235,5.6285,5.6291,5.6314,5.6344,5.6372,5.6405,5.6445,5.6501,5.6549,5.6577,5.6604,5.6605,5.6605,5.6605,5.6605,5.6605,5.6605,5.6605,5.6605,5.6605,5.6605,5.6605,5.6605,5.6605,5.6605,5.6605,5.6605,5.6605,5.6605,5.6605,5.6605,5.6606,5.6612,5.6616,5.6619,5.6605,5.6588,5.6611,5.6614,5.6613,5.6592,5.6616,5.6618,5.6619,5.662,5.6621,5.8669,5.8998,5.9415,5.9288,5.8875,5.9086,5.8424,5.7192,5.6995,5.7224,5.7772,5.7963,5.8498,5.9434,6.0148,6.0377,6.0396,6.0396,6.0396,6.0396,6.0396,6.0396,6.0396,6.0396,6.0396,6.0052,5.9574,5.9326,5.9918,5.8829,5.823,5.8625,5.7905,5.6931,5.6224,5.5919,5.5396,5.5396,5.5396,5.5396,5.5396,5.5396,5.5396,5.5396,5.5396,5.5396,5.5396,5.5396,5.5396,5.539,5.5422,5.5471,5.5531,5.559,5.5635,5.5654,5.5712,5.6319,5.6498,5.614,5.6146,5.6956,5.6647,5.5836,5.5855,5.5873,5.5954,5.6003,5.6063,5.6206,5.6249,5.6303,5.6321,5.6351,5.6392,5.6449,5.6503,5.6546,5.658,5.6603,5.6605,5.6605,5.6605,5.6605,5.6605,5.6605,5.6605,5.6605,5.6605,5.6605,5.6605,5.6605,5.6605,5.6605,5.6605,5.6605,5.6605,5.6605,5.6605,5.6605,5.6605,5.6606,5.6609,5.6612,5.6571,5.6554,5.6559,5.6556,5.6563,5.6562,5.659,5.6614,5.6615,5.6617,5.6619]}]]